[[{"header":{"parameterUnit":"m.s-1","parameterCategory":1,"la1":30.6,"la2":28.766,"lo1":-90.7593,"lo2":-88.6598,"dx":0.0162,"dy":0.0183,"nx":116,"ny":114,"refTime":"2022-11-18T18:00:00:Z","depth":0,"parameterNumber":2,"parameterNumberName":"U-component_of_WINDS"},"data":[0.0,0.0,0.0,0.0,0.0,0.0,0.0,0.0,0.0,0.0,0.0,0.0,0.0,0.0,0.0,0.0,0.0,0.0,0.0,0.0,0.0,0.0,0.0,0.0,0.0,0.0,0.0,0.0,0.0,0.0,0.0,0.0,0.0,0.0,0.0,0.0,0.0,0.0,0.0,0.0,0.0,0.0,0.0,0.0,0.0,0.0,0.0,0.0,0.0,0.0,0.0,0.0,0.0,0.0,0.0,0.0,0.0,0.0,0.0,0.0,0.0,0.0,0.0,0.0,0.0,0.0,0.0,0.0,0.0,0.0,0.0,0.0,0.0,0.0,0.0,0.0,0.0,0.0,0.0,0.0,0.0,0.0,0.0,0.0,0.0,0.0,0.0,0.0,0.0,0.0,0.0,0.0,0.0,0.0,0.0,0.0,0.0,0.0,0.0,0.0,0.0,0.0,0.0,0.0,0.0,0.0,0.0,0.0,0.0,0.0,0.0,0.0,0.0,0.0,0.0,0.0,0.0,0.0,0.0,0.0,0.0,0.0,0.0,0.0,0.0,0.0,0.0,0.0,0.0,0.0,0.0,0.0,0.0,0.0,0.0,0.0,0.0,0.0,0.0,0.0,0.0,0.0,0.0,0.0,0.0,0.0,0.0,0.0,0.0,0.0,0.0,0.0,0.0,0.0,0.0,0.0,0.0,0.0,0.0,0.0,0.0,0.0,0.0,0.0,0.0,0.0,0.0,0.0,0.0,0.0,0.0,0.0,0.0,0.0,0.0,0.0,0.0,0.0,0.0,0.0,0.0,0.0,0.0,0.0,0.0,0.0,0.0,0.0,0.0,0.0,0.0,0.0,0.0,0.0,0.0,0.0,0.0,0.0,0.0,0.0,0.0,0.0,0.0,0.0,0.0,0.0,0.0,0.0,0.0,0.0,0.0,0.0,0.0,0.0,0.0,0.0,0.0,0.0,0.0,0.0,0.0,0.0,0.0,0.0,0.0,0.0,0.0,0.0,0.0,0.0,0.0,0.0,0.0,0.0,0.0,0.0,0.0,0.0,0.0,0.0,0.0,0.0,0.0,0.0,0.0,0.0,0.0,0.0,0.0,0.0,0.0,0.0,0.0,0.0,0.0,0.0,0.0,0.0,0.0,0.0,0.0,0.0,0.0,0.0,0.0,0.0,0.0,0.0,0.0,0.0,0.0,0.0,0.0,0.0,0.0,0.0,0.0,0.0,0.0,0.0,0.0,0.0,0.0,0.0,0.0,0.0,0.0,0.0,0.0,0.0,0.0,0.0,0.0,0.0,0.0,0.0,0.0,0.0,0.0,0.0,0.0,0.0,0.0,0.0,0.0,0.0,0.0,0.0,0.0,0.0,0.0,0.0,0.0,0.0,0.0,0.0,0.0,0.0,0.0,0.0,0.0,0.0,0.0,0.0,0.0,0.0,0.0,0.0,0.0,0.0,0.0,0.0,0.0,0.0,0.0,0.0,0.0,0.0,0.0,0.0,0.0,0.0,0.0,0.0,0.0,0.0,0.0,0.0,0.0,0.0,0.0,0.0,0.0,0.0,0.0,0.0,0.0,0.0,0.0,0.0,0.0,0.0,0.0,0.0,0.0,0.0,0.0,0.0,0.0,0.0,0.0,0.0,0.0,0.0,0.0,0.0,0.0,0.0,0.0,0.0,0.0,0.0,0.0,0.0,0.0,0.0,0.0,0.0,0.0,0.0,0.0,0.0,0.0,0.0,0.0,0.0,0.0,0.0,0.0,0.0,0.0,0.0,0.0,0.0,0.0,0.0,0.0,0.0,0.0,0.0,0.0,0.0,0.0,0.0,0.0,0.0,0.0,0.0,0.0,0.0,0.0,0.0,0.0,0.0,0.0,0.0,0.0,0.0,0.0,0.0,0.0,0.0,0.0,0.0,0.0,0.0,0.0,0.0,0.0,0.0,0.0,0.0,0.0,0.0,0.0,0.0,0.0,0.0,0.0,0.0,0.0,0.0,0.0,0.0,0.0,0.0,0.0,0.0,0.0,0.0,0.0,0.0,0.0,0.0,0.0,0.0,0.0,0.0,0.0,0.0,0.0,0.0,0.0,0.0,0.0,0.0,0.0,0.0,0.0,0.0,0.0,0.0,0.0,0.0,0.0,0.0,0.0,0.0,0.0,0.0,0.0,0.0,0.0,0.0,0.0,0.0,0.0,0.0,0.0,0.0,0.0,0.0,0.0,0.0,0.0,0.0,0.0,0.0,0.0,0.0,0.0,0.0,0.0,0.0,0.0,0.0,0.0,0.0,0.0,0.0,0.0,0.0,0.0,0.0,0.0,0.0,0.0,0.0,0.0,0.0,0.0,0.0,0.0,0.0,0.0,0.0,0.0,0.0,0.0,0.0,0.0,0.0,0.0,0.0,0.0,0.0,0.0,0.0,0.0,0.0,0.0,0.0,0.0,0.0,0.0,0.0,0.0,0.0,0.0,0.0,0.0,0.0,0.0,0.0,0.0,0.0,0.0,0.0,0.0,0.0,0.0,0.0,0.0,0.0,0.0,0.0,0.0,0.0,0.0,0.0,0.0,0.0,0.0,0.0,0.0,0.0,0.0,0.0,0.0,0.0,0.0,0.0,0.0,0.0,0.0,0.0,0.0,0.0,0.0,0.0,0.0,0.0,0.0,0.0,0.0,0.0,0.0,0.0,0.0,0.0,0.0,0.0,0.0,0.0,0.0,0.0,0.0,0.0,0.0,0.0,0.0,0.0,0.0,0.0,0.0,0.0,0.0,0.0,0.0,0.0,0.0,0.0,0.0,0.0,0.0,0.0,0.0,0.0,0.0,0.0,0.0,0.0,0.0,0.0,0.0,0.0,0.0,0.0,0.0,0.0,0.0,0.0,0.0,0.0,0.0,0.0,0.0,0.0,0.0,0.0,0.0,0.0,0.0,0.0,0.0,0.0,0.0,0.0,0.0,0.0,0.0,0.0,0.0,0.0,0.0,0.0,0.0,0.0,0.0,0.0,0.0,0.0,0.0,0.0,0.0,0.0,0.0,0.0,0.0,0.0,0.0,0.0,0.0,0.0,0.0,0.0,0.0,0.0,0.0,0.0,0.0,0.0,0.0,0.0,0.0,0.0,0.0,0.0,0.0,0.0,0.0,0.0,0.0,0.0,0.0,0.0,0.0,0.0,0.0,0.0,0.0,0.0,0.0,0.0,0.0,0.0,0.0,0.0,0.0,0.0,0.0,0.0,0.0,0.0,0.0,0.0,0.0,0.0,0.0,0.0,0.0,0.0,0.0,0.0,0.0,0.0,0.0,0.0,0.0,0.0,0.0,0.0,0.0,0.0,0.0,0.0,0.0,0.0,0.0,0.0,0.0,0.0,0.0,0.0,0.0,0.0,0.0,0.0,0.0,0.0,0.0,0.0,0.0,0.0,0.0,0.0,0.0,0.0,0.0,0.0,0.0,0.0,0.0,0.0,0.0,0.0,0.0,0.0,0.0,0.0,0.0,0.0,0.0,0.0,0.0,0.0,0.0,0.0,0.0,0.0,0.0,0.0,0.0,0.0,0.0,0.0,0.0,0.0,0.0,0.0,0.0,0.0,0.0,0.0,0.0,0.0,0.0,0.0,0.0,0.0,0.0,0.0,0.0,0.0,0.0,0.0,0.0,0.0,0.0,0.0,0.0,0.0,0.0,0.0,0.0,0.0,0.0,0.0,0.0,0.0,0.0,0.0,0.0,0.0,0.0,0.0,0.0,0.0,0.0,0.0,0.0,0.0,0.0,0.0,0.0,0.0,0.0,0.0,0.0,0.0,0.0,0.0,0.0,0.0,0.0,0.0,0.0,0.0,0.0,0.0,0.0,0.0,0.0,0.0,0.0,0.0,0.0,0.0,0.0,0.0,0.0,0.0,0.0,0.0,0.0,0.0,0.0,0.0,0.0,0.0,0.0,0.0,0.0,0.0,0.0,0.0,0.0,0.0,0.0,0.0,0.0,0.0,0.0,0.0,0.0,0.0,0.0,0.0,0.0,0.0,0.0,0.0,0.0,0.0,0.0,0.0,0.0,0.0,0.0,0.0,0.0,0.0,0.0,0.0,0.0,0.0,0.0,0.0,0.0,0.0,0.0,0.0,0.0,0.0,0.0,0.0,0.0,0.0,0.0,0.0,0.0,0.0,0.0,0.0,0.0,0.0,0.0,0.0,0.0,0.0,0.0,0.0,0.0,0.0,0.0,0.0,0.0,0.0,0.0,0.0,0.0,0.0,0.0,0.0,0.0,0.0,0.0,0.0,0.0,0.0,0.0,0.0,0.0,0.0,0.0,0.0,0.0,0.0,0.0,0.0,0.0,0.0,0.0,0.0,0.0,0.0,0.0,0.0,0.0,0.0,0.0,0.0,0.0,0.0,0.0,0.0,0.0,0.0,0.0,0.0,0.0,0.0,0.0,0.0,0.0,0.0,0.0,0.0,0.0,0.0,0.0,0.0,0.0,0.0,0.0,0.0,0.0,0.0,0.0,0.0,0.0,0.0,0.0,0.0,0.0,0.0,0.0,0.0,0.0,0.0,0.0,0.0,0.0,0.0,0.0,0.0,0.0,0.0,0.0,0.0,0.0,0.0,0.0,0.0,0.0,0.0,0.0,0.0,0.0,0.0,0.0,0.0,0.0,0.0,0.0,0.0,0.0,0.0,0.0,0.0,0.0,0.0,0.0,0.0,0.0,0.0,0.0,0.0,0.0,0.0,0.0,0.0,0.0,0.0,0.0,0.0,0.0,0.0,0.0,0.0,0.0,0.0,0.0,0.0,0.0,0.0,0.0,0.0,0.0,0.0,0.0,0.0,0.0,0.0,0.0,0.0,0.0,0.0,0.0,0.0,0.0,0.0,0.0,0.0,0.0,0.0,0.0,0.0,0.0,0.0,0.0,0.0,0.0,0.0,0.0,0.0,0.0,0.0,0.0,0.0,0.0,0.0,0.0,0.0,0.0,0.0,0.0,0.0,0.0,0.0,0.0,0.0,0.0,0.0,0.0,0.0,0.0,0.0,0.0,0.0,0.0,0.0,0.0,0.0,0.0,0.0,0.0,0.0,0.0,0.0,0.0,0.0,0.0,0.0,0.0,0.0,0.0,0.0,0.0,0.0,0.0,0.0,0.0,0.0,0.0,0.0,0.0,0.0,0.0,0.0,0.0,0.0,0.0,0.0,0.0,0.0,0.0,0.0,0.0,0.0,0.0,0.0,0.0,0.0,0.0,0.0,0.0,0.0,0.0,0.0,0.0,0.0,0.0,0.0,0.0,0.0,0.0,0.0,0.0,0.0,0.0,0.0,0.0,0.0,0.0,0.0,0.0,0.0,0.0,0.0,0.0,0.0,0.0,0.0,0.0,0.0,0.0,0.0,0.0,0.0,0.0,0.0,0.0,0.0,0.0,0.0,0.0,0.0,0.0,0.0,0.0,0.0,0.0,0.0,0.0,0.0,0.0,0.0,0.0,0.0,0.0,0.0,0.0,0.0,0.0,0.0,0.0,0.0,0.0,0.0,0.0,0.0,0.0,0.0,0.0,0.0,0.0,0.0,0.0,0.0,0.0,0.0,0.0,0.0,0.0,0.0,0.0,0.0,0.0,0.0,0.0,0.0,0.0,0.0,0.0,0.0,0.0,0.0,0.0,0.0,0.0,0.0,0.0,0.0,0.0,0.0,0.0,0.0,0.0,0.0,0.0,0.0,0.0,0.0,0.0,0.0,0.0,0.0,0.0,0.0,0.0,0.0,0.0,0.0,0.0,0.0,0.0,0.0,0.0,0.0,0.0,0.0,0.0,0.0,0.0,0.0,0.0,0.0,0.0,0.0,0.0,0.0,0.0,0.0,0.0,0.0,0.0,0.0,0.0,0.0,0.0,0.0,0.0,0.0,0.0,0.0,0.0,0.0,0.0,0.0,0.0,0.0,0.0,0.0,0.0,0.0,0.0,0.0,0.0,0.0,0.0,0.0,0.0,0.0,0.0,0.0,0.0,0.0,0.0,0.0,0.0,0.0,0.0,0.0,0.0,0.0,0.0,0.0,0.0,0.0,0.0,0.0,0.0,0.0,0.0,0.0,0.0,0.0,0.0,0.0,2.8034,0.0,0.0,0.0,0.0,0.0,0.0,0.0,0.0,0.0,0.0,0.0,0.0,0.0,0.0,0.0,0.0,0.0,0.0,0.0,0.0,0.0,0.0,0.0,0.0,1.228,1.2424,1.2742,1.2772,0.0,0.0,0.0,0.0,0.0,0.0,0.0,1.1081,1.1354,1.2468,1.4396,1.643,1.9502,2.3475,2.262,2.0693,1.7935,0.0,0.0,0.0,0.0,0.0,0.0,0.0,0.0,0.0,0.0,0.0,0.0,0.0,0.0,0.0,0.0,0.0,0.0,0.0,0.0,0.0,0.0,0.0,0.0,0.0,0.0,0.0,0.0,0.0,0.0,0.0,0.0,0.0,0.0,0.0,0.0,0.0,0.0,0.0,0.0,0.0,0.0,0.0,0.0,0.0,0.0,0.0,0.0,0.0,0.0,0.0,0.0,0.0,0.0,0.0,0.0,0.0,0.0,0.0,0.0,0.0,0.0,0.0,0.0,0.0,0.0,0.0,0.0,0.0,0.0,0.0,3.0687,0.0,0.0,0.0,0.0,0.0,0.0,0.0,0.0,0.0,0.0,0.0,0.0,0.0,0.0,0.0,0.0,0.0,0.0,0.0,0.0,0.0,1.1605,1.2849,1.3095,1.3472,1.4231,1.4207,1.4147,1.4147,1.4028,0.0,0.0,0.0,0.0,1.2143,1.2863,1.4779,1.7999,2.1575,2.5873,3.0688,3.1433,2.8749,0.0,0.0,0.0,0.0,0.0,0.0,0.0,0.0,0.0,0.0,0.0,0.0,0.0,0.0,0.0,0.0,0.0,0.0,0.0,0.0,0.0,0.0,0.0,0.0,0.0,0.0,0.0,0.0,0.0,0.0,0.0,0.0,0.0,0.0,0.0,0.0,0.0,0.0,0.0,0.0,0.0,0.0,0.0,0.0,0.0,0.0,0.0,0.0,0.0,0.0,0.0,0.0,0.0,0.0,0.0,0.0,0.0,0.0,0.0,0.0,0.0,0.0,0.0,0.0,0.0,3.9092,3.9978,4.0666,4.2132,4.3748,4.5164,4.1384,3.926,3.8105,3.3798,0.0,0.0,0.0,0.0,0.0,0.0,0.0,0.0,0.0,0.0,0.0,0.0,0.0,0.0,0.0,0.0,0.0,0.0,0.0,1.2819,1.3579,1.419,1.5022,1.6211,1.583,1.5552,1.5552,1.4975,0.0,0.0,0.0,0.0,1.3549,1.493,1.7561,2.1535,2.9348,3.3843,3.5248,3.61,3.5755,3.4238,3.0592,0.0,0.0,0.0,0.0,0.0,0.0,0.0,0.0,0.0,0.0,0.0,0.0,0.0,0.0,0.0,0.0,0.0,0.0,0.0,0.0,0.0,0.0,0.0,0.0,0.0,0.0,0.0,0.0,0.0,0.0,0.0,0.0,0.0,0.0,0.0,0.0,0.0,0.0,0.0,0.0,0.0,0.0,0.0,3.0672,2.9249,0.0,0.0,0.0,0.0,0.0,0.0,0.0,0.0,0.0,0.0,0.0,0.0,0.0,3.7422,3.9439,4.1343,4.2891,4.4167,4.7108,4.8873,4.9561,5.1475,5.2845,5.3593,5.2995,0.0,4.2322,3.9421,0.0,0.0,0.0,0.0,0.0,0.0,0.0,0.0,0.0,0.0,0.0,0.0,0.0,0.0,0.0,0.0,0.0,0.0,0.0,0.0,0.0,1.7932,1.964,2.0655,2.1578,2.1272,1.9351,1.8322,0.0,0.0,1.4549,1.4363,1.4363,1.7761,2.2969,2.9995,3.5009,3.8187,3.9602,4.0329,4.0332,3.967,3.793,3.4112,2.8828,2.7375,0.0,0.0,0.0,0.0,0.0,0.0,0.0,0.0,0.0,0.0,0.0,0.0,0.0,0.0,0.0,0.0,0.0,0.0,0.0,0.0,0.0,0.0,0.0,0.0,0.0,0.0,0.0,0.0,0.0,0.0,0.0,0.0,0.0,0.0,0.0,0.0,0.0,0.0,0.0,2.9551,3.1764,3.13,3.0372,2.8876,0.0,0.0,0.0,0.0,0.0,0.0,0.0,0.0,0.0,3.9948,4.2282,4.4466,4.645,4.8424,5.0092,5.1462,5.3234,5.4406,5.5124,5.6765,5.7663,5.7932,5.7932,5.5538,5.1236,4.6411,4.2491,3.932,0.0,0.0,0.0,0.0,3.6957,3.6467,0.0,0.0,0.0,0.0,0.0,0.0,0.0,0.0,0.0,0.0,0.0,0.0,1.9014,2.2351,2.4774,2.5606,2.6777,2.6343,2.359,2.1783,1.9705,1.7145,1.6076,1.562,1.5807,2.1864,2.8819,3.6636,3.9591,4.1785,4.3218,4.3849,4.3794,4.319,4.305,3.9099,3.2484,3.1198,2.7989,0.0,0.0,0.0,0.0,0.0,0.0,0.0,0.0,0.0,0.0,0.0,0.0,0.0,0.0,0.0,0.0,0.0,0.0,0.0,0.0,0.0,0.0,0.0,0.0,0.0,0.0,0.0,0.0,0.0,0.0,0.0,0.0,0.0,0.0,0.0,0.0,0.0,0.0,3.2153,3.45,3.3828,3.4067,3.3125,0.0,0.0,0.0,0.0,0.0,0.0,3.8709,4.2013,4.4796,4.6749,4.9434,5.1588,5.321,5.473,5.6047,5.721,5.7633,5.8231,5.8892,5.9907,6.0266,6.0114,6.0114,5.9428,5.7905,5.2187,4.8237,4.5553,4.312,4.1654,4.1201,4.3579,4.3486,4.2798,0.0,0.0,0.0,0.0,0.0,0.0,0.0,0.0,0.0,0.0,0.0,2.1844,2.3161,2.6868,2.9579,3.0368,2.9438,2.8442,2.7568,2.4533,2.2062,2.0531,1.8595,1.7848,1.8493,2.7797,3.4427,3.8086,4.3054,4.5532,4.5641,4.6293,4.6266,4.5586,4.5086,4.207,3.7222,3.5307,3.2327,2.8422,0.0,0.0,0.0,0.0,0.0,0.0,0.0,0.0,0.0,0.0,0.0,0.0,0.0,0.0,0.0,0.0,0.0,0.0,0.0,0.0,0.0,0.0,0.0,0.0,0.0,0.0,0.0,0.0,0.0,0.0,0.0,0.0,0.0,0.0,0.0,0.0,0.0,0.0,0.0,3.7656,3.9936,0.0,0.0,0.0,0.0,3.9619,4.1194,4.287,4.4766,4.8596,5.1624,5.3653,5.6231,5.7965,5.871,5.88,5.9219,5.9904,5.9907,6.0296,6.0926,6.1044,6.0715,6.0114,6.0114,5.9697,5.88,5.5329,5.2312,4.971,4.7728,4.6142,4.5155,4.6574,4.7031,4.716,0.0,0.0,0.0,1.3949,1.4222,1.4417,1.4486,1.4887,1.532,1.573,1.9992,2.3476,2.4823,3.003,3.3608,3.3991,3.4505,3.3767,3.1307,2.731,2.4915,2.4631,2.1833,2.3106,2.9185,3.3888,3.83,4.2376,4.4535,4.5609,4.5609,4.6207,4.5974,4.5013,4.4832,4.32,4.0506,3.9024,3.6004,3.2069,3.0179,2.661,0.0,0.0,0.0,0.0,0.0,0.0,0.0,0.0,0.0,0.0,0.0,0.0,0.0,0.0,0.0,0.0,0.0,0.0,0.0,0.0,0.0,0.0,0.0,0.0,0.0,0.0,0.0,0.0,0.0,0.0,0.0,0.0,0.0,0.0,0.0,0.0,0.0,4.2581,4.4696,0.0,4.1216,4.2053,4.3389,4.4736,4.8027,5.0481,5.1588,5.461,5.6615,5.7334,5.8261,5.9069,5.9727,5.9727,6.0296,6.1373,6.1373,6.1732,6.2391,6.2391,6.2269,6.203,6.1553,6.1253,6.0864,5.883,5.6944,5.5184,5.4042,5.3294,5.2935,5.3414,5.3593,5.3743,0.0,0.0,0.0,1.4548,1.4996,1.5359,1.5408,1.6008,1.6971,1.844,2.2747,2.6621,2.9053,3.4248,3.7599,3.7671,3.8449,3.7687,3.4737,3.068,2.8083,2.7435,2.5557,2.8165,3.5971,3.8559,4.1595,4.5234,4.5961,4.6301,4.6326,4.6677,4.6451,4.5693,4.5518,4.4769,4.3501,4.2318,3.9411,3.556,3.5053,3.134,2.5916,0.0,0.0,0.0,0.0,0.0,0.0,0.0,0.0,0.0,0.0,0.0,0.0,0.0,0.0,0.0,0.0,0.0,0.0,0.0,0.0,0.0,0.0,0.0,0.0,0.0,0.0,0.0,0.0,0.0,0.0,0.0,0.0,0.0,0.0,0.0,4.5971,4.5963,4.8536,4.9254,4.657,4.8125,4.974,5.087,5.4012,5.6047,5.6496,5.8018,5.8986,5.925,5.9457,5.9782,6.0224,6.0822,6.1671,6.275,6.275,6.3079,6.3737,6.3527,6.3287,6.3078,6.2391,6.1972,6.1702,6.0805,5.9907,5.8982,5.7872,5.7573,5.7752,5.7513,5.7453,5.7483,0.0,0.0,1.4736,1.4747,1.5245,1.5727,1.5851,1.6396,1.8338,2.2661,2.6976,3.136,3.5873,3.9372,4.1394,4.1394,4.0849,3.9669,3.7766,3.4487,3.144,2.8882,0.0,0.0,3.8097,4.1647,4.4403,4.6376,4.7456,4.7958,4.7958,4.7958,4.7958,4.7908,4.7375,4.6848,4.6276,4.5167,4.2559,3.9045,3.8015,3.4887,3.0541,0.0,0.0,0.0,0.0,0.0,0.0,0.0,0.0,0.0,0.0,0.0,0.0,0.0,0.0,0.0,0.0,0.0,0.0,0.0,0.0,0.0,0.0,0.0,0.0,0.0,0.0,0.0,0.0,0.0,0.0,0.0,0.0,0.0,4.1474,4.7219,5.0338,4.7908,5.1558,5.3773,5.2486,5.4132,5.6051,5.7912,5.8689,5.905,5.9053,5.8694,5.8777,5.9439,6.0101,6.0448,6.0448,6.2145,6.3263,6.386,6.3918,6.4248,6.4815,6.4218,6.362,6.2963,6.2365,6.1737,6.1139,6.1196,6.1167,6.093,5.8955,5.8567,5.8988,5.836,5.8095,5.8032,1.45,1.5257,1.5912,1.6136,1.6717,1.7278,1.7566,1.8333,2.0092,2.3476,2.8057,3.219,3.5391,3.9105,4.1328,4.1328,4.0836,3.988,3.8428,3.472,3.26,3.2594,0.0,0.0,4.3149,4.546,4.7147,4.8115,4.8786,4.9138,4.9138,4.9138,4.8912,4.8567,4.8385,4.8008,4.7456,4.7129,4.5949,4.413,4.2684,3.9684,3.6079,0.0,0.0,0.0,0.0,0.0,0.0,0.0,0.0,0.0,0.0,0.0,0.0,0.0,0.0,0.0,0.0,0.0,0.0,0.0,0.0,0.0,0.0,0.0,0.0,0.0,0.0,0.0,0.0,0.0,0.0,0.0,0.0,4.7147,4.7702,5.0601,5.3084,5.4251,5.5538,5.6166,5.5777,5.6705,5.7215,5.7035,5.8027,5.8349,5.7623,5.793,5.8218,5.8386,5.8969,5.9276,5.9276,6.0104,6.0635,6.0836,6.215,6.2174,6.1122,6.2239,6.1942,6.0614,6.1749,6.2155,6.2072,6.3387,6.315,6.1839,6.0715,5.963,5.8638,5.8463,5.8405,5.8519,1.5517,1.6189,1.6873,1.7343,1.7878,1.8375,1.8706,1.9573,2.1675,2.5767,2.9327,3.3133,3.7457,4.018,4.1856,4.2306,4.1631,4.0486,3.8909,3.5798,3.5112,3.7563,0.0,4.4952,4.666,4.8446,4.9364,4.9464,4.9791,4.9816,4.959,4.959,4.9414,4.9145,4.9145,4.8937,4.8611,4.836,4.7908,4.7241,4.6061,4.3122,3.9525,3.9783,3.7731,3.463,3.3909,3.3104,3.2207,3.0938,0.0,0.0,0.0,0.0,0.0,0.0,0.0,0.0,0.0,0.0,0.0,0.0,0.0,0.0,0.0,0.0,0.0,0.0,0.0,0.0,0.0,0.0,0.0,0.0,4.6943,5.0445,5.1699,5.2917,5.451,5.6675,5.6565,5.6411,5.6699,5.7279,5.7398,5.6807,5.771,5.802,5.7362,5.7327,5.7407,5.7618,5.7938,5.8094,5.8094,5.9112,5.9742,6.0055,6.1099,6.1207,6.0447,6.1243,6.1002,6.0061,6.0818,6.1182,6.1246,6.2316,6.2128,0.0,0.0,0.0,0.0,0.0,5.9496,5.9533,1.6914,1.7328,1.7825,1.848,1.8824,1.9108,1.9402,2.0395,2.3081,2.8536,3.0744,3.425,4.0606,4.1882,4.2663,4.3614,4.2672,4.1233,3.9338,3.7868,3.8809,4.2787,4.4611,4.6522,4.8707,5.0198,5.0597,4.9843,5.0066,4.9915,4.9474,4.9694,4.9791,4.9791,4.9715,4.969,4.9665,4.9145,4.8894,4.8843,4.8234,4.5607,4.203,4.1745,4.0029,3.754,3.5989,3.4761,3.371,3.299,0.0,0.0,0.0,0.0,0.0,0.0,0.0,0.0,0.0,0.0,0.0,0.0,0.0,0.0,0.0,0.0,0.0,0.0,0.0,0.0,0.0,0.0,0.0,0.0,4.88,5.1387,5.396,5.4082,5.4558,5.6223,5.5686,5.5431,5.6096,5.6727,5.7016,5.6828,5.7491,5.7752,5.7468,0.0,0.0,0.0,0.0,5.6935,5.6987,5.8517,5.9645,6.0313,6.0432,6.0712,6.107,6.0603,6.0295,6.0067,5.9681,5.9501,5.9534,5.9731,5.9671,5.9501,6.0382,6.0146,5.9423,6.0385,6.0437,6.0253,1.8084,1.8832,1.9515,1.9683,1.9734,1.9776,1.9796,2.1292,2.4154,2.8974,3.2019,3.5693,4.0758,4.2233,4.2939,4.314,4.2122,4.1002,3.9965,4.2102,4.3965,4.5221,4.7897,4.904,4.8391,4.8728,4.8069,4.6389,4.7916,4.8646,4.8584,5.0198,5.0979,5.0946,5.0469,5.0268,5.0218,4.9665,4.9439,4.9389,4.8868,4.7927,4.6874,4.6793,4.6484,4.5976,4.5217,4.4482,4.3517,4.1559,3.9289,3.7061,3.5967,0.0,0.0,0.0,0.0,0.0,0.0,0.0,0.0,0.0,0.0,0.0,0.0,0.0,0.0,0.0,0.0,0.0,0.0,0.0,0.0,4.5788,4.9244,5.2447,5.4699,5.28,5.2046,5.4414,5.4884,5.5309,5.5976,5.7024,5.7082,5.5747,5.6665,5.6667,5.5278,5.5023,5.4975,5.5101,5.5497,5.5954,5.6349,5.7106,5.7798,5.8434,0.0,0.0,5.7907,5.8797,5.8429,5.7123,5.8464,5.9046,5.915,6.0626,6.009,5.8316,5.7584,5.7398,5.7583,5.7337,5.7496,5.7991,1.9796,1.9912,2.0143,2.0528,2.0602,2.0578,2.0476,2.1848,2.4249,2.7958,3.1015,3.4317,3.8207,3.9554,4.0136,4.0063,4.0064,4.0217,4.0675,4.3749,4.5882,4.6687,4.9606,5.045,4.8714,4.9949,4.9983,4.8727,4.9741,5.0064,4.9829,5.1087,5.1699,5.1674,5.1398,5.1272,5.1222,5.067,5.0268,4.9992,4.9715,4.9324,4.8851,4.8261,4.8088,4.8105,4.7846,4.7188,4.6264,4.5156,4.3453,4.1591,3.997,3.8072,3.5676,0.0,0.0,0.0,0.0,0.0,0.0,0.0,0.0,0.0,0.0,0.0,0.0,0.0,0.0,3.9203,4.0727,0.0,4.6169,4.8044,5.0197,5.2136,5.3459,5.2485,5.2192,5.3726,5.3917,5.409,5.4445,5.5498,5.5872,5.5006,5.5486,5.5599,5.5035,5.5239,5.5516,5.5792,5.6344,5.6771,5.7047,5.701,5.7136,5.7449,5.7776,5.7612,5.7022,5.7659,5.7448,5.6657,5.7568,5.7785,5.7635,5.8507,5.8209,5.7049,5.619,5.5855,5.5942,5.6566,5.6765,5.6994,2.1393,2.09,2.0657,2.1285,2.1421,2.1334,2.1054,2.213,2.3985,2.6745,2.9398,3.2171,3.5168,3.6236,3.6626,3.6352,3.7976,3.9699,4.1358,4.4435,4.6853,4.8329,5.0157,5.0368,4.8733,5.0335,5.0979,5.0541,5.0813,5.0944,5.0895,5.1606,5.195,5.195,5.1825,5.1774,5.1749,5.1197,5.0695,5.0235,5.0235,4.9992,4.949,4.8586,4.8234,4.8234,4.8109,4.7255,4.62,4.6527,4.5673,4.4245,4.3012,4.2892,4.1858,3.521,3.5747,0.0,0.0,0.0,0.0,0.0,0.0,0.0,0.0,0.0,4.009,4.3142,4.4121,4.4709,4.5697,4.6629,4.791,5.0005,5.0888,5.1498,5.2176,5.2619,5.3105,5.3713,5.3343,5.3096,5.3231,5.416,5.4773,5.4773,5.4974,5.5239,5.5691,5.6244,5.6746,5.7161,5.765,5.7901,5.7901,5.7424,5.7161,5.7161,5.6646,5.6559,5.6985,5.6885,5.6835,5.6835,5.6835,5.6584,5.6194,5.6093,5.6118,5.6168,5.5591,5.5189,5.5076,5.6547,5.6806,5.6715,2.205,2.211,2.2076,2.2151,2.2185,2.1895,2.1118,2.213,2.3897,2.6426,2.8486,3.0732,3.3472,3.4299,3.4379,3.3694,3.7298,4.0309,4.2,4.5402,4.8597,5.1453,4.8991,4.7472,4.7254,4.5828,4.5068,4.5003,4.6259,4.7697,4.9395,5.0758,5.1406,5.1348,5.0845,5.0594,5.0569,5.0017,4.9741,4.969,4.969,4.964,4.959,4.9464,4.9414,4.9339,4.8894,4.7361,4.5799,4.7255,4.6024,4.4291,4.6668,4.5716,4.3225,4.0671,0.0,3.4371,3.0541,3.2327,3.5856,3.8246,4.1096,4.3911,0.0,0.0,4.5922,4.6797,4.6545,4.634,4.7075,4.7533,4.8044,4.8888,5.0298,5.1649,5.2644,5.2845,5.33,5.4365,5.3973,5.3808,5.4371,5.4974,5.529,5.529,5.6194,5.6759,5.6809,5.7399,5.775,5.7801,5.7851,5.7901,5.7901,5.7826,5.7801,5.7801,5.7186,5.6935,5.6985,5.652,5.6294,5.6294,5.6294,5.6269,5.6168,5.5691,5.5767,5.6168,5.5591,5.5641,5.6054,5.6272,5.6561,5.6864,2.2252,2.2313,2.2313,2.2313,2.2313,2.1996,2.1118,2.1804,2.2804,2.3932,2.5586,2.715,2.8534,2.8688,2.8777,2.8932,3.3474,3.7716,4.1001,4.4459,4.7213,4.905,4.7776,4.6478,4.5351,4.5627,4.5797,4.5797,4.7222,4.831,4.9153,5.0919,5.1749,5.1749,5.1498,5.1398,5.1373,5.082,5.0393,5.0067,5.0067,4.9891,4.959,4.959,4.959,4.9389,4.7883,4.6753,0.0,0.0,4.6225,4.5636,4.7851,4.7173,4.5013,4.2061,4.0931,0.0,4.2166,4.1403,4.1182,0.0,4.7009,4.8221,4.8992,4.8986,4.9223,5.0735,5.0559,5.0028,4.9722,4.9773,5.0067,0.0,5.1574,5.2503,5.3281,5.3658,5.416,5.4974,5.4838,5.4787,5.5049,5.5842,5.6344,5.6344,5.7072,5.7524,5.7524,5.7775,5.7901,5.7901,5.7901,5.7901,5.7901,5.7549,5.7399,5.7361,5.6784,5.6684,5.6985,5.6759,5.6659,5.6634,5.6344,5.6219,5.6194,5.5968,5.6018,5.6194,5.5968,5.6194,5.6609,5.6319,5.6369,5.647,2.2313,2.2313,2.2313,2.2313,2.2313,2.1996,2.1118,2.1422,2.1793,2.2044,2.3076,2.3992,2.4462,2.3992,2.4101,2.5295,3.0035,3.4841,3.9164,4.2446,4.5063,4.6925,4.5851,4.4822,4.3945,4.4747,4.5425,4.5823,4.7204,4.8169,4.8759,5.0583,5.1423,5.1423,5.1423,5.1423,5.1398,5.0996,5.0569,5.0193,5.0193,4.9941,4.959,4.959,4.9012,4.8008,4.6426,4.5447,0.0,0.0,4.4166,4.4116,4.5924,4.5959,4.4761,4.1752,4.1761,4.361,4.7571,4.6607,4.5485,4.9893,5.1382,5.1535,5.0777,5.0922,5.1487,5.2517,5.2646,5.2395,5.1656,5.1498,5.1724,5.2427,5.2879,5.3381,5.4059,5.4572,5.5024,5.5541,5.5616,5.5666,5.5817,5.6533,5.706,5.7236,5.765,5.7901,5.7901,5.7901,5.7901,5.7901,5.7901,5.7826,5.765,5.7211,5.6935,5.6759,5.6394,5.642,5.6759,5.6759,5.6759,5.6759,5.6394,5.6219,5.6219,5.6219,5.6294,5.6408,5.6408,5.6734,5.7186,5.6821,5.657,5.6369,2.2313,2.2313,2.2313,2.2313,2.2313,2.1996,2.1118,2.1023,2.1215,2.1673,2.1774,2.2054,2.2691,2.1672,2.1784,2.396,2.8159,3.2438,3.6543,3.9295,4.2615,4.6835,4.2947,4.1592,4.3483,4.1668,4.1409,4.2936,4.4184,4.5851,4.7756,4.9084,4.9665,4.9665,4.9665,4.9665,4.9665,4.9665,4.964,4.9615,4.9615,4.9615,4.959,4.959,4.7581,4.474,4.4665,0.0,0.0,0.0,3.8818,3.7839,4.0074,4.1078,0.0,4.01,3.8592,3.7949,4.0731,4.3351,4.6314,5.0686,5.305,5.3892,5.2287,5.2728,5.2929,5.0887,5.1364,5.2118,5.2076,5.2076,5.2427,5.3482,5.3658,5.4059,5.5189,5.534,5.5566,5.6118,5.6194,5.6358,0.0,5.6985,5.7236,5.7826,5.7901,5.7901,5.7901,5.7901,5.7901,5.7901,5.7901,5.7625,5.7035,5.701,5.6734,5.6244,5.6219,5.6219,5.6244,5.6244,5.6244,5.6244,5.6219,5.6219,5.6219,5.6219,5.652,5.6985,5.6985,5.7336,5.7876,5.7851,5.7499,5.6885,2.2313,2.2313,2.2313,2.2313,2.2313,2.2116,2.1483,2.1399,2.1351,2.1258,2.0972,0.0,0.0,0.0,0.0,0.0,0.0,2.9705,3.4549,3.6876,3.9597,4.2989,4.1751,4.1285,4.1937,4.1009,4.0735,4.1276,4.2381,4.3248,4.3934,4.5302,4.6589,4.7674,4.6489,4.6622,4.7674,4.6455,4.5952,4.6053,4.7278,4.774,4.7774,4.7893,4.6351,4.3589,0.0,0.0,0.0,0.0,0.0,0.0,3.9145,3.8818,3.7382,3.7057,3.8629,4.1239,4.4691,4.7054,4.9358,5.2761,5.3405,5.3111,5.27,5.2585,5.2495,5.2127,5.1465,5.1096,5.1498,5.1548,5.18,5.2528,5.3557,5.4572,5.529,5.5691,5.6018,5.6194,5.6483,0.0,0.0,0.0,0.0,5.8403,5.8453,5.8453,5.8453,5.7688,5.7286,5.7286,5.6972,5.6671,5.6458,5.6458,5.6394,5.6219,5.6219,5.6219,5.6219,5.6219,5.6219,5.6219,5.6219,5.6219,5.6219,5.6219,5.6319,5.6458,5.6458,5.6595,5.6771,5.6771,5.6646,5.6483,2.2313,2.2313,2.2313,2.2313,2.2313,0.0,0.0,0.0,0.0,0.0,0.0,0.0,0.0,0.0,0.0,0.0,0.0,0.0,3.0915,3.3054,3.5326,3.788,3.7682,3.7672,3.7985,3.7383,3.7305,3.7754,3.9513,4.064,4.1123,4.3143,4.471,4.5794,4.4607,4.4744,4.5761,4.4573,4.3926,4.3714,4.4673,4.4856,4.453,4.4274,4.2434,0.0,0.0,0.0,0.0,0.0,0.0,3.3866,3.6266,3.6458,3.5887,3.6318,3.9029,4.2888,4.7568,4.9252,5.0462,5.371,5.3309,5.2167,5.2312,5.2226,5.2201,5.2519,5.1297,5.0293,5.087,5.0677,5.0728,5.1649,5.303,5.431,5.5265,5.5691,5.6068,5.6433,5.6784,5.7311,0.0,0.0,0.0,5.8666,5.8529,5.8328,5.8089,5.7211,5.6709,5.6709,5.6394,5.6219,5.6219,5.6219,5.6219,5.6219,5.6219,5.6219,5.6219,5.6219,5.6219,5.6219,5.6219,5.6219,5.6219,5.6219,5.6219,5.6219,5.6219,5.6219,5.6219,5.6219,5.6219,5.6269,2.2313,2.2313,2.2313,0.0,0.0,0.0,0.0,0.0,0.0,0.0,0.0,0.0,0.0,0.0,0.0,0.0,0.0,0.0,2.5949,2.8136,3.0215,3.1979,3.1368,3.1407,3.2252,3.1447,3.1623,3.288,3.579,3.7846,3.9096,4.2075,4.3464,4.3543,4.3464,4.3498,4.3543,4.3509,4.3018,4.2196,4.1783,4.1082,4.0211,3.9153,0.0,0.0,0.0,0.0,0.0,0.0,2.8623,3.0532,3.2304,3.4641,3.6921,3.8123,4.0026,4.3047,4.8912,4.9771,4.988,5.3591,5.2921,5.1356,5.1381,5.18,5.2151,5.2,5.0695,4.9665,0.0,0.0,4.9321,5.0896,5.2226,5.3607,5.5214,5.544,5.5867,0.0,0.0,0.0,0.0,0.0,0.0,5.8591,0.0,5.765,5.7085,5.652,5.6219,5.6219,5.6219,5.6219,5.6219,5.6219,5.6219,5.6219,5.6219,5.6219,5.6219,5.6219,5.6219,5.6219,5.6219,5.6219,5.6219,5.6219,5.6219,5.6219,5.6219,5.6219,5.6219,5.6219,5.6219,5.6219,0.0,0.0,0.0,0.0,0.0,0.0,0.0,0.0,0.0,0.0,0.0,0.0,0.0,0.0,0.0,0.0,0.0,0.0,2.3825,2.6573,2.8723,2.9978,3.1583,3.2762,3.3385,3.2868,3.2966,3.3688,3.3364,3.3542,3.4256,3.4267,3.4986,3.6232,3.4886,3.5016,3.6262,3.5665,3.5108,3.4721,3.6777,3.721,3.662,3.6431,3.4728,0.0,0.0,0.0,2.7185,2.772,3.1429,3.6567,4.0714,4.1945,4.2225,4.43,4.6464,4.8508,5.0048,5.1788,5.3124,5.3307,5.2616,5.2,5.2427,5.2929,5.2703,5.067,4.9565,4.8259,4.5924,4.728,0.0,4.9371,5.2427,0.0,5.5892,5.6369,0.0,5.696,0.0,5.8215,5.8127,5.8478,0.0,0.0,5.7725,5.7826,5.7675,5.6746,5.6219,5.6219,5.6219,5.6219,5.6219,5.6219,5.6219,5.6219,5.6219,5.6219,5.6219,5.6219,5.6219,5.6219,5.6219,5.6219,5.6219,5.6219,5.6219,5.6219,5.6219,5.6219,5.6219,5.6219,5.6219,5.6219,0.0,0.0,0.0,0.0,0.0,0.0,0.0,0.0,0.0,0.0,0.0,0.0,0.0,0.0,0.0,0.0,0.0,0.0,0.0,2.3773,2.5253,2.5841,2.7042,2.7985,2.8653,2.8097,2.8425,2.9745,2.9183,2.933,3.0078,3.001,3.0326,3.0963,3.05,3.0885,3.1833,3.1806,3.1401,0.0,0.0,3.2438,3.1808,3.1628,3.0588,2.9151,2.7903,2.8926,3.1287,3.3973,3.7817,4.1826,4.3973,4.4886,4.5519,4.7391,4.8973,5.0411,5.1916,5.3428,5.438,5.3473,5.303,5.2578,5.1674,5.1699,5.1046,4.8033,4.6577,4.525,4.3112,4.5246,4.7512,0.0,0.0,0.0,5.6093,5.6659,5.7186,0.0,5.8089,0.0,5.8278,5.8328,5.8102,0.0,5.7474,5.7424,5.7173,5.657,5.6219,5.6219,5.6219,5.6219,5.6219,5.6219,5.6219,5.6219,5.6219,5.6219,5.6219,5.6219,5.6219,5.6219,0.0,5.6219,5.6219,5.6219,5.6219,5.6219,5.6219,5.6219,5.6219,5.6219,5.6219,5.6219,0.0,0.0,0.0,0.0,0.0,0.0,0.0,0.0,0.0,2.0857,2.0496,2.0325,0.0,0.0,0.0,0.0,0.0,0.0,0.0,0.0,2.1306,2.1397,2.1208,2.1458,2.2227,2.1548,2.2194,2.4263,2.4749,2.5487,2.6514,2.739,2.7474,2.6843,2.803,2.8544,2.8594,2.9561,2.9505,2.8717,2.8393,2.7778,2.7003,0.0,0.0,0.0,2.5937,3.0105,3.6361,4.1714,4.4915,4.6557,4.5858,4.6726,4.8218,4.9425,4.996,5.077,5.3692,5.4496,5.4346,5.3733,5.3658,5.298,5.0218,4.959,4.856,4.4916,4.3037,4.1808,4.0926,4.3237,4.5673,4.6898,0.0,5.4813,5.6143,5.6759,5.7512,5.8566,5.8303,5.8177,5.8579,5.8102,5.775,5.7675,5.7186,5.6709,5.6344,5.6244,5.6219,5.6219,5.6219,5.6219,5.6219,5.6219,5.6219,5.6219,5.6219,5.6219,5.6219,5.6219,5.6219,5.6219,5.6219,5.6244,5.6319,5.6244,5.6244,5.6319,5.6244,5.6219,5.6219,5.6219,5.6219,5.6219,0.0,0.0,0.0,0.0,0.0,0.0,0.0,0.0,0.0,0.0,2.1482,1.9858,0.0,0.0,0.0,0.0,0.0,0.0,0.0,0.0,0.0,0.0,2.1624,2.2335,2.2925,0.0,0.0,2.4051,2.3243,2.3161,2.3776,2.3075,2.2681,2.2568,2.2805,2.2905,2.3021,2.4529,2.4816,2.4335,2.5608,2.5785,2.5292,0.0,0.0,0.0,2.7677,3.1688,3.6857,4.1477,4.6232,5.0889,5.4715,5.4653,5.344,5.4649,5.4047,5.3105,5.3708,5.3858,5.3733,5.3206,5.3381,5.298,5.0218,4.959,4.8134,4.2933,4.1654,4.0725,3.8341,4.1304,4.4769,4.6772,5.0511,5.4049,5.6508,5.7374,5.8001,0.0,5.8591,5.8428,5.8077,5.7487,0.0,0.0,5.642,5.6483,5.6835,5.6433,5.6219,5.6219,5.6219,5.6219,5.6219,5.6219,5.6219,5.6219,5.6219,5.6219,5.6219,5.6219,5.6219,5.6219,5.6219,0.0,5.6809,5.6358,5.6433,5.6809,5.6358,5.6219,5.6219,5.6219,5.6219,5.6219,0.0,0.0,0.0,0.0,0.0,0.0,0.0,2.2735,2.2904,2.5575,2.3793,2.2083,2.1512,1.9971,1.8875,0.0,0.0,0.0,0.0,0.0,0.0,0.0,0.0,0.0,0.0,0.0,0.0,0.0,0.0,2.1076,2.1271,2.0688,2.0205,1.9865,2.0538,2.0826,2.0912,2.2448,2.2955,2.2792,2.386,2.434,0.0,0.0,0.0,0.0,0.0,3.293,3.816,3.976,4.4739,5.0907,5.4743,5.5069,5.4151,5.4772,5.4581,5.421,5.4511,5.4787,5.4813,5.3984,5.3959,5.298,4.8485,4.723,4.5317,3.9496,3.8266,3.7789,3.6207,3.9521,4.3034,4.4694,4.9439,5.3547,5.5491,5.7248,5.8529,5.9056,5.888,5.8504,5.7951,5.7336,5.6759,5.6244,5.6219,5.6319,5.6559,5.6344,5.6219,5.6219,5.6219,5.6219,5.6219,5.6219,5.6219,5.6219,5.6219,5.6219,5.6219,5.6219,5.6219,5.6219,5.6219,0.0,5.6533,5.6319,5.6369,5.6533,5.6319,5.6219,5.6244,5.6483,5.6609,5.6634,0.0,0.0,0.0,0.0,0.0,0.0,2.4881,2.3995,2.4198,2.7554,2.6448,2.4875,2.3717,2.1057,1.8942,0.0,0.0,0.0,0.0,0.0,0.0,0.0,0.0,0.0,0.0,0.0,0.0,0.0,0.0,0.0,0.0,0.0,0.0,0.0,1.9662,2.0107,2.0197,2.1549,2.2132,0.0,0.0,2.3669,0.0,0.0,0.0,0.0,0.0,3.3249,3.7813,3.7748,4.1831,4.7424,5.0651,5.2155,5.2777,5.3113,5.3582,5.4245,5.5024,5.5616,5.5792,5.4848,5.4597,5.3014,4.6909,4.4945,4.2682,3.6586,3.5232,3.5104,3.4904,3.7915,4.1026,4.2861,4.7757,5.2076,5.4295,5.6545,5.8328,5.9232,5.8855,0.0,5.7775,5.7161,0.0,5.6244,5.6219,5.6219,5.6219,5.6219,5.6219,5.6219,5.6219,5.6219,5.6219,5.6219,5.6219,5.6219,5.6219,5.6219,5.6219,5.6219,5.6219,5.6219,5.6219,0.0,0.0,5.6394,5.6394,5.6394,5.6394,5.6394,5.6408,5.6835,5.7085,5.7236,0.0,0.0,0.0,0.0,0.0,0.0,2.4961,2.5487,2.6918,3.0458,2.8799,2.6976,2.5982,2.263,1.9413,0.0,0.0,0.0,0.0,0.0,0.0,0.0,0.0,0.0,0.0,0.0,0.0,0.0,0.0,0.0,0.0,0.0,0.0,0.0,0.0,0.0,1.9907,2.1064,0.0,0.0,0.0,0.0,0.0,0.0,0.0,0.0,0.0,3.1744,3.3153,3.6228,3.7731,3.9171,4.3941,4.752,5.0161,5.1213,5.19,5.2678,5.427,5.5074,5.5315,5.4748,5.4597,5.3014,4.6909,4.4644,4.2158,3.6033,3.4377,3.4327,3.528,3.6585,3.8919,4.3062,4.5095,4.8134,5.3818,5.525,5.647,5.8554,0.0,0.0,5.7136,5.6584,5.6269,5.6219,5.6219,5.6219,5.6219,5.6219,5.6219,5.6219,5.6219,5.6219,5.6219,5.6219,5.6219,5.6219,5.6219,5.6219,5.6219,5.6219,5.6219,5.6219,5.6219,0.0,0.0,5.6935,5.6935,5.6935,5.6935,5.6935,5.6935,5.6985,5.7336,5.7826,0.0,0.0,0.0,0.0,0.0,0.0,2.6233,2.5613,2.6447,3.1217,2.9803,2.7881,2.653,2.3814,2.074,1.7348,0.0,0.0,0.0,0.0,0.0,0.0,0.0,0.0,0.0,0.0,0.0,0.0,0.0,0.0,0.0,0.0,0.0,0.0,0.0,0.0,0.0,0.0,0.0,0.0,0.0,0.0,0.0,0.0,0.0,0.0,0.0,0.0,3.3384,3.3266,3.5002,3.7386,3.8341,4.1378,4.5342,4.9163,5.0896,5.2051,5.4069,5.525,5.5666,5.4823,5.3617,5.1205,4.5723,4.2836,3.9973,3.5203,3.3796,3.3746,3.4828,3.5656,3.7287,4.0777,4.3087,4.5673,4.9113,5.1523,5.3733,5.5968,5.6319,0.0,0.0,0.0,5.657,5.6244,5.6219,5.6219,5.6219,5.6219,5.6219,5.6219,5.6219,5.6219,5.6219,5.6219,5.6219,5.6219,5.6219,5.6219,5.6219,5.6219,5.6219,5.6219,5.6219,0.0,0.0,5.6985,5.7211,5.7524,5.7136,5.7211,5.7549,5.7549,5.7901,5.8428,0.0,0.0,0.0,0.0,0.0,2.2596,2.6504,2.5732,2.6381,3.1107,2.9929,2.8279,2.7311,2.433,2.1368,1.8844,1.7325,0.0,0.0,0.0,0.0,0.0,0.0,0.0,0.0,0.0,2.0075,2.0075,2.0804,2.1094,0.0,0.0,0.0,0.0,0.0,0.0,0.0,0.0,0.0,0.0,0.0,0.0,0.0,0.0,0.0,0.0,0.0,0.0,0.0,0.0,0.0,3.5579,3.4751,3.6836,4.065,4.605,4.8887,5.077,5.3014,5.4762,5.5742,5.4848,5.2939,4.9967,4.4945,4.1681,3.8542,3.45,3.3366,3.3442,3.4502,3.5132,3.6384,3.9019,4.1354,4.3689,4.617,4.8711,5.1172,5.3592,0.0,5.5265,5.6771,5.6997,5.6759,5.6244,5.6219,5.6219,5.6219,5.6219,5.6219,5.6219,5.6219,5.6219,5.6219,5.6219,5.6219,5.6219,5.6369,5.6433,5.6433,5.662,5.6721,5.6721,5.6721,0.0,0.0,5.7487,5.7675,5.7851,5.7449,5.7549,5.7901,5.7901,5.8353,5.9006,0.0,0.0,0.0,0.0,0.0,0.0,2.5081,2.6088,2.7541,3.0279,2.9151,2.8304,2.8831,2.3995,2.0918,2.1407,1.843,0.0,0.0,0.0,0.0,0.0,0.0,0.0,0.0,0.0,2.0691,2.0691,2.1769,2.202,2.1507,2.2031,2.2382,0.0,0.0,0.0,0.0,0.0,0.0,0.0,0.0,0.0,0.0,0.0,0.0,0.0,0.0,0.0,0.0,0.0,0.0,0.0,0.0,3.4678,3.656,4.158,4.5372,4.8435,5.0728,5.3341,5.5265,5.4748,5.2939,4.9967,4.4945,4.1681,3.8442,3.4019,3.309,3.3442,3.4502,3.5132,3.6259,3.8542,3.9823,4.2055,4.6471,4.7575,4.8987,5.18,5.2628,5.3381,5.4522,5.6068,5.6759,5.6244,5.6219,0.0,5.6219,5.6219,5.6219,5.6219,5.6219,5.6219,5.6219,5.6219,5.6219,5.6219,5.6734,5.6985,5.701,5.7625,5.7876,5.7876,0.0,0.0,0.0,5.8666,5.8378,5.7901,5.7901,5.7901,5.7901,5.7901,5.8579,5.9483,0.0,0.0,0.0,0.0,0.0,0.0,2.3527,2.3714,2.4659,2.7429,2.6666,2.5921,2.6096,2.2864,2.0767,2.0943,1.8593,0.0,0.0,0.0,0.0,0.0,0.0,0.0,0.0,0.0,2.1608,2.2332,2.4094,2.5101,2.5326,2.5215,2.5198,2.5204,2.3929,0.0,0.0,0.0,0.0,0.0,0.0,0.0,0.0,0.0,0.0,0.0,0.0,0.0,0.0,0.0,0.0,0.0,0.0,0.0,0.0,3.7187,4.1277,4.5598,4.7832,4.964,5.0577,4.9264,4.7255,4.4723,4.1255,3.8567,3.6108,3.3617,3.309,3.3442,3.4502,3.4853,3.6183,3.9922,4.0826,4.2055,4.4966,4.7531,4.9665,5.1348,5.4712,5.6872,0.0,0.0,5.6935,5.6759,5.642,5.6219,5.6219,5.6219,5.6219,5.6219,5.6219,5.6219,5.6219,5.6533,5.6734,5.6734,5.7349,5.7625,5.7625,5.7801,5.7901,0.0,0.0,0.0,0.0,5.8691,5.883,5.8956,5.8604,5.8453,5.8453,5.8453,5.8679,5.8956,0.0,0.0,0.0,0.0,0.0,0.0,0.0,2.2524,2.3075,2.5276,2.4397,2.3863,2.4716,2.1594,1.9862,2.0918,1.8969,0.0,0.0,0.0,0.0,0.0,0.0,0.0,2.0666,2.1231,2.2347,2.4039,2.5765,2.7082,2.798,2.7989,2.7704,2.7173,2.5987,2.5355,0.0,0.0,0.0,0.0,0.0,0.0,3.154,0.0,0.0,0.0,0.0,0.0,0.0,0.0,0.0,0.0,0.0,0.0,0.0,0.0,3.7287,4.1378,4.464,4.6527,4.728,4.625,4.4166,4.1756,3.9421,3.6985,3.4803,3.3391,3.309,3.3366,3.4248,3.4728,3.5983,3.8969,3.9998,4.1378,4.4188,4.6778,4.9314,5.19,5.5491,0.0,0.0,5.7499,5.7537,5.7336,5.6809,5.6483,5.6483,5.6483,5.6483,5.6483,5.6319,5.6319,5.652,5.6835,5.7111,5.7336,5.7951,5.8202,5.8227,5.8403,5.8504,0.0,0.0,0.0,0.0,5.9106,5.9207,5.9433,5.893,5.8691,5.8691,5.8691,5.8855,5.9006,0.0,0.0,0.0,0.0,0.0,0.0,0.0,2.2375,2.2719,2.3791,2.2539,2.2268,2.4293,2.0327,1.8542,2.1105,0.0,0.0,0.0,0.0,0.0,0.0,0.0,0.0,2.0717,2.1356,2.3045,2.5828,2.7126,2.8539,3.005,3.0584,3.0074,2.8755,2.8596,2.8199,0.0,0.0,0.0,0.0,0.0,3.0342,0.0,0.0,0.0,0.0,0.0,0.0,0.0,0.0,0.0,0.0,0.0,0.0,0.0,0.0,0.0,0.0,0.0,4.3617,4.4869,4.4794,4.2808,4.0474,3.8869,3.6483,0.0,3.3266,3.3065,3.3291,3.3897,3.4803,3.5732,3.6607,3.8039,4.0426,4.4288,4.6045,4.8736,0.0,5.5491,0.0,5.6445,5.7826,5.8504,5.8001,5.7387,5.706,5.706,5.706,5.706,5.706,5.6559,5.657,5.706,5.7085,5.7387,5.7951,5.8504,5.878,5.8742,5.9282,5.9483,0.0,0.0,0.0,0.0,5.9709,5.9483,5.9433,5.8956,5.8716,5.8691,5.8716,5.9056,5.9433,0.0,0.0,0.0,0.0,0.0,0.0,0.0,0.0,0.0,0.0,2.2405,2.1628,2.1732,1.9889,1.8882,0.0,0.0,0.0,0.0,0.0,0.0,0.0,0.0,0.0,2.1281,2.2673,2.4975,2.8118,3.0894,3.3283,3.5236,3.512,3.4097,3.2228,3.0699,2.9101,0.0,0.0,0.0,0.0,2.9398,3.0043,0.0,0.0,0.0,0.0,3.2254,3.2256,0.0,0.0,0.0,0.0,0.0,0.0,0.0,0.0,3.2265,3.3423,3.5479,0.0,3.8944,3.8065,3.7338,3.6459,0.0,3.4248,3.3771,3.2641,3.2788,3.3495,3.4879,3.4981,3.6058,3.9571,4.0474,4.2231,4.6527,5.067,0.0,5.775,5.8478,5.873,5.873,5.873,5.8654,5.8529,5.8001,5.77,5.77,5.77,5.77,5.77,5.7575,5.7575,5.77,5.8102,5.8365,5.8529,5.9056,5.9307,5.9307,5.9433,5.9483,0.0,0.0,0.0,5.9684,5.9533,5.9483,5.9483,5.9357,5.9081,5.8742,5.9156,5.9131,5.8905,0.0,0.0,0.0,0.0,0.0,0.0,0.0,0.0,0.0,0.0,0.0,2.1171,2.0884,2.0025,0.0,0.0,0.0,0.0,0.0,0.0,0.0,0.0,0.0,2.0219,2.1874,2.3745,2.6305,2.9634,3.2361,3.5113,3.7765,3.696,3.5473,3.3365,3.0476,2.8603,0.0,0.0,0.0,0.0,2.9338,0.0,0.0,0.0,0.0,0.0,3.1961,3.1817,0.0,3.2126,3.1895,3.1254,0.0,0.0,0.0,0.0,3.106,3.1591,3.2215,3.4374,3.6358,3.6006,3.5506,3.4904,3.4048,3.3269,3.2566,3.1964,3.229,3.3043,3.4176,3.5203,3.6634,3.9019,4.1327,4.4464,4.9163,5.2829,5.5942,5.8453,5.8755,5.8956,0.0,5.9232,5.9081,5.9081,5.8579,5.8278,5.8278,5.8278,5.8278,5.8278,5.8504,5.8529,5.8278,5.8541,5.8792,5.9081,5.9357,5.9483,5.9483,5.9483,5.9483,0.0,0.0,0.0,5.9483,5.9483,5.9483,5.9483,5.9483,5.9332,5.9106,5.9382,5.9307,5.9081,0.0,0.0,0.0,0.0,0.0,0.0,0.0,0.0,0.0,0.0,0.0,0.0,0.0,0.0,0.0,0.0,0.0,0.0,0.0,0.0,0.0,0.0,0.0,2.1062,2.2843,2.4669,2.7358,3.0939,3.3183,3.5929,3.9083,3.8148,3.6254,3.35,2.9728,2.7884,0.0,0.0,0.0,0.0,2.9279,0.0,0.0,0.0,0.0,0.0,0.0,0.0,0.0,3.2426,3.2217,3.1336,3.1712,0.0,0.0,0.0,0.0,0.0,3.1037,3.3844,3.6491,3.5919,3.5362,3.485,3.4421,3.2943,3.1612,3.1537,3.2014,3.2742,3.3693,3.5753,3.7537,3.8115,4.2384,4.728,5.195,5.411,5.5979,5.7901,5.8152,0.0,5.9408,5.9483,5.9483,5.9483,5.9081,5.8792,5.8792,5.8792,5.8792,5.8792,5.9257,5.9282,5.8855,5.8792,5.9056,5.9483,5.9483,5.9483,5.9483,5.9483,5.9483,5.9483,0.0,0.0,5.9483,5.9483,5.9483,5.9483,5.9483,5.9483,5.9483,5.9483,5.9483,5.9483,0.0,0.0,0.0,0.0,0.0,0.0,0.0,0.0,0.0,0.0,0.0,0.0,0.0,0.0,0.0,0.0,0.0,0.0,0.0,0.0,0.0,0.0,2.2082,2.2578,2.497,2.5742,2.8359,3.2958,3.5881,3.8577,4.1007,4.1881,3.9455,3.4218,3.1344,2.9129,2.7585,2.7585,0.0,2.7854,2.9099,0.0,0.0,0.0,0.0,0.0,0.0,0.0,0.0,2.9844,3.0122,3.0638,3.0281,0.0,0.0,0.0,0.0,0.0,3.3113,3.7628,4.0395,3.4331,3.4594,3.5657,3.3148,3.2717,3.2688,3.219,3.2918,3.4374,3.681,3.7588,3.8944,0.0,0.0,5.1348,5.4461,0.0,5.8378,5.9156,0.0,5.9307,5.9483,5.9483,5.9483,5.9483,5.9408,5.9382,5.9382,5.9382,5.9382,5.9382,5.9458,5.9458,5.9382,5.9382,5.9408,5.9483,5.9483,5.9483,5.9483,5.9483,5.9483,5.9483,0.0,5.9483,5.9483,5.9483,5.9483,5.9483,5.9483,5.9483,5.9483,5.9483,5.9483,5.9483,0.0,0.0,0.0,0.0,0.0,0.0,0.0,0.0,0.0,0.0,0.0,0.0,0.0,0.0,0.0,0.0,0.0,0.0,0.0,0.0,0.0,2.5737,2.5216,2.543,2.6563,2.9275,3.2264,3.5514,3.91,4.1774,4.3469,4.1175,3.7716,3.3305,3.0642,2.877,2.7585,2.7585,2.7585,2.7705,0.0,0.0,0.0,0.0,0.0,0.0,0.0,0.0,0.0,0.0,3.168,3.2928,3.1766,0.0,0.0,0.0,0.0,0.0,3.2296,3.5756,3.858,3.6375,3.9841,4.3254,4.1207,0.0,3.9134,3.6723,3.691,3.7688,3.8341,3.9948,4.2986,4.8686,0.0,5.313,5.5892,5.6646,5.7349,0.0,0.0,5.8855,5.9433,5.9483,5.9483,5.9483,5.9483,5.9483,5.9483,5.9483,5.9483,5.9483,5.9483,5.9483,5.9483,5.9483,5.9483,5.9483,5.9483,5.9483,5.9483,5.9483,5.9483,5.9483,0.0,5.9483,5.9483,5.9483,5.9483,5.9483,5.9483,5.9483,5.9483,5.9483,5.9483,5.9483,0.0,0.0,0.0,0.0,0.0,0.0,0.0,0.0,0.0,0.0,0.0,0.0,0.0,0.0,0.0,0.0,0.0,0.0,0.0,0.0,2.5573,2.7735,2.8261,2.8858,2.958,3.3,3.6047,3.8722,4.2129,4.4296,4.5185,4.0367,3.6267,3.2841,3.0223,2.85,2.7585,2.7585,2.7585,2.7705,0.0,0.0,0.0,0.0,0.0,0.0,0.0,0.0,0.0,0.0,0.0,0.0,0.0,0.0,0.0,3.3707,3.2672,3.2099,3.2557,3.4908,3.772,3.9657,4.3684,4.7363,0.0,0.0,0.0,0.0,0.0,4.143,4.0602,4.3112,4.733,5.3416,5.4084,5.4727,5.7211,5.6897,5.6821,5.8127,5.8278,5.8604,5.9408,5.9483,5.9483,5.9483,5.9483,5.9483,5.9483,5.9483,5.9483,5.9483,5.9483,5.9483,5.9483,5.9483,5.9483,5.9483,5.9483,5.9483,5.9483,5.9483,5.9483,5.9483,5.9483,5.9483,5.9483,5.9483,5.9483,5.9483,5.9483,5.9483,5.9483,5.9483,5.9483,5.9483,0.0,0.0,0.0,0.0,0.0,0.0,0.0,0.0,0.0,0.0,0.0,0.0,0.0,0.0,0.0,0.0,0.0,0.0,0.0,0.0,2.577,2.8397,3.0269,3.2661,3.5783,3.5576,3.7896,4.2971,4.4446,4.5214,4.5214,4.1773,3.811,3.4248,3.1539,2.9325,2.7585,2.7585,2.7585,2.7705,2.9052,0.0,0.0,0.0,0.0,0.0,0.0,0.0,0.0,0.0,0.0,0.0,0.0,0.0,3.5385,3.5381,3.488,3.474,3.6559,3.9298,4.1964,4.3389,4.1415,4.0853,4.7415,4.4353,0.0,4.5842,0.0,0.0,0.0,4.7707,5.077,5.3356,5.544,5.7311,5.9081,0.0,5.9232,5.9357,5.9382,5.9408,5.9483,5.9483,5.9483,5.9483,5.9483,5.9483,5.9483,5.9483,5.9483,5.9483,5.9483,5.9483,5.9483,5.9483,5.9483,5.9483,5.9483,5.9483,5.9483,5.9483,5.9483,5.9483,5.9483,5.9483,5.9483,5.9483,5.9483,5.9483,5.9483,5.9483,5.9483,5.9483,5.9483,5.9483,0.0,0.0,0.0,0.0,0.0,0.0,0.0,0.0,0.0,0.0,0.0,0.0,0.0,0.0,0.0,0.0,0.0,0.0,0.0,0.0,2.6769,3.0255,3.1525,3.3787,3.7355,3.8859,4.1644,4.5813,4.6711,4.6112,4.4068,4.0696,3.7045,3.3185,3.133,2.9864,0.0,0.0,2.847,2.8903,2.9398,2.9608,0.0,0.0,0.0,0.0,0.0,0.0,0.0,0.0,3.3331,3.4899,3.4401,3.591,3.7585,3.6096,3.5162,3.4582,3.4566,3.7528,4.0818,4.1715,4.2118,4.4257,0.0,5.15,5.0015,5.2064,5.1466,0.0,0.0,0.0,5.4185,5.4662,5.6897,5.878,5.9408,5.9483,5.9483,5.9483,5.9483,5.9483,5.9483,5.9483,5.9483,5.9483,5.9483,5.9483,5.9483,5.9483,5.9483,5.9483,5.9483,5.9483,5.9483,5.9483,5.9483,5.9483,5.9483,5.9483,5.9483,5.9483,5.9483,5.9483,5.9483,5.9483,5.9483,5.9483,5.9483,5.9483,5.9483,5.9483,5.9483,5.9483,5.9483,5.9483,0.0,0.0,0.0,0.0,0.0,0.0,0.0,0.0,0.0,0.0,0.0,0.0,0.0,0.0,0.0,0.0,0.0,0.0,2.4844,2.5364,2.7278,3.1002,3.2243,3.4572,3.8365,4.1036,4.3574,4.594,4.7103,4.6129,4.302,3.9876,3.6746,3.3694,0.0,0.0,0.0,0.0,0.0,2.9877,2.9877,2.9877,0.0,0.0,0.0,0.0,0.0,0.0,0.0,0.0,3.4053,3.5541,3.5426,3.7228,3.9068,3.7382,3.659,3.5995,3.476,3.6613,3.9225,4.0496,4.2628,4.6397,5.3964,5.4303,5.3772,5.6362,5.5048,5.303,5.1674,0.0,0.0,5.5892,5.7926,5.9483,5.9483,5.9483,5.9483,5.9483,5.9483,5.9483,5.9483,5.9483,5.9483,5.9483,5.9483,5.9483,5.9483,5.9483,5.9483,5.9483,5.9483,5.9483,5.9483,5.9483,5.9483,5.9483,5.9483,5.9483,5.9483,5.9483,5.9483,5.9483,5.9483,5.9483,5.9483,5.9483,5.9483,5.9483,5.9483,5.9483,5.9483,5.9483,5.9483,5.9483,0.0,0.0,0.0,0.0,0.0,0.0,0.0,0.0,0.0,0.0,0.0,0.0,0.0,0.0,0.0,0.0,0.0,0.0,2.5513,2.5615,2.7081,3.0372,3.2407,3.534,3.9254,4.1769,4.3012,4.3008,4.5263,4.4996,4.2291,3.9637,3.7721,0.0,0.0,0.0,0.0,0.0,0.0,0.0,3.0522,3.0522,3.0582,0.0,0.0,0.0,0.0,0.0,0.0,0.0,3.4039,3.4099,3.7362,3.8853,3.9403,3.9373,3.9609,3.9587,3.824,3.7569,3.7938,4.06,4.261,4.5672,5.2355,5.0859,5.0269,5.8062,5.6068,5.3457,5.5089,5.4999,0.0,5.6734,5.8403,5.9483,5.9483,5.9483,5.9483,5.9483,5.9483,5.9483,5.9483,5.9483,5.9483,5.9483,5.9483,5.9483,5.9483,5.9483,5.9483,5.9483,5.9483,5.9483,5.9483,5.9483,5.9483,5.9483,5.9483,5.9483,5.9483,5.9483,5.9483,5.9483,5.9483,5.9483,5.9483,5.9483,5.9483,5.9483,5.9483,5.9483,5.9483,5.9483,5.9483,5.9483,0.0,0.0,0.0,0.0,0.0,0.0,0.0,0.0,0.0,0.0,0.0,0.0,0.0,0.0,0.0,0.0,0.0,0.0,2.5548,2.5955,2.7467,3.0386,3.1988,3.3488,3.493,3.6589,3.955,4.3766,4.5026,4.3545,3.9577,3.926,0.0,0.0,0.0,0.0,0.0,0.0,0.0,0.0,3.1585,3.1495,3.1944,0.0,0.0,0.0,0.0,0.0,0.0,0.0,0.0,0.0,3.6464,3.8166,3.9218,3.7901,3.7685,3.7497,3.5479,3.9118,4.2944,4.0719,4.5825,5.1693,5.2931,5.2582,0.0,0.0,5.6406,5.5139,5.4898,5.5968,0.0,5.6495,5.8152,5.9483,5.9483,5.9483,5.9483,5.9483,5.9483,5.9483,5.9483,5.9483,5.9483,5.9483,5.9483,5.9483,5.9483,5.9483,5.9483,5.9483,5.9483,5.9483,5.9483,5.9483,5.9483,5.9483,5.9483,5.9483,5.9483,5.9483,5.9483,5.9483,5.9483,5.9483,5.9483,5.9483,5.9483,5.9483,5.9483,5.9483,5.9483,5.9483,5.9483,5.9483,0.0,0.0,0.0,0.0,0.0,0.0,0.0,0.0,2.3879,2.4717,2.4118,2.3846,0.0,0.0,0.0,2.4215,2.4532,0.0,2.5864,2.6485,2.7923,3.0386,3.1764,3.3222,3.4756,3.6369,3.8494,4.1067,4.2113,4.1015,3.8033,0.0,0.0,0.0,0.0,0.0,0.0,0.0,0.0,0.0,3.311,3.2931,3.3275,0.0,0.0,0.0,0.0,0.0,0.0,0.0,0.0,0.0,3.5985,3.75,3.8556,3.7933,3.8626,3.9375,3.8615,4.2431,4.6437,4.5501,4.9632,5.4027,5.4421,5.4777,5.5379,0.0,5.6559,5.6219,5.6219,5.7148,0.0,5.7549,5.8629,5.9483,5.9483,5.9483,5.9483,5.9483,5.9483,5.9483,5.9483,5.9483,5.9483,5.9483,5.9483,5.9483,5.9483,5.9483,5.9483,5.9483,5.9483,5.9483,5.9483,5.9483,5.9483,5.9483,5.9483,5.9483,5.9483,5.9483,5.9483,5.9483,5.9483,5.9483,5.9483,5.9483,5.9483,5.9483,5.9483,5.9483,5.9483,5.9483,5.9483,5.9483,0.0,0.0,0.0,0.0,0.0,0.0,0.0,2.3741,2.3741,2.3741,2.3741,2.3943,0.0,0.0,0.0,2.5163,2.5314,2.5665,2.634,2.7156,2.8443,3.04,3.1884,3.4097,3.7148,3.8901,3.8601,3.6224,3.7743,3.8071,0.0,0.0,4.0756,0.0,0.0,4.1014,0.0,0.0,0.0,0.0,3.4757,3.4533,3.4518,3.3784,0.0,0.0,0.0,0.0,0.0,0.0,0.0,0.0,3.5759,3.6798,3.7476,3.8698,4.1086,4.3566,4.4697,4.6464,4.8832,5.2506,5.3306,5.3849,5.6408,5.6985,5.6985,5.6985,0.0,5.6846,5.839,5.8303,5.8303,5.9332,5.9483,5.9483,5.9483,5.9483,5.9483,5.9483,5.9483,5.9483,5.9483,5.9483,5.9483,5.9483,5.9483,5.9483,5.9483,5.9483,5.9483,5.9483,5.9483,5.9483,5.9483,5.9483,5.9483,5.9483,5.9483,5.9483,5.9483,5.9483,5.9483,5.9483,5.9483,5.9483,5.9483,5.9483,5.9483,5.9483,5.9483,5.9483,5.9483,5.9483,5.9483,5.9483,0.0,0.0,0.0,0.0,0.0,0.0,2.4881,2.4871,2.4871,2.4871,2.4871,2.491,2.5028,2.5037,0.0,2.5192,2.61,2.6618,2.6404,2.7967,2.9365,3.0444,3.2796,3.4667,3.5878,3.531,3.4711,3.4143,3.7015,3.755,0.0,0.0,0.0,0.0,0.0,0.0,0.0,0.0,0.0,0.0,0.0,3.4817,3.516,3.3979,3.3395,0.0,0.0,0.0,0.0,0.0,0.0,0.0,3.507,3.5805,3.5965,3.6251,3.967,4.3079,4.1649,4.6295,5.1486,5.1191,5.3331,5.5767,5.6759,5.6985,5.6985,5.6985,5.7298,5.7775,5.8579,5.8629,5.8755,5.9382,5.9483,5.9483,5.9483,5.9483,5.9483,5.9483,5.9483,5.9483,5.9483,5.9483,5.9483,5.9483,5.9483,5.9483,5.9483,5.9483,5.9483,5.9483,5.9483,5.9483,5.9483,5.9483,5.9483,0.0,5.9483,5.9483,5.9483,5.9483,5.9483,5.9483,5.9483,5.9483,5.9483,5.9483,5.9483,5.9483,5.9483,5.9483,5.9483,5.9483,5.9483,5.9483,0.0,0.0,0.0,0.0,0.0,0.0,0.0,0.0,2.6116,2.5766,2.5734,2.5693,2.5575,2.557,0.0,0.0,2.654,2.6878,2.6807,2.8286,3.0011,3.1867,3.4188,3.5011,3.4067,3.3694,3.3036,3.2048,3.4412,3.5699,0.0,0.0,0.0,0.0,0.0,0.0,0.0,0.0,0.0,0.0,0.0,3.5459,3.54,3.4368,3.359,3.2886,3.1869,0.0,0.0,0.0,0.0,0.0,0.0,0.0,3.568,3.6637,3.9337,4.2336,4.3865,4.8159,5.2434,5.3317,5.5315,5.6947,5.6659,5.7035,5.7449,5.7449,5.7901,5.8453,5.8981,5.9081,5.9182,5.9458,5.9483,5.9483,5.9483,5.9483,5.9483,5.9483,5.9483,5.9483,5.9483,5.9483,5.9483,5.9483,5.9483,5.9483,5.9483,5.9483,5.9483,5.9483,5.9483,5.9483,5.9483,5.9483,5.9483,5.9483,5.9483,5.9483,5.9483,5.9483,5.9483,5.9483,5.9483,5.9483,5.9483,5.9483,5.9483,5.9483,5.9483,5.9483,5.9483,5.9483,5.9483,5.9483,0.0,0.0,0.0,0.0,0.0,0.0,0.0,0.0,0.0,2.6866,2.6662,2.6515,2.6333,2.6212,2.6263,0.0,0.0,0.0,2.7189,2.8534,3.048,3.3036,3.4951,3.4891,3.2542,3.2826,3.2287,3.0851,3.1854,0.0,0.0,0.0,0.0,0.0,0.0,0.0,0.0,0.0,0.0,0.0,0.0,0.0,0.0,0.0,0.0,3.2422,3.175,3.1511,3.169,3.3066,0.0,0.0,0.0,0.0,3.5639,3.7255,3.9151,4.1668,4.5951,4.9239,5.235,5.6081,5.7399,5.7524,5.6696,5.7223,5.7951,5.8127,5.8529,5.8981,5.9408,5.9483,5.9483,5.9483,5.9483,5.9483,5.9483,5.9483,5.9483,5.9483,5.9483,5.9483,5.9483,5.9483,5.9483,5.9483,5.9483,5.9483,5.9483,5.9483,5.9483,5.9483,5.9483,5.9483,5.9483,5.9483,5.9483,5.9483,5.9483,5.9483,5.9483,5.9483,5.9483,5.9483,5.9483,5.9483,5.9483,5.9483,5.9483,5.9483,5.9483,5.9483,5.9483,5.9483,5.9483,5.9483,0.0,0.0,0.0,0.0,0.0,0.0,0.0,0.0,0.0,0.0,2.8025,2.7597,2.7558,2.7003,2.6632,2.6691,2.7291,2.7507,2.721,0.0,0.0,3.1734,3.3155,3.3455,3.2512,3.145,3.136,3.2243,3.1839,0.0,0.0,0.0,0.0,0.0,0.0,0.0,0.0,0.0,0.0,0.0,0.0,0.0,0.0,0.0,0.0,3.2422,3.175,3.1511,3.169,3.3066,3.3125,0.0,0.0,0.0,3.4667,3.4937,3.8168,4.148,4.0688,4.5423,5.1606,5.5892,5.706,5.7211,5.76,5.7801,5.8152,5.9081,5.9332,5.9408,5.9483,5.9483,5.9483,5.9483,5.9483,5.9483,5.9483,5.9483,5.9483,5.9483,5.9483,5.9483,5.9483,5.9483,5.9483,5.9483,5.9483,5.9483,5.9483,5.9483,5.9483,5.9483,5.9483,5.9483,5.9483,5.9483,5.9483,5.9483,5.9483,5.9483,5.9483,5.9483,5.9483,5.9483,5.9483,5.9483,5.9483,5.9483,5.9483,5.9483,5.9483,5.9483,5.9483,5.9483,5.9483,5.9483,0.0,0.0,0.0,0.0,0.0,0.0,0.0,0.0,0.0,0.0,0.0,2.8949,2.8518,2.7765,2.7325,2.7325,2.7224,2.7332,2.7689,2.9159,3.0462,3.1451,3.2049,3.2063,3.1375,3.0462,3.0432,3.1375,0.0,0.0,0.0,4.0098,4.1504,0.0,0.0,0.0,0.0,0.0,0.0,0.0,0.0,3.522,0.0,0.0,0.0,3.5952,3.2676,3.175,3.2213,3.3185,3.3544,3.3784,3.4757,0.0,0.0,0.0,3.5759,3.8311,4.2129,4.7163,5.2352,5.6495,5.7524,5.7575,5.7851,5.7901,5.8127,5.8905,5.9282,5.9483,5.9483,5.9483,5.9483,5.9483,5.9483,5.9483,5.9483,5.9483,5.9483,5.9483,5.9483,5.9483,5.9483,5.9483,5.9483,5.9483,5.9483,5.9483,5.9483,5.9483,5.9483,5.9483,5.9483,5.9483,5.9483,5.9483,5.9483,5.9483,5.9483,5.9483,5.9483,5.9483,5.9483,5.9483,5.9483,5.9483,5.9483,5.9483,5.9483,5.9483,5.9483,5.9483,5.9483,5.9483,5.9483,5.9483,0.0,0.0,0.0,0.0,0.0,0.0,0.0,0.0,0.0,0.0,0.0,2.9895,2.9339,0.0,0.0,0.0,2.7188,2.7047,2.7632,2.8564,2.9594,3.0703,3.0913,3.0687,3.0043,2.9578,2.9714,3.0492,0.0,0.0,3.966,4.0337,4.2132,0.0,4.1724,0.0,0.0,0.0,0.0,0.0,3.5206,3.7404,0.0,0.0,0.0,0.0,3.4666,3.308,3.3514,3.3514,3.3949,3.4578,3.507,3.4907,0.0,0.0,0.0,3.4821,4.2368,4.6627,5.0142,5.5164,5.662,5.7047,5.7901,5.8102,5.8252,5.8805,5.9232,5.9483,5.9483,5.9483,5.9483,5.9483,5.9483,5.9483,5.9483,5.9483,5.9483,5.9483,5.9483,5.9483,5.9483,5.9483,5.9483,5.9483,5.9483,5.9483,5.9483,5.9483,5.9483,5.9483,5.9483,5.9483,5.9483,5.9483,5.9483,5.9483,5.9483,5.9483,5.9483,5.9483,5.9483,5.9483,5.9483,5.9483,5.9483,5.9483,5.9483,5.9483,5.9483,5.9483,5.9483,5.9483,5.9483,5.9483,0.0,0.0,0.0,0.0,0.0,0.0,0.0,0.0,0.0,0.0,0.0,3.0098,3.0065,2.9373,2.8619,2.7858,2.7363,2.6896,2.651,2.7255,2.8034,2.8727,2.9368,0.0,2.8697,2.8667,2.9265,0.0,0.0,0.0,4.0367,4.1025,4.309,4.6121,4.4007,4.1724,3.9272,0.0,0.0,0.0,0.0,4.0565,0.0,0.0,0.0,0.0,0.0,0.0,3.6014,3.4113,3.3949,3.4488,3.4548,3.4518,3.421,0.0,0.0,0.0,3.7702,3.9798,4.2283,5.0393,5.3181,5.4762,5.7914,5.8641,5.883,5.9357,5.9483,5.9483,5.9483,5.9483,5.9483,5.9483,5.9483,5.9483,5.9483,5.9483,5.9483,5.9483,5.9483,5.9483,5.9483,5.9483,5.9483,5.9483,5.9483,5.9483,5.9483,5.9483,5.9483,5.9483,5.9483,5.9483,5.9483,5.9483,5.9483,5.9483,5.9483,5.9483,5.9483,5.9483,5.9483,5.9483,5.9483,5.9483,5.9483,5.9483,5.9483,5.9483,5.9483,5.9483,5.9483,5.9483,5.9483,5.9483,0.0,0.0,0.0,0.0,0.0,0.0,0.0,0.0,0.0,0.0,0.0,0.0,0.0,0.0,0.0,2.9311,2.8402,0.0,0.0,2.7394,2.7914,2.8577,2.8779,2.8804,2.859,2.8579,0.0,0.0,0.0,3.4336,3.914,4.0247,4.2073,4.4347,4.2342,4.1175,4.0427,3.6763,0.0,0.0,0.0,0.0,0.0,0.0,0.0,0.0,0.0,0.0,0.0,3.8829,3.7032,3.5086,3.4637,3.4188,3.3446,3.1293,3.0359,3.1006,3.5495,3.7939,4.0678,4.6853,5.0544,5.3181,5.5064,5.7173,5.8742,5.8956,5.9257,5.9483,5.9483,5.9483,5.9483,5.9483,5.9483,5.9483,5.9483,5.9483,5.9483,5.9483,5.9483,5.9483,5.9483,5.9483,5.9483,5.9483,5.9483,5.9483,5.9483,5.9483,5.9483,5.9483,5.9483,5.9483,5.9483,5.9483,5.9483,5.9483,5.9483,5.9483,5.9483,5.9483,5.9483,5.9483,5.9483,5.9483,5.9483,5.9483,5.9483,5.9483,5.9483,5.9483,5.9483,5.9483,5.9483,5.9483,0.0,0.0,0.0,0.0,0.0,0.0,0.0,0.0,0.0,0.0,0.0,0.0,0.0,0.0,0.0,2.9966,2.8938,2.8,2.7175,2.7224,2.7542,2.8231,2.8427,2.8452,2.8274,0.0,0.0,0.0,0.0,0.0,0.0,0.0,4.0905,4.296,4.0726,0.0,0.0,0.0,0.0,3.7238,0.0,0.0,4.8648,0.0,0.0,0.0,0.0,0.0,0.0,0.0,0.0,0.0,0.0,0.0,0.0,0.0,0.0,0.0,3.2796,3.5102,3.7914,4.3285,4.6547,4.9515,5.3381,5.5717,5.7399,5.8704,5.9257,5.9483,5.9483,5.9483,5.9483,5.9483,5.9483,5.9483,5.9483,5.9483,5.9483,5.9483,5.9483,5.9483,5.9483,5.9483,5.9483,5.9483,5.9483,0.0,5.9483,5.9483,5.9483,5.9483,5.9483,5.9483,5.9483,5.9483,5.9483,5.9483,5.9483,5.9483,5.9483,5.9483,5.9483,5.9483,5.9483,5.9483,5.9483,5.9483,5.9483,5.9483,5.9483,5.9483,5.9483,5.9483,5.9483,5.9483,0.0,0.0,0.0,0.0,0.0,0.0,0.0,0.0,0.0,0.0,0.0,0.0,0.0,0.0,0.0,0.0,2.8939,2.8005,2.6729,2.6656,2.6938,2.7585,2.8274,0.0,0.0,0.0,0.0,0.0,0.0,0.0,0.0,0.0,3.9757,0.0,3.9607,4.0247,4.321,0.0,4.1134,4.0169,0.0,5.0212,4.8297,0.0,0.0,0.0,5.0444,4.9277,0.0,0.0,0.0,0.0,0.0,0.0,0.0,0.0,0.0,0.0,0.0,0.0,0.0,3.9546,4.1127,4.3611,5.2854,5.4185,5.4587,5.8504,5.9307,5.9357,5.9483,5.9483,5.9483,5.9483,5.9483,5.9483,5.9483,5.9483,5.9483,5.9483,5.9483,5.9483,5.9483,5.9483,5.9483,5.9483,5.9483,5.9483,5.9483,5.9483,5.9483,5.9483,5.9483,5.9483,5.9483,5.9483,5.9483,5.9483,5.9483,5.9483,5.9483,5.9483,5.9483,5.9483,5.9483,5.9483,5.9483,5.9483,5.9483,5.9483,5.9483,5.9483,5.9483,5.9483,5.9483,5.9483,0.0,0.0,0.0,0.0,0.0,3.3389,3.2882,3.3254,0.0,0.0,0.0,0.0,0.0,0.0,0.0,0.0,3.1368,3.0315,2.8188,2.8008,2.8088,2.8304,2.8921,2.9202,0.0,0.0,0.0,0.0,0.0,0.0,0.0,0.0,0.0,0.0,3.9948,4.0098,4.0378,3.8302,0.0,0.0,4.5822,4.968,0.0,0.0,0.0,0.0,0.0,5.859,5.6885,0.0,5.2323,4.469,0.0,0.0,0.0,0.0,0.0,0.0,2.8957,0.0,0.0,0.0,0.0,0.0,4.3765,4.6552,4.9565,5.3823,5.5039,5.6168,5.8981,5.9483,5.9483,5.9483,5.9483,5.9483,5.9483,5.9483,5.9483,5.9483,5.9483,5.9483,5.9483,5.9483,5.9483,0.0,5.9483,5.9483,5.9483,5.9483,5.9483,5.9483,5.9483,5.9483,5.9483,5.9483,5.9483,5.9483,5.9483,5.9483,5.9483,5.9483,5.9483,5.9483,5.9483,5.9483,5.9483,5.9483,5.9483,5.9483,5.9483,5.9483,5.9483,5.9483,5.9483,5.9483,0.0,0.0,3.3673,3.3451,3.4252,3.4686,3.3974,3.4177,3.4381,0.0,0.0,0.0,0.0,0.0,0.0,0.0,3.2988,3.1836,2.9542,2.9122,2.8991,2.9022,2.962,2.9815,2.9592,0.0,0.0,0.0,0.0,0.0,0.0,0.0,0.0,0.0,0.0,0.0,0.0,0.0,0.0,0.0,4.7309,0.0,0.0,5.8949,6.2032,0.0,0.0,0.0,6.0533,6.3317,5.6373,0.0,0.0,0.0,0.0,0.0,0.0,0.0,0.0,0.0,0.0,0.0,0.0,0.0,0.0,4.4966,4.8083,5.4361,5.5917,5.6796,5.9081,5.9684,5.9834,5.9834,6.0035,6.0035,5.9558,5.9483,5.9483,5.9483,5.9483,5.9483,5.9483,5.9483,5.9483,5.9483,5.9483,5.9483,5.9483,5.9483,5.9483,5.9483,5.9483,5.9483,5.9483,5.9483,5.9483,5.9483,5.9483,5.9483,5.9483,5.9483,5.9483,5.9483,5.9483,5.9483,5.9483,5.9483,5.9483,5.9483,5.9483,5.9483,5.9483,5.9483,5.9483,5.9483,0.0,0.0,3.5107,3.3964,3.4909,3.5647,3.5024,3.4844,3.5094,0.0,0.0,0.0,0.0,0.0,0.0,0.0,0.0,3.2918,3.0744,3.0096,2.9779,2.9698,3.0283,3.0402,2.9937,3.1046,0.0,0.0,0.0,0.0,0.0,0.0,0.0,0.0,3.4757,3.5146,3.6224,3.5326,0.0,4.1006,5.0571,5.3054,0.0,0.0,6.2241,0.0,6.4844,6.4276,6.2091,6.7325,6.1172,0.0,0.0,0.0,0.0,0.0,2.9453,0.0,0.0,0.0,0.0,0.0,0.0,0.0,0.0,4.5522,4.7355,5.5591,5.7349,5.7549,5.8027,5.8579,5.8892,5.8892,5.9784,6.0236,5.9659,5.9633,5.9659,5.9583,5.9633,5.9659,5.9583,5.9583,5.9558,5.9508,5.9483,5.9483,5.9483,5.9483,5.9483,5.9483,5.9483,5.9483,5.9483,5.9483,5.9483,5.9483,5.9483,5.9483,5.9483,5.9483,5.9483,5.9483,5.9483,5.9483,5.9483,5.9483,5.9483,5.9483,5.9483,5.9483,5.9483,5.9483,5.9483,5.9483,3.3788,3.4387,3.4966,3.5769,3.704,3.7938,3.7767,3.7743,3.7986,0.0,0.0,0.0,0.0,0.0,0.0,0.0,0.0,0.0,3.1494,3.1141,3.0813,3.034,3.0957,3.1481,3.1914,3.2183,3.2243,0.0,0.0,0.0,0.0,0.0,0.0,0.0,0.0,3.4653,3.4997,0.0,0.0,4.5224,4.8386,0.0,5.6466,6.3109,6.646,6.7867,6.9393,6.9453,6.822,0.0,6.0169,5.4793,0.0,0.0,0.0,0.0,0.0,0.0,0.0,0.0,0.0,0.0,0.0,0.0,0.0,3.5855,3.8216,4.2635,4.3915,4.5321,4.8855,4.9967,5.0318,5.0318,5.3432,5.6872,5.9759,6.0563,6.0688,6.0211,6.0563,6.0663,6.0211,6.0161,5.996,5.9533,5.9483,5.9483,5.9483,5.9483,5.9483,5.9483,5.9483,5.9483,5.9483,5.9483,5.9483,5.9483,5.9483,5.9483,5.9483,5.9483,5.9483,5.9483,5.9483,5.9483,5.9483,5.9483,5.9483,5.9483,5.9483,5.9483,5.9483,5.9483,5.9483,5.9483,3.4882,3.5609,3.6326,3.6899,3.8451,3.9704,3.9984,4.0307,4.0622,0.0,0.0,0.0,0.0,0.0,0.0,0.0,0.0,0.0,3.3141,3.2324,3.1944,3.2003,3.2004,3.2303,3.2961,3.2662,3.2512,3.2512,0.0,0.0,0.0,0.0,0.0,0.0,0.0,0.0,0.0,0.0,3.9679,4.5224,4.9853,0.0,6.0655,6.5951,6.8794,7.0173,7.1427,7.1667,7.0704,6.6236,6.0725,0.0,0.0,4.5845,4.0777,0.0,3.5855,3.686,0.0,0.0,0.0,3.2993,0.0,0.0,0.0,0.0,3.7287,4.2032,4.2733,4.3385,4.617,4.6898,4.728,4.7863,5.1934,5.4963,5.4963,5.8303,6.0738,6.0738,6.1014,0.0,6.0788,6.0487,6.0085,5.9533,5.9483,5.9483,5.9483,5.9483,5.9483,5.9483,5.9483,5.9483,5.9483,5.9483,5.9483,5.9483,5.9483,5.9483,5.9483,5.9483,5.9483,5.9483,5.9483,5.9483,5.9483,5.9483,5.9483,5.9483,5.9483,5.9483,5.9483,5.9483,5.9483,5.9483,3.5706,3.6552,3.735,3.7323,3.9023,4.0589,4.1264,4.1842,4.2311,0.0,0.0,0.0,0.0,0.0,0.0,0.0,0.0,0.0,0.0,3.4691,3.3931,3.4067,3.3305,3.3305,3.4233,3.3245,3.2691,3.2691,0.0,0.0,0.0,0.0,0.0,0.0,0.0,0.0,0.0,0.0,0.0,4.633,0.0,5.7872,6.266,6.7657,6.9572,6.9873,7.1816,7.2176,7.1215,6.8094,0.0,5.5046,5.5388,4.9743,0.0,0.0,0.0,0.0,0.0,0.0,0.0,0.0,0.0,3.347,0.0,0.0,0.0,0.0,0.0,0.0,0.0,0.0,0.0,0.0,0.0,0.0,0.0,5.3582,0.0,5.8855,6.0462,0.0,6.0311,5.9508,5.9257,5.9784,5.883,5.8654,5.9608,5.9558,5.9483,5.9483,5.9483,5.9483,5.9483,5.9483,5.9483,5.9483,5.9483,5.9483,5.9483,5.9483,5.9483,5.9483,5.9483,5.9483,5.9483,5.9483,5.9483,5.9483,5.9483,5.9483,5.9483,5.9483,5.9483,5.9483,3.5537,3.5643,3.5959,3.6523,3.8232,3.9745,4.0424,4.11,4.1931,0.0,0.0,0.0,0.0,0.0,0.0,0.0,0.0,0.0,4.1701,0.0,3.8064,3.6247,3.4937,3.5116,3.6926,3.4622,3.3395,3.3395,0.0,0.0,0.0,0.0,0.0,0.0,3.9158,0.0,0.0,0.0,4.8199,0.0,5.4431,5.6051,0.0,6.5772,6.8227,6.8496,7.044,7.1068,7.0249,0.0,6.1805,5.8105,0.0,4.9485,5.0142,0.0,0.0,0.0,0.0,0.0,0.0,0.0,3.5629,0.0,0.0,0.0,0.0,0.0,0.0,0.0,0.0,0.0,0.0,0.0,0.0,0.0,4.1654,4.5618,4.9156,5.072,0.0,0.0,0.0,5.5365,5.6269,6.0663,5.6445,5.5555,5.9946,5.9759,5.9483,5.9483,5.9483,5.9483,5.9483,5.9483,5.9483,5.9483,5.9483,5.9483,5.9483,5.9483,5.9483,5.9483,5.9483,5.9483,5.9483,5.9483,5.9483,5.9483,5.9483,5.9483,5.9483,5.9483,5.9483,5.9483,3.5519,3.5519,3.5818,3.6836,3.8344,3.9888,4.1343,4.309,4.4436,0.0,0.0,0.0,0.0,0.0,0.0,0.0,0.0,4.5859,0.0,0.0,0.0,3.6738,3.5268,3.5093,3.6394,3.451,3.3484,3.3484,3.2452,0.0,0.0,0.0,0.0,0.0,4.0935,0.0,4.4356,0.0,4.806,0.0,0.0,0.0,0.0,6.5979,6.9395,6.9782,7.062,7.0889,7.0393,0.0,6.2187,0.0,0.0,0.0,0.0,0.0,0.0,0.0,0.0,0.0,0.0,0.0,0.0,0.0,3.2566,0.0,3.116,0.0,0.0,0.0,0.0,0.0,0.0,0.0,0.0,0.0,0.0,0.0,0.0,0.0,0.0,0.0,0.0,0.0,0.0,0.0,5.5496,5.4642,6.0021,6.0111,5.9834,5.9508,5.9483,5.9483,5.9483,5.9483,5.9483,5.9483,5.9483,5.9483,5.9483,5.9483,5.9483,5.9483,5.9483,5.9483,5.9483,5.9483,5.9483,5.9483,5.9483,5.9483,5.9483,5.9483,5.9483,5.9483,3.5519,0.0,3.5848,3.6956,3.8242,3.9918,4.2301,4.4257,0.0,0.0,0.0,0.0,4.9224,4.858,0.0,0.0,0.0,4.877,0.0,0.0,4.1691,3.9894,3.6773,0.0,0.0,3.5171,3.3674,3.3396,3.2482,3.2153,0.0,0.0,0.0,0.0,0.0,4.5873,4.8731,0.0,5.0476,5.3843,5.415,5.6007,5.9364,6.6688,7.0051,7.0889,7.0889,7.0889,7.0385,6.7102,6.1798,0.0,5.8884,0.0,0.0,0.0,0.0,0.0,4.0678,0.0,0.0,0.0,0.0,0.0,0.0,0.0,0.0,0.0,0.0,0.0,0.0,0.0,0.0,0.0,0.0,0.0,0.0,0.0,0.0,0.0,0.0,0.0,0.0,0.0,0.0,0.0,0.0,5.3398,6.0358,6.0487,6.0136,5.9734,5.9583,5.9483,5.9483,5.9483,5.9483,5.9483,5.9483,5.9483,5.9483,5.9483,5.9483,5.9483,5.9483,5.9483,5.9483,5.9483,5.9483,5.9483,5.9483,5.9483,5.9483,5.9483,5.9483,5.9483,3.5519,3.5519,3.5729,3.6404,3.7571,3.9529,4.2801,4.3319,0.0,0.0,0.0,0.0,0.0,0.0,0.0,0.0,0.0,5.5529,5.2829,0.0,4.7514,0.0,0.0,3.8573,0.0,3.7448,3.4134,3.3091,3.3333,3.3769,0.0,0.0,0.0,0.0,0.0,4.6629,4.7758,5.3449,5.9194,6.4366,6.2513,6.3472,6.6205,0.0,6.9213,7.0889,7.0889,0.0,0.0,6.2892,6.038,0.0,0.0,0.0,0.0,0.0,0.0,0.0,0.0,0.0,0.0,3.7288,0.0,0.0,0.0,0.0,3.2688,0.0,0.0,0.0,0.0,0.0,0.0,0.0,0.0,0.0,0.0,0.0,0.0,0.0,0.0,0.0,0.0,0.0,0.0,0.0,0.0,0.0,6.1391,6.0914,6.0311,6.0247,5.9784,5.9483,5.9483,5.9483,5.9483,5.9483,5.9483,5.9483,5.9483,5.9483,5.9483,5.9483,5.9483,5.9483,5.9483,5.9483,5.9483,5.9483,5.9483,5.9483,5.9483,5.9483,5.9483,5.9483,0.0,0.0,3.7075,3.6028,3.6896,3.8871,4.2211,4.3808,0.0,0.0,0.0,0.0,0.0,5.4019,5.572,0.0,0.0,5.7926,5.4971,5.1879,0.0,0.0,0.0,3.888,0.0,0.0,3.504,3.3239,3.3849,3.3949,3.3592,0.0,0.0,0.0,0.0,4.826,0.0,0.0,0.0,0.0,0.0,6.1403,6.5483,0.0,0.0,6.8181,7.0203,7.0108,0.0,6.4806,6.1247,5.8173,5.7065,5.4336,5.1825,5.3281,5.308,0.0,0.0,0.0,5.087,4.2534,0.0,0.0,0.0,0.0,0.0,0.0,0.0,0.0,0.0,0.0,0.0,0.0,0.0,0.0,0.0,0.0,0.0,0.0,0.0,0.0,0.0,0.0,0.0,0.0,0.0,0.0,0.0,6.1843,6.1266,6.0914,6.0337,5.9859,5.9483,5.9483,5.9483,5.9483,5.9483,5.9483,5.9483,5.9483,5.9483,5.9483,5.9483,5.9483,5.9483,5.9483,5.9483,5.9483,5.9483,5.9483,5.9483,5.9483,5.9483,5.9483,3.8105,3.8093,3.7734,3.6716,3.7614,3.9439,4.2282,0.0,0.0,0.0,5.0377,0.0,5.5394,0.0,5.6402,0.0,6.0087,5.832,5.491,5.3965,0.0,4.9291,4.494,0.0,0.0,0.0,3.7775,3.5795,3.5635,3.5285,3.4738,3.4702,0.0,0.0,0.0,4.7062,5.4361,5.5499,5.9419,0.0,0.0,6.0632,0.0,0.0,6.4851,6.5896,0.0,6.9037,6.7179,6.546,6.2185,5.9008,5.9782,5.6972,5.3909,5.6394,5.5767,5.3934,5.2553,5.4009,0.0,4.6602,4.5824,0.0,3.7437,0.0,0.0,0.0,0.0,0.0,0.0,0.0,0.0,0.0,0.0,0.0,0.0,0.0,0.0,0.0,0.0,0.0,0.0,0.0,0.0,0.0,0.0,0.0,0.0,0.0,6.1843,6.1492,6.0914,6.0362,5.9784,5.9784,5.9684,5.9483,5.9483,5.9483,5.9483,5.9483,5.9483,5.9483,5.9483,5.9483,5.9483,5.9483,5.9483,5.9483,5.9483,5.9483,5.9483,5.9483,5.9483,5.9483,3.9421,3.8434,3.7853,3.8499,3.9589,4.1047,0.0,0.0,4.7681,0.0,5.1376,5.3226,5.6233,5.6113,5.6782,5.9186,5.9176,0.0,5.3545,5.5908,0.0,0.0,5.2215,5.1814,5.2169,0.0,0.0,0.0,3.8519,3.7587,3.7577,3.582,3.5643,0.0,3.7589,0.0,5.263,5.5628,6.2142,6.9954,6.414,6.1398,6.0778,6.0833,6.1948,6.3999,6.7597,6.7639,6.5831,6.4492,6.2848,6.1143,5.9896,5.9859,6.0286,6.0286,6.0688,6.0337,5.6646,5.5641,5.4486,4.9515,4.8259,0.0,0.0,0.0,4.3363,0.0,0.0,0.0,0.0,0.0,0.0,0.0,0.0,0.0,0.0,0.0,0.0,0.0,0.0,0.0,0.0,0.0,0.0,0.0,0.0,0.0,0.0,0.0,6.1768,6.2069,6.1517,6.0939,6.0362,6.0297,6.006,5.9533,5.9508,5.9483,5.9483,5.9483,5.9483,5.9483,5.9483,5.9483,5.9483,5.9483,5.9483,5.9483,5.9533,5.9533,5.9533,5.9508,5.9483,5.9483,3.9601,4.0337,4.1164,0.0,4.0834,4.1209,0.0,0.0,0.0,0.0,5.4194,5.6611,5.8506,5.8586,5.8768,5.9427,6.1964,0.0,0.0,0.0,0.0,5.8715,5.4565,5.2592,5.3265,4.9079,0.0,4.1045,0.0,3.8088,3.6487,3.5477,3.5643,3.6792,0.0,4.1575,5.0107,5.1758,5.7015,6.3984,6.1451,5.9774,5.897,0.0,5.9847,6.0224,6.5224,6.4883,6.2136,6.2184,6.0953,5.9439,5.9461,5.9583,5.9709,5.9709,6.0111,6.0311,5.9332,5.9357,5.8704,5.4511,5.319,5.1808,0.0,0.0,0.0,0.0,0.0,0.0,0.0,0.0,0.0,0.0,0.0,0.0,0.0,0.0,0.0,0.0,0.0,0.0,0.0,0.0,0.0,0.0,0.0,0.0,0.0,0.0,0.0,6.3124,6.2295,6.1517,6.0964,6.0537,6.0236,6.0111,5.9684,5.9483,5.9483,5.9483,5.9483,5.9483,5.9483,5.9483,5.9483,5.9483,5.9483,5.9533,5.996,6.0111,6.006,5.9633,5.9483,5.9483,4.1151,0.0,0.0,4.3708,0.0,0.0,4.587,4.7516,0.0,5.1996,5.4834,0.0,5.7318,5.8428,5.9156,5.9156,6.1322,0.0,5.8559,0.0,0.0,5.8491,5.8164,5.7497,5.6267,5.3655,0.0,4.4188,0.0,0.0,3.6843,3.5695,3.5552,3.6175,3.5928,3.9844,4.6954,5.2584,5.6877,5.9927,6.0154,5.9845,0.0,5.958,5.9343,5.9236,6.2598,6.2116,6.0047,6.0856,5.9902,5.8504,5.9257,5.9483,5.9483,5.9483,5.9709,5.996,5.996,6.0186,5.9985,5.8027,5.7323,5.6118,5.2537,5.2327,5.2578,0.0,0.0,0.0,0.0,0.0,0.0,0.0,0.0,0.0,0.0,0.0,0.0,0.0,0.0,0.0,0.0,0.0,0.0,0.0,0.0,0.0,0.0,0.0,0.0,6.2069,6.0636,6.0347,6.1542,5.928,5.8858,6.0311,6.001,5.9734,5.9483,5.9483,5.9483,5.9483,5.9483,5.9633,5.9859,5.9859,6.001,6.0261,6.0588,6.0688,6.0663,6.0337,6.0085,5.9885,0.0,0.0,0.0,0.0,0.0,0.0,0.0,4.8961,0.0,5.2468,0.0,5.6038,5.5394,5.7424,5.8792,5.8792,0.0,5.887,5.6468,6.0594,6.1092,5.6526,6.1702,6.3102,5.956,5.8146,0.0,0.0,0.0,0.0,3.7434,3.5766,3.5036,3.5166,3.5256,3.8479,0.0,5.4776,5.8446,5.7509,5.9594,6.0466,6.041,5.9938,5.9781,5.9833,6.0279,5.9686,5.8831,5.9974,5.9307,5.8177,5.9182,5.9483,5.9483,5.9483,5.9483,5.9483,5.9483,5.9483,5.9608,6.0085,6.0261,5.9558,5.6696,5.647,5.6445,5.4988,5.3557,5.3432,0.0,0.0,0.0,0.0,0.0,0.0,0.0,0.0,0.0,0.0,0.0,0.0,0.0,0.0,0.0,0.0,0.0,0.0,0.0,0.0,0.0,6.0663,5.883,5.9011,6.1567,0.0,5.7467,6.001,6.0286,6.0186,5.9709,5.9709,5.9709,5.9709,5.9709,5.9985,6.0437,6.0437,6.0763,6.1291,6.1255,6.1215,6.1291,6.1291,6.0964,6.0613,0.0,0.0,0.0,0.0,0.0,4.901,5.2777,5.3795,5.4481,5.5395,5.7504,5.9051,5.9273,5.9332,5.9357,5.9357,6.0886,0.0,0.0,0.0,0.0,6.1195,6.1804,6.133,5.9521,5.817,5.4358,0.0,0.0,0.0,3.5039,3.3487,3.3194,3.3999,3.4134,3.8742,4.6739,5.1056,0.0,5.7185,5.854,5.9313,5.9705,6.0085,6.0212,6.0161,5.9807,5.8667,5.7503,5.8642,5.882,5.8679,5.9307,5.9483,5.9483,5.9483,5.9483,5.9483,5.9483,5.9483,5.9508,5.9608,5.9985,6.0161,5.9583,5.991,6.0236,5.9935,5.9633,5.8567,5.5577,0.0,0.0,0.0,0.0,0.0,0.0,0.0,0.0,0.0,0.0,0.0,0.0,0.0,0.0,0.0,0.0,0.0,0.0,0.0,0.0,0.0,6.2711,0.0,0.0,0.0,5.9987,5.8353,6.0161,6.0989,6.0889,6.0889,6.0889,6.0889,6.0889,6.0939,6.104,6.104,6.1366,6.1818,6.1366,6.1466,6.1868,6.1868,6.1793,6.1667,0.0,0.0,0.0,0.0,0.0,0.0,0.0,5.6667,5.7141,5.5923,5.7358,5.8154,5.7434,5.8378,5.9081,5.9119,6.0202,6.0926,6.0926,6.1145,6.1196,6.0888,6.1566,0.0,5.9949,5.9994,5.6216,4.836,0.0,0.0,3.4994,3.3641,3.3133,3.3462,3.6421,4.1076,4.6998,0.0,0.0,5.7625,5.9307,6.0136,6.0387,6.0663,6.0412,5.9935,6.0261,5.9659,5.8742,5.9031,5.8956,5.8767,5.9332,5.9483,5.9483,5.9483,5.9483,5.9483,5.9483,5.9483,5.9483,5.9483,5.9684,5.9885,5.9885,6.0337,6.0738,6.0738,6.0964,5.9873,5.5426,4.9615,0.0,0.0,0.0,0.0,0.0,0.0,0.0,0.0,0.0,0.0,0.0,0.0,0.0,0.0,0.0,0.0,0.0,0.0,0.0,0.0,0.0,0.0,0.0,0.0,0.0,6.0035,6.1115,6.1466,6.119,6.119,6.119,6.119,6.119,6.1341,6.1642,6.1918,6.2195,6.2395,6.2144,6.2195,6.238,6.238,6.238,6.2395,0.0,4.8788,0.0,0.0,5.3786,5.4935,5.6625,5.8377,5.8755,5.6696,5.7159,5.7215,5.5937,5.765,5.888,5.8855,5.9257,5.9483,5.9483,5.991,6.001,5.9684,6.0912,6.1206,6.0311,6.1259,5.782,0.0,0.0,0.0,0.0,3.4455,3.4037,3.4997,3.9855,0.0,0.0,0.0,5.7198,5.8905,6.0537,6.1266,6.1366,6.1366,6.0814,6.0161,6.1165,6.1165,6.0613,6.0186,5.9608,5.9068,5.9408,5.9483,5.9483,5.9483,5.9483,5.9483,5.9483,5.9483,5.9483,5.9483,5.9483,5.9483,5.9483,5.9834,6.0136,6.0136,6.0688,5.9873,5.5426,5.1925,0.0,0.0,0.0,0.0,0.0,0.0,0.0,0.0,0.0,0.0,0.0,0.0,0.0,0.0,0.0,0.0,0.0,0.0,0.0,0.0,0.0,5.9097,6.1391,0.0,5.9407,6.1316,6.1893,6.1943,6.1542,6.1542,6.1542,6.1542,6.1542,6.1768,6.222,6.2647,6.2781,6.2781,6.2781,6.2781,6.2781,6.2781,6.2781,6.2781,0.0,0.0,0.0,0.0,0.0,5.5395,5.777,5.8925,5.9583,5.9834,5.9121,5.8882,5.9684,5.9558,5.9433,5.9433,5.9458,5.9483,5.9483,5.9533,5.9784,6.0211,5.9461,5.9449,6.0286,5.9953,5.7384,0.0,0.0,4.4209,0.0,3.4855,3.5791,4.0631,0.0,0.0,0.0,5.5742,5.8303,6.1592,6.1291,6.1492,6.1943,6.1943,6.1868,6.1843,6.2446,6.232,6.1843,6.1793,6.1065,6.0046,5.9633,5.9483,5.9483,5.9483,5.9483,5.9483,5.9483,5.9483,5.9483,5.9483,5.9483,5.9483,5.9483,5.9533,5.9558,5.9558,6.0437,5.9873,5.5426,5.6646,5.6194,0.0,0.0,0.0,0.0,0.0,0.0,0.0,0.0,0.0,0.0,0.0,0.0,0.0,0.0,0.0,0.0,0.0,0.0,5.8027,0.0,5.7099,5.3924,6.0004,6.1707,5.9056,6.1527,6.2681,6.2631,6.2631,6.2631,6.2631,6.2631,6.2656,6.2706,6.2756,6.2781,6.2781,6.2781,6.2781,6.2781,6.2781,6.2781,6.2781,0.0,0.0,0.0,0.0,0.0,0.0,0.0,6.0298,6.0588,6.0814,5.9885,5.9357,5.9784,5.9633,5.9633,5.996,5.9684,5.9784,6.0462,5.9885,5.9734,6.0286,5.991,5.9846,6.0311,6.0437,5.8504,0.0,0.0,0.0,0.0,3.8919,4.0802,4.5949,0.0,5.3055,5.6545,5.9068,6.105,6.243,6.227,6.2094,6.2044,6.237,6.2295,6.2069,6.2581,6.2656,6.2446,6.2119,6.1492,6.0738,6.0161,5.9985,5.9935,5.9583,5.9483,5.9483,5.9483,5.9483,5.9483,5.9483,5.9483,5.9483,5.9483,5.9483,5.9483,5.9483,6.0111,6.0236,5.8843,5.7486,5.6696,0.0,0.0,0.0,0.0,0.0,0.0,0.0,0.0,0.0,0.0,0.0,0.0,0.0,0.0,0.0,0.0,0.0,0.0,5.1485,0.0,5.9395,5.4623,6.0642,6.2847,6.115,6.2255,6.2781,6.2781,6.2781,6.2781,6.2781,6.2781,6.2781,6.2781,6.2781,6.2781,6.2781,6.2781,6.2781,6.2781,6.2781,6.2781,6.2781,5.6711,0.0,5.6219,0.0,5.8727,5.8328,6.1014,6.1291,6.119,6.119,6.0487,5.9985,5.9985,5.9985,6.0136,6.0537,6.0211,6.0261,6.0889,6.0186,5.991,6.0272,6.0161,0.0,6.0563,6.0964,5.9834,5.7097,5.298,0.0,0.0,4.4389,4.6326,0.0,5.4411,5.6947,5.8892,6.1627,6.2781,6.2781,6.2781,6.2556,6.2295,6.2631,6.2556,6.2295,6.2656,6.2781,6.2731,6.237,6.1994,6.1542,6.0814,6.0563,6.0487,6.0111,5.9859,5.9734,5.9734,5.9608,5.9483,5.9483,5.9483,5.9483,5.9483,5.9483,5.9483,5.9483,5.9935,6.0487,6.109,5.8793,5.765,6.0398,0.0,0.0,0.0,0.0,0.0,0.0,0.0,0.0,0.0,0.0,0.0,0.0,0.0,0.0,0.0,0.0,0.0,0.0,0.0,0.0,0.0,6.1135,6.34,6.2781,6.2781,6.2781,6.2781,6.2781,6.2781,6.2781,6.2781,6.2781,6.2781,6.2781,6.2781,6.2781,6.2781,6.2781,6.2781,6.2781,6.2781,6.2781,5.8165,5.775,5.8202,6.2069,6.1366,6.0663,6.1818,6.1542,6.119,6.119,6.1165,6.1165,6.1165,6.1165,6.1165,6.1165,6.1165,6.0914,6.0362,6.0311,6.0311,0.0,0.0,6.0035,6.114,6.119,6.1205,6.1115,0.0,0.0,5.4371,5.1046,5.1875,5.6143,5.6709,5.9118,6.2731,6.2781,6.2781,6.2781,6.2781,6.2781,6.2781,6.2781,6.2781,6.2781,6.2781,6.2781,6.2781,6.2781,6.2781,6.2581,6.1517,6.1165,6.1165,6.1165,6.0763,6.0311,6.0311,5.991,5.9483,5.9483,5.9483,5.9483,5.9483,5.9483,5.9483,5.9483,5.9935,6.0487,6.109,6.1592,6.0688,5.6897,0.0,0.0,0.0,0.0,0.0,0.0,0.0,4.7952,5.6157,0.0,0.0,0.0,0.0,0.0,0.0,0.0,0.0,5.7612,5.8428,0.0,5.701,6.1466,6.34,6.2781,6.2781,6.2781,6.2781,6.2781,6.2781,6.2781,6.2781,6.2781,6.2781,6.2781,6.2781,6.2781,6.2781,6.2781,6.2781,6.2781,6.2781,6.2781,6.0864,6.0663,6.0814,6.2044,6.1818,6.1718,6.2405,6.2094,6.2019,6.2797,6.222,6.2044,6.2822,6.1868,6.1492,0.0,6.1617,6.1416,0.0,6.1316,6.109,6.1441,6.1291,6.119,6.119,6.1918,6.2119,6.1743,0.0,0.0,0.0,5.5566,5.7424,6.1341,6.1868,6.2596,6.3425,6.3425,6.3199,6.2781,6.2781,6.2781,6.2781,6.2781,6.2781,6.2781,6.2781,6.2781,6.2781,6.2781,6.2781,6.2731,6.2421,6.2044,6.1667,6.1291,6.104,6.0814,6.0412,6.0186,5.996,5.9583,5.9483,5.9483,5.9483,5.9483,5.9483,5.9483,5.9633,5.9935,6.0487,6.1065,6.1165,6.0311,6.1994,0.0,0.0,0.0,0.0,0.0,0.0,5.3733,0.0,5.1122,0.0,0.0,0.0,0.0,0.0,0.0,0.0,0.0,5.7759,0.0,5.5553,6.0562,6.2998,6.2781,6.2781,6.2781,6.2781,6.2781,6.2781,6.2781,6.2781,6.2781,6.2781,6.2781,6.2781,6.2781,6.2781,6.2781,6.2781,6.2781,6.2781,6.2781,6.2395,6.232,6.237,6.2596,6.2647,6.2822,6.3375,6.3149,6.3174,6.3902,6.3375,6.3274,6.4178,6.3174,0.0,6.2756,6.2195,6.1994,6.2496,6.1868,6.1542,6.1692,6.1692,6.1642,6.1492,6.2169,0.0,6.2647,6.0738,5.9834,5.9834,6.0186,6.1667,6.4044,6.4371,6.432,6.3977,6.3776,6.3475,6.3124,6.2882,6.2781,6.2781,6.2781,6.2781,6.2781,6.2781,6.2781,6.2781,6.2781,6.2781,6.2781,6.2781,6.2556,6.2245,6.1893,6.1642,6.1466,6.1316,6.0964,6.0613,6.0462,6.0111,5.9759,5.9533,5.9483,5.9483,5.9483,5.9483,5.9659,6.0211,6.0613,6.104,6.1617,6.2471,6.2722,6.1718,0.0,0.0,0.0,0.0,0.0,0.0,5.4587,0.0,0.0,0.0,0.0,0.0,0.0,0.0,5.3507,5.9765,0.0,5.7814,6.115,6.2781,6.2781,6.2781,6.2781,6.2781,6.2781,6.2781,6.2781,6.2781,6.2781,6.2781,6.2781,6.2781,6.2781,6.2781,6.2781,6.2781,6.2781,6.2781,6.2781,6.2781,6.2781,6.2998,6.3576,6.3701,6.3877,6.4421,6.4496,6.4521,6.4547,6.4521,6.4722,6.5233,6.4848,6.4053,6.2932,0.0,0.0,6.2094,6.2069,6.1843,6.1316,6.1291,6.1542,6.2044,6.2069,6.2571,6.3626,6.417,6.4421,6.4446,6.4446,6.4496,6.4572,6.4572,6.4572,6.4521,6.4002,6.3776,6.3701,6.3124,6.2857,6.2832,6.2807,6.2781,6.2781,6.2781,6.2781,6.2781,6.2781,6.2781,6.2781,6.2781,6.2781,6.2781,6.2781,6.2471,6.2169,6.2606,6.2019,6.1366,6.1843,6.1165,6.0236,5.9684,5.9558,5.9533,5.9508,5.9483,5.9659,6.0161,6.0247,6.0487,6.104,6.1517,6.1291,5.9709,6.0337,0.0,0.0,0.0,0.0,0.0,5.6746,5.9207,0.0,0.0,0.0,0.0,0.0,5.3708,6.34,6.3651,6.3375,6.2807,6.2781,6.2781,6.2781,6.2781,6.2781,6.2781,6.2781,6.2781,6.2781,6.2781,6.2781,6.2781,6.2781,6.2781,6.2781,6.2781,6.2781,6.2781,6.2781,6.2781,6.2781,0.0,0.0,6.2998,6.3576,6.3701,6.3877,6.4421,6.4496,6.4647,6.5032,6.4773,6.4722,6.5233,6.4848,6.4245,6.355,6.3475,6.3249,6.2631,6.2581,6.2531,6.2446,6.2446,6.2496,6.2581,6.2581,6.2731,6.2982,6.3149,6.345,6.3877,6.3877,6.4304,6.5082,6.5082,6.5082,6.5082,6.4957,6.4655,6.427,6.3701,6.3475,6.345,6.2998,6.2781,6.2781,6.2781,6.2781,6.2781,6.2781,6.2781,6.2781,6.2781,6.2781,6.2781,6.2781,6.2706,6.2531,6.227,6.2019,6.1743,6.1441,6.119,6.0839,6.0261,6.0111,6.001,5.9583,5.9483,5.9533,5.9659,6.0035,6.0362,6.0512,6.0286,5.9935,5.9558,5.9031,5.8202,0.0,5.6821,5.7675,5.9633,6.0437,6.0261,0.0,0.0,0.0,0.0,5.6093,5.7298,6.35,6.3249,6.2932,6.2781,6.2781,6.2781,6.2781,6.2781,6.2781,6.2781,6.2781,6.2781,6.2781,6.2781,6.2781,6.2781,6.2781,6.2781,6.2781,6.2781,6.2781,6.2781,6.2781,6.2781,6.2781,6.2832,6.3007,6.34,6.3952,6.4254,6.4605,6.5132,6.5208,6.5333,6.5634,6.5409,6.5333,6.5634,6.5409,6.5007,6.4479,6.3977,6.345,6.2832,6.2781,6.2781,6.2781,6.2781,6.2781,6.2781,6.2781,6.2948,6.3224,6.345,6.3726,6.4094,6.4094,6.4479,6.5283,6.5283,6.5434,6.566,6.5383,6.5107,6.4848,6.4254,6.4094,6.3977,6.3425,6.3224,6.3199,6.2882,6.2781,6.2781,6.2781,6.2781,6.2781,6.2781,6.2781,6.2781,6.2781,6.2781,6.2781,6.2797,6.2596,6.2245,6.1692,6.1567,6.1341,6.0512,6.0311,6.0161,5.9608,5.9483,5.9483,5.9483,5.9734,6.001,6.0286,5.9659,5.9232,5.9458,5.8579,5.8177,5.8905,5.9006,5.9784,6.1743,6.2446,6.2019,6.0211,6.0588,0.0,6.0111,5.9809,6.0889,6.3601,6.3124,6.2781,6.2781,6.2781,6.2781,6.2781,6.2781,6.2781,6.2781,6.2781,6.2781,6.2781,6.2781,6.2781,6.2781,6.2781,6.2781,6.2781,6.2781,6.2781,6.2659,6.1598,6.1201,6.1201,6.3258,6.3601,6.4078,6.4547,6.5024,6.5484,6.6036,6.6112,6.6112,6.6112,6.6112,6.6112,6.6112,6.6112,6.5886,6.5333,6.4454,6.3651,6.2957,6.2832,6.2781,6.2781,6.2781,6.2781,6.2781,6.2781,6.3073,6.355,6.4002,6.4295,6.4396,6.4396,6.4722,6.5283,6.5283,6.5584,6.6086,6.5609,6.5409,6.5358,6.4848,6.4622,6.4572,6.4002,6.3751,6.3626,6.3149,6.2857,6.2781,6.2781,6.2781,6.2781,6.2781,6.2781,6.2781,6.2781,6.2781,6.2882,6.3425,6.3199,6.2681,6.2245,6.2069,6.1743,6.0688,6.0387,6.0161,5.9608,5.9483,5.9483,5.9483,5.9558,5.9583,5.9458,5.8867,5.8504,5.8604,5.8202,5.8504,6.0136,6.0498,6.1266,6.2656,6.335,6.3701,6.3701,6.4145,6.4195,6.3726,6.3601,6.3601,6.3701,6.3124,6.2781,6.2781,6.2781,6.2781,6.2781,6.2781,6.2781,6.2781,6.2781,6.2781,6.2781,6.2781,6.2781,6.2781,6.2781,6.2618,6.2265,6.2265,6.2035,6.1515,5.9541,5.9011,5.9264,6.5007,6.4982,6.5057,6.5157,6.5233,6.5484,6.6036,6.6112,6.6112,6.6112,6.6112,6.6112,6.6112,6.6112,6.5886,6.5333,6.5132,6.463,6.3626,6.3099,6.2781,6.2781,6.2781,6.2781,6.2781,6.2781,6.2832,6.2932,6.3007,6.3324,6.3802,6.3802,6.4329,6.5283,6.5283,6.5584,6.6112,6.6011,6.5986,6.5936,6.5383,6.5157,6.5107,6.4597,6.4078,6.3676,6.3576,6.3249,6.2781,6.2781,6.2781,6.2781,6.2781,6.2781,6.2781,6.2781,6.2781,6.2807,6.2907,6.2857,6.2781,6.2681,6.2345,6.1843,6.119,6.0663,6.0161,5.9608,5.9483,5.9483,5.9483,5.9885,5.9156,5.6004,5.6495,5.6634,5.4863,5.6495,5.8504,6.0136,6.1527,6.2505,6.2756,6.335,6.3701,6.3701,6.3776,6.3776,6.3701,6.3224,6.3174,6.3676,6.3124,6.2781,6.2781,6.2781,6.2781,6.2781,6.2781,6.2781,6.2781,6.2781,6.2781,6.2781,6.2781,6.2781,6.2781,6.2781,6.1639,5.9835,5.9835,5.8672,5.6919,5.6573,5.7649,5.9011,6.5835,6.5735,6.5735,6.5735,6.5735,6.581,6.6061,6.6112,6.6112,6.6112,6.6112,6.6112,6.6112,6.6112,6.6011,6.576,6.5459,6.5082,6.458,6.3751,6.3299,6.3299,6.2957,6.2781,6.2781,6.3124,6.3299,6.3299,6.3299,6.3425,6.3701,6.3701,6.4103,6.4856,6.5157,6.5584,6.6112,6.6112,6.6112,6.6086,6.5835,6.5735,6.5634,6.4823,6.4371,6.4028,6.345,6.3048,6.2832,6.3199,6.3099,6.2832,6.3199,6.3073,6.2857,6.3199,6.3299,6.3224,6.2882,6.3048,6.3224,6.2857,6.2606,6.222,6.1391,6.0964,6.0537,5.9684,5.9483,5.9483,5.9483,5.996,5.9558,5.7198,5.7675,5.8102,5.7374,5.8378,5.9809,6.1426,6.233,6.2781,6.2781,6.3073,6.3224,6.3224,6.3224,6.3224,6.3224,6.2932,6.3099,6.3676,6.3425,6.3149,6.2781,6.3149,6.3299,6.3299,6.3576,6.355,6.3299,6.3299,6.3124,6.2781,6.2781,6.2781,6.2781,6.2781,6.2158,6.1201,6.1201,6.0553,5.9481,5.8205,5.7583,5.7455,6.6815,6.6689,6.6664,6.6538,6.6513,6.6463,6.6338,6.6413,6.6463,6.6338,6.6438,6.6513,6.6513,6.6513,6.6438,6.6338,6.6036,6.571,6.5308,6.463,6.4153,6.3877,6.345,6.3199,6.3199,6.3651,6.3877,6.3877,6.3877,6.3802,6.3701,6.3952,6.4203,6.4547,6.5183,6.571,6.6112,6.6112,6.6112,6.6112,6.6112,6.6112,6.6011,6.5183,6.4823,6.4572,6.355,6.3199,6.3249,6.3576,6.3475,6.3299,6.3726,6.3475,6.3124,6.355,6.3776,6.3776,6.3324,6.3525,6.3776,6.3324,6.3124,6.2797,6.1969,6.1567,6.114,6.0261,5.9985,5.9834,5.9709,6.0261,6.0111,5.8252,5.893,5.9659,5.9519,6.001,6.09,6.2581,6.2781,6.2781,6.2781,6.2781,6.2781,6.2781,6.2781,6.2781,6.2781,6.2781,6.3099,6.3676,6.3802,6.3651,6.3224,6.3651,6.3877,6.3877,6.432,6.4295,6.3877,6.3751,6.345,6.3023,6.2857,6.2857,6.3023,6.2832,6.2545,6.2167,6.2043,6.1639,6.091,5.8545,5.6896,5.5987,6.8503,6.8447,6.8271,6.7769,6.7668,6.7493,6.699,6.7342,6.7493,6.699,6.7367,6.7668,6.7668,6.7668,6.7467,6.6965,6.7342,6.6965,6.5383,6.5685,6.5484,6.4496,6.4421,6.4396,6.4396,6.4421,6.4446,6.4446,6.4446,6.422,6.3726,6.4705,6.4931,6.4547,6.5584,6.6061,6.6112,6.6112,6.6112,6.6112,6.6112,6.6112,6.6112,6.6011,6.5685,6.5157,6.4597,6.4396,6.432,6.3827,6.3977,6.4396,6.4446,6.4053,6.3626,6.3676,6.4028,6.4446,6.4396,6.4421,6.4446,6.4396,6.3977,6.3601,6.3525,6.2697,6.1918,6.1843,6.1416,6.0889,6.0362,6.114,6.0512,5.6319,5.8227,5.9519,5.7512,5.8992,6.09,6.2581,6.2781,6.2781,6.2781,6.2781,6.2781,6.2781,6.2781,6.2781,6.2781,6.2781,6.3099,6.3676,6.4195,6.4421,6.4396,6.4421,6.4446,6.4446,6.4496,6.4496,6.4421,6.3902,6.3676,6.3601,6.3007,6.3124,6.3576,6.3007,6.1852,6.0318,5.9774,5.829,5.614,5.3771,5.4169,5.5617,6.913,6.8804,6.8547,6.8346,6.802,6.7719,6.7518,6.7668,6.7719,6.7518,6.7668,6.7794,6.7794,6.7794,6.7719,6.7493,6.7668,6.7392,6.6413,6.6538,6.5986,6.4572,6.4848,6.4873,6.4521,6.4848,6.5024,6.5024,6.5024,6.4881,6.468,6.5107,6.5183,6.5007,6.5785,6.6112,6.6112,6.6112,6.6112,6.6112,6.6112,6.6112,6.6061,6.5735,6.5484,6.5208,6.4697,6.4496,6.4521,6.463,6.4622,6.4572,6.4923,6.4647,6.422,6.422,6.4597,6.5024,6.5024,6.5024,6.4949,6.4597,6.4371,6.4119,6.3776,6.3073,6.2421,6.2069,6.1567,6.1215,6.1341,6.1718,6.1215,5.883,6.0387,6.1176,5.9294,6.0649,6.2079,6.2706,6.2781,6.2781,6.2781,6.2781,6.2781,6.2781,6.2781,6.2781,6.2781,6.3475,6.4103,6.4655,6.5208,6.5157,6.4521,6.4848,6.5024,6.4982,6.5333,6.5308,6.4982,6.4781,6.4329,6.3676,6.345,6.3475,6.3676,6.345,6.3153,6.2686,6.0639,5.9337,5.8261,5.5488,5.4169,5.3992,6.9406,6.9105,6.8829,6.8829,6.8572,6.8271,6.8095,6.8196,6.8246,6.807,6.8221,6.8321,6.8321,6.8321,6.8246,6.807,6.8045,6.7744,6.7059,6.6815,6.6187,6.5032,6.5333,6.5383,6.4982,6.5358,6.5534,6.5534,6.5735,6.5634,6.5308,6.5835,6.5785,6.5333,6.6061,6.6287,6.6112,6.6112,6.6112,6.6112,6.6112,6.6112,6.6061,6.5685,6.5534,6.5484,6.4931,6.4873,6.5007,6.5233,6.5157,6.5057,6.5434,6.5157,6.4722,6.4547,6.4898,6.5283,6.5283,6.5409,6.5459,6.5082,6.4982,6.4881,6.453,6.3877,6.3249,6.2847,6.2345,6.2044,6.222,6.2421,6.222,6.1226,6.2029,6.238,6.1226,6.2054,6.2781,6.2781,6.2781,6.2781,6.2781,6.2781,6.2781,6.2781,6.2781,6.2781,6.2781,6.3877,6.4672,6.5032,6.5735,6.576,6.4982,6.5358,6.5534,6.5559,6.5936,6.5911,6.5534,6.5383,6.4806,6.3927,6.3927,6.3927,6.3927,6.3927,6.4295,6.4462,6.1407,6.02,5.9745,5.6079,5.3726,5.2858,6.9406,6.9406,6.9406,6.9406,6.9406,6.9205,6.8678,6.9055,6.9205,6.8698,6.9055,6.9406,6.9406,6.9406,6.918,6.8628,6.8578,6.8145,6.7041,6.6438,6.6112,6.6112,6.6112,6.6112,6.6112,6.6112,6.6112,6.6112,6.6689,6.6413,6.5358,6.7015,6.6915,6.5358,6.6488,6.6664,6.6112,6.6112,6.6112,6.6112,6.6112,6.6112,6.6112,6.6112,6.6112,6.6036,6.5484,6.566,6.6036,6.5484,6.566,6.6112,6.6112,6.5735,6.5183,6.4672,6.4898,6.5283,6.5283,6.5685,6.6112,6.6112,6.6112,6.6112,6.6112,6.5258,6.4521,6.4521,6.4053,6.3525,6.2907,6.3324,6.35,6.2907,6.2807,6.2807,6.2807,6.2807,6.2807,6.2781,6.2781,6.2781,6.2781,6.2781,6.2781,6.2781,6.2781,6.2807,6.2807,6.3877,6.4521,6.4521,6.5534,6.6112,6.6112,6.6112,6.6112,6.6112,6.6112,6.6112,6.6086,6.5534,6.4982,6.4521,6.4521,6.4521,6.4521,6.4479,6.4781,6.4945,6.151,6.0158,5.953,5.4298,5.2387,5.2387,6.9406,6.9406,6.9406,6.9406,6.9406,6.9356,6.918,6.9306,6.9331,6.918,6.9306,6.9406,6.9406,6.9406,6.9331,6.918,6.8804,6.8145,6.7041,6.6438,6.6112,6.6112,6.6112,6.6112,6.6112,6.6112,6.6312,6.6714,6.689,6.7015,6.7066,6.7568,6.7543,6.7066,6.7392,6.7241,6.6714,6.6714,6.6488,6.6112,6.6112,6.6112,6.6112,6.6112,6.6112,6.6086,6.5936,6.5961,6.6086,6.5936,6.5986,6.6112,6.6112,6.5735,6.5183,6.4672,6.4898,6.5132,6.4379,6.5132,6.6112,6.6112,6.6112,6.6112,6.6112,6.5559,6.5032,6.5032,6.4647,6.4346,6.453,6.4379,6.4346,6.453,6.4228,6.3852,6.3475,6.3425,6.3274,6.2832,6.2781,6.2781,6.2781,6.2781,6.2781,6.2781,6.3199,6.3601,6.3952,6.4655,6.5233,6.5609,6.5936,6.6112,6.6112,6.6112,6.6112,6.6112,6.6112,6.6112,6.6112,6.5936,6.5559,6.5032,6.5032,6.5032,6.4905,6.3185,6.2611,6.2379,5.7581,5.555,5.4865,5.1264,4.9957,5.0185,6.9406,6.9406,6.9406,6.9406,6.9406,6.9406,6.9406,6.9406,6.9406,6.9406,6.9406,6.9406,6.9406,6.9406,6.9406,6.9406,6.8748,6.802,6.7342,6.6764,6.6538,6.6764,6.6564,6.6338,6.6112,6.6338,6.6614,6.7009,6.7191,6.7467,6.7819,6.8246,6.8221,6.7819,6.802,6.7819,6.7317,6.7317,6.7091,6.6764,6.6538,6.6463,6.6438,6.6187,6.6112,6.6112,6.6112,6.6112,6.6112,6.6112,6.6112,6.6112,6.6112,6.5886,6.5559,6.5208,6.5208,6.5157,6.4505,6.5032,6.5785,6.5785,6.5936,6.6112,6.6112,6.5685,6.5283,6.5283,6.5032,6.4949,6.5233,6.5032,6.4906,6.5233,6.4873,6.432,6.3776,6.3701,6.3475,6.2857,6.2781,6.2781,6.2781,6.2781,6.2882,6.3149,6.35,6.3927,6.4471,6.4982,6.5434,6.5785,6.5986,6.6112,6.6112,6.6112,6.6112,6.6112,6.6112,6.6112,6.6112,6.6112,6.581,6.5308,6.5509,6.5484,6.5223,6.3933,6.2775,6.135,5.6976,5.4439,5.2971,5.1011,5.0276,5.0621,6.9406,6.9406,6.9406,6.9406,6.9406,6.9406,6.9406,6.9406,6.9406,6.9406,6.9406,6.9406,6.9406,6.9406,6.9406,6.9406,6.8472,6.7844,6.7794,6.7317,6.7267,6.7719,6.7292,6.6764,6.6137,6.6639,6.6959,6.7009,6.7518,6.7819,6.7894,6.8904,6.8854,6.797,6.8472,6.8396,6.7869,6.7869,6.7844,6.7744,6.7191,6.7009,6.6915,6.6338,6.6112,6.6112,6.6112,6.6112,6.6112,6.6112,6.6112,6.6112,6.6112,6.6112,6.6112,6.6061,6.571,6.5333,6.5233,6.5333,6.5409,6.5308,6.5735,6.6187,6.6112,6.5735,6.5358,6.5358,6.5358,6.5358,6.5358,6.5358,6.5358,6.5358,6.4931,6.4471,6.3902,6.3802,6.355,6.2932,6.2832,6.2781,6.2781,6.2781,6.3073,6.3651,6.3726,6.4002,6.4547,6.5057,6.5358,6.5358,6.586,6.6112,6.6112,6.6112,6.6112,6.6112,6.6112,6.6112,6.6112,6.6112,6.5835,6.5383,6.5886,6.5835,6.5409,6.5671,6.4067,6.1103,5.8295,5.539,5.2772,5.2489,5.2431,5.2768,6.9406,6.9406,6.9406,6.9406,6.9406,6.9406,6.9406,6.9406,6.9406,6.9406,6.9406,6.9406,6.9406,6.9406,6.9406,6.9406,6.8779,6.8271,6.7819,6.7693,6.7467,6.7166,6.7442,6.7141,6.6137,6.6237,6.6513,6.7009,6.7518,6.802,6.8447,6.908,6.928,6.9055,6.9155,6.8904,6.8447,6.8447,6.8196,6.7744,6.7191,6.7009,6.6915,6.6338,6.6112,6.6112,6.6112,6.6112,6.6112,6.6112,6.6112,6.6112,6.6112,6.6112,6.6036,6.5584,6.5685,6.5735,6.4923,6.5652,6.6431,6.5509,6.6036,6.6664,6.6212,6.6011,6.5936,6.5936,6.5936,6.5936,6.5936,6.5936,6.5936,6.5936,6.5835,6.5559,6.5032,6.458,6.4103,6.3576,6.3099,6.2781,6.2781,6.2781,6.3073,6.3651,6.4078,6.4572,6.5082,6.5634,6.5936,6.5936,6.6036,6.6112,6.6112,6.6112,6.6112,6.6112,6.6112,6.6112,6.6112,6.6112,6.6036,6.5936,6.6061,6.6036,6.5807,6.4012,6.1369,5.8184,5.5602,5.2653,5.0051,5.1754,5.2431,5.2992,6.9406,6.9406,6.9406,6.9406,6.9406,6.9406,6.9406,6.9406,6.9406,6.9406,6.9406,6.9406,6.9406,6.9406,6.9406,6.9406,6.8698,6.8221,6.8196,6.7693,6.7392,6.7367,6.7643,6.7518,6.694,6.6915,6.694,6.7009,6.7518,6.807,6.8622,6.9155,6.9406,6.9406,6.9406,6.923,6.8979,6.8979,6.8804,6.8547,6.797,6.7593,6.7317,6.6739,6.6363,6.6112,6.6112,6.6112,6.6112,6.6112,6.6112,6.6112,6.6112,6.6112,6.6061,6.576,6.571,6.5584,6.5007,6.5685,6.6413,6.5835,6.6338,6.6815,6.6237,6.6112,6.6112,6.6112,6.6112,6.6112,6.6112,6.6112,6.6112,6.6112,6.6112,6.5911,6.5358,6.5032,6.4622,6.3776,6.3425,6.3124,6.2807,6.2781,6.3174,6.4002,6.4346,6.4873,6.5634,6.5961,6.6112,6.6112,6.6112,6.6112,6.6112,6.6112,6.6112,6.6112,6.6112,6.6112,6.6112,6.6112,6.6112,6.6112,6.6112,6.6112,6.594,6.351,6.1351,5.9298,5.655,5.4289,5.2885,5.4917,5.6421,5.7735,6.9406,6.9406,6.9406,6.9406,6.9406,6.9406,6.9406,6.9406,6.9406,6.9406,6.9406,6.9406,6.9406,6.9406,6.9406,6.9406,6.8522,6.817,6.8678,6.7819,6.7467,6.7919,6.7945,6.7894,6.7794,6.7794,6.7568,6.716,6.7668,6.817,6.8622,6.9155,6.9406,6.9406,6.9406,6.9406,6.9406,6.9406,6.9406,6.9356,6.8804,6.8346,6.7869,6.7216,6.6664,6.6237,6.6137,6.6112,6.6112,6.6112,6.6112,6.6112,6.6112,6.6112,6.6112,6.6112,6.5785,6.5459,6.5559,6.5986,6.6388,6.6287,6.6689,6.694,6.6262,6.6112,6.6112,6.6112,6.6112,6.6112,6.6112,6.6112,6.6112,6.6112,6.6112,6.5961,6.5484,6.5358,6.4931,6.3927,6.3651,6.3425,6.3149,6.2907,6.3274,6.4421,6.4496,6.4906,6.5911,6.6061,6.6112,6.6112,6.6112,6.6112,6.6112,6.6112,6.6112,6.6112,6.6112,6.6112,6.6112,6.6112,6.6112,6.6112,6.6112,6.6112,6.594,6.3929,6.2625,6.1549,5.8962,5.742,5.6902,5.8667,6.0803,6.2781,6.9406,6.9406,6.9406,6.9406,6.9406,6.9406,6.9406,6.9406,6.9406,6.9406,6.9406,6.9406,6.9406,6.9406,6.9406,6.9406,6.8829,6.8703,6.9255,6.8703,6.8447,6.8497,6.8497,6.8296,6.7819,6.7794,6.7769,6.7693,6.8246,6.8547,6.8622,6.9155,6.9406,6.9406,6.9406,6.9406,6.9406,6.9406,6.9406,6.9356,6.8804,6.8572,6.8396,6.7367,6.6959,6.6789,6.6287,6.6112,6.6112,6.6112,6.6112,6.6112,6.6112,6.6112,6.6112,6.6112,6.6061,6.6112,6.6614,6.7141,6.7467,6.6965,6.7267,6.7417,6.6363,6.6112,6.6112,6.6112,6.6112,6.6112,6.6112,6.6112,6.6112,6.6112,6.6112,6.6086,6.6011,6.5584,6.5057,6.4471,6.3525,6.3299,6.4195,6.34,6.3274,6.4421,6.4496,6.4773,6.5358,6.586,6.6112,6.6112,6.6112,6.6112,6.6112,6.6112,6.6112,6.6112,6.6112,6.6112,6.6112,6.6112,6.6112,6.6112,6.6112,6.6112,6.6069,6.5742,6.4116,6.1725,6.0829,5.8915,5.6902,5.8667,6.0803,6.2781,6.9406,6.9406,6.9406,6.9406,6.9406,6.9406,6.9406,6.9406,6.9406,6.9406,6.9406,6.9406,6.9406,6.9406,6.9406,6.9406,6.8904,6.8678,6.8929,6.8472,6.817,6.817,6.8447,6.8497,6.8271,6.8528,6.8678,6.8678,6.8603,6.8578,6.8622,6.9155,6.9406,6.9406,6.9406,6.9406,6.9406,6.9406,6.9406,6.9381,6.913,6.8854,6.8528,6.807,6.7693,6.7367,6.6789,6.6388,6.6112,6.6112,6.6112,6.6112,6.6112,6.6112,6.6112,6.6112,6.6112,6.6237,6.6815,6.7367,6.7744,6.7493,6.7618,6.7593,6.6789,6.6338,6.6112,6.6112,6.6112,6.6112,6.6112,6.6112,6.6112,6.6112,6.6112,6.6112,6.6112,6.5911,6.5534,6.4982,6.4228,6.3827,6.4028,6.3601,6.3626,6.4446,6.4496,6.4831,6.571,6.5986,6.6112,6.6112,6.6112,6.6112,6.6112,6.6112,6.6112,6.6112,6.6112,6.6112,6.6112,6.6112,6.6112,6.6112,6.6112,6.6112,6.5983,6.4653,6.4157,6.4018,6.2065,6.1068,6.0687,6.1105,6.1911,6.2781]},{"header":{"parameterUnit":"m.s-1","parameterCategory":1,"la1":30.6,"la2":28.766,"lo1":-90.7593,"lo2":-88.6598,"dx":0.0162,"dy":0.0183,"nx":116,"ny":114,"refTime":"2022-11-18T18:00:00:Z","depth":0,"parameterNumber":3,"parameterNumberName":"V-component_of_WINDS"},"data":[0.0,0.0,0.0,0.0,0.0,0.0,0.0,0.0,0.0,0.0,0.0,0.0,0.0,0.0,0.0,0.0,0.0,0.0,0.0,0.0,0.0,0.0,0.0,0.0,0.0,0.0,0.0,0.0,0.0,0.0,0.0,0.0,0.0,0.0,0.0,0.0,0.0,0.0,0.0,0.0,0.0,0.0,0.0,0.0,0.0,0.0,0.0,0.0,0.0,0.0,0.0,0.0,0.0,0.0,0.0,0.0,0.0,0.0,0.0,0.0,0.0,0.0,0.0,0.0,0.0,0.0,0.0,0.0,0.0,0.0,0.0,0.0,0.0,0.0,0.0,0.0,0.0,0.0,0.0,0.0,0.0,0.0,0.0,0.0,0.0,0.0,0.0,0.0,0.0,0.0,0.0,0.0,0.0,0.0,0.0,0.0,0.0,0.0,0.0,0.0,0.0,0.0,0.0,0.0,0.0,0.0,0.0,0.0,0.0,0.0,0.0,0.0,0.0,0.0,0.0,0.0,0.0,0.0,0.0,0.0,0.0,0.0,0.0,0.0,0.0,0.0,0.0,0.0,0.0,0.0,0.0,0.0,0.0,0.0,0.0,0.0,0.0,0.0,0.0,0.0,0.0,0.0,0.0,0.0,0.0,0.0,0.0,0.0,0.0,0.0,0.0,0.0,0.0,0.0,0.0,0.0,0.0,0.0,0.0,0.0,0.0,0.0,0.0,0.0,0.0,0.0,0.0,0.0,0.0,0.0,0.0,0.0,0.0,0.0,0.0,0.0,0.0,0.0,0.0,0.0,0.0,0.0,0.0,0.0,0.0,0.0,0.0,0.0,0.0,0.0,0.0,0.0,0.0,0.0,0.0,0.0,0.0,0.0,0.0,0.0,0.0,0.0,0.0,0.0,0.0,0.0,0.0,0.0,0.0,0.0,0.0,0.0,0.0,0.0,0.0,0.0,0.0,0.0,0.0,0.0,0.0,0.0,0.0,0.0,0.0,0.0,0.0,0.0,0.0,0.0,0.0,0.0,0.0,0.0,0.0,0.0,0.0,0.0,0.0,0.0,0.0,0.0,0.0,0.0,0.0,0.0,0.0,0.0,0.0,0.0,0.0,0.0,0.0,0.0,0.0,0.0,0.0,0.0,0.0,0.0,0.0,0.0,0.0,0.0,0.0,0.0,0.0,0.0,0.0,0.0,0.0,0.0,0.0,0.0,0.0,0.0,0.0,0.0,0.0,0.0,0.0,0.0,0.0,0.0,0.0,0.0,0.0,0.0,0.0,0.0,0.0,0.0,0.0,0.0,0.0,0.0,0.0,0.0,0.0,0.0,0.0,0.0,0.0,0.0,0.0,0.0,0.0,0.0,0.0,0.0,0.0,0.0,0.0,0.0,0.0,0.0,0.0,0.0,0.0,0.0,0.0,0.0,0.0,0.0,0.0,0.0,0.0,0.0,0.0,0.0,0.0,0.0,0.0,0.0,0.0,0.0,0.0,0.0,0.0,0.0,0.0,0.0,0.0,0.0,0.0,0.0,0.0,0.0,0.0,0.0,0.0,0.0,0.0,0.0,0.0,0.0,0.0,0.0,0.0,0.0,0.0,0.0,0.0,0.0,0.0,0.0,0.0,0.0,0.0,0.0,0.0,0.0,0.0,0.0,0.0,0.0,0.0,0.0,0.0,0.0,0.0,0.0,0.0,0.0,0.0,0.0,0.0,0.0,0.0,0.0,0.0,0.0,0.0,0.0,0.0,0.0,0.0,0.0,0.0,0.0,0.0,0.0,0.0,0.0,0.0,0.0,0.0,0.0,0.0,0.0,0.0,0.0,0.0,0.0,0.0,0.0,0.0,0.0,0.0,0.0,0.0,0.0,0.0,0.0,0.0,0.0,0.0,0.0,0.0,0.0,0.0,0.0,0.0,0.0,0.0,0.0,0.0,0.0,0.0,0.0,0.0,0.0,0.0,0.0,0.0,0.0,0.0,0.0,0.0,0.0,0.0,0.0,0.0,0.0,0.0,0.0,0.0,0.0,0.0,0.0,0.0,0.0,0.0,0.0,0.0,0.0,0.0,0.0,0.0,0.0,0.0,0.0,0.0,0.0,0.0,0.0,0.0,0.0,0.0,0.0,0.0,0.0,0.0,0.0,0.0,0.0,0.0,0.0,0.0,0.0,0.0,0.0,0.0,0.0,0.0,0.0,0.0,0.0,0.0,0.0,0.0,0.0,0.0,0.0,0.0,0.0,0.0,0.0,0.0,0.0,0.0,0.0,0.0,0.0,0.0,0.0,0.0,0.0,0.0,0.0,0.0,0.0,0.0,0.0,0.0,0.0,0.0,0.0,0.0,0.0,0.0,0.0,0.0,0.0,0.0,0.0,0.0,0.0,0.0,0.0,0.0,0.0,0.0,0.0,0.0,0.0,0.0,0.0,0.0,0.0,0.0,0.0,0.0,0.0,0.0,0.0,0.0,0.0,0.0,0.0,0.0,0.0,0.0,0.0,0.0,0.0,0.0,0.0,0.0,0.0,0.0,0.0,0.0,0.0,0.0,0.0,0.0,0.0,0.0,0.0,0.0,0.0,0.0,0.0,0.0,0.0,0.0,0.0,0.0,0.0,0.0,0.0,0.0,0.0,0.0,0.0,0.0,0.0,0.0,0.0,0.0,0.0,0.0,0.0,0.0,0.0,0.0,0.0,0.0,0.0,0.0,0.0,0.0,0.0,0.0,0.0,0.0,0.0,0.0,0.0,0.0,0.0,0.0,0.0,0.0,0.0,0.0,0.0,0.0,0.0,0.0,0.0,0.0,0.0,0.0,0.0,0.0,0.0,0.0,0.0,0.0,0.0,0.0,0.0,0.0,0.0,0.0,0.0,0.0,0.0,0.0,0.0,0.0,0.0,0.0,0.0,0.0,0.0,0.0,0.0,0.0,0.0,0.0,0.0,0.0,0.0,0.0,0.0,0.0,0.0,0.0,0.0,0.0,0.0,0.0,0.0,0.0,0.0,0.0,0.0,0.0,0.0,0.0,0.0,0.0,0.0,0.0,0.0,0.0,0.0,0.0,0.0,0.0,0.0,0.0,0.0,0.0,0.0,0.0,0.0,0.0,0.0,0.0,0.0,0.0,0.0,0.0,0.0,0.0,0.0,0.0,0.0,0.0,0.0,0.0,0.0,0.0,0.0,0.0,0.0,0.0,0.0,0.0,0.0,0.0,0.0,0.0,0.0,0.0,0.0,0.0,0.0,0.0,0.0,0.0,0.0,0.0,0.0,0.0,0.0,0.0,0.0,0.0,0.0,0.0,0.0,0.0,0.0,0.0,0.0,0.0,0.0,0.0,0.0,0.0,0.0,0.0,0.0,0.0,0.0,0.0,0.0,0.0,0.0,0.0,0.0,0.0,0.0,0.0,0.0,0.0,0.0,0.0,0.0,0.0,0.0,0.0,0.0,0.0,0.0,0.0,0.0,0.0,0.0,0.0,0.0,0.0,0.0,0.0,0.0,0.0,0.0,0.0,0.0,0.0,0.0,0.0,0.0,0.0,0.0,0.0,0.0,0.0,0.0,0.0,0.0,0.0,0.0,0.0,0.0,0.0,0.0,0.0,0.0,0.0,0.0,0.0,0.0,0.0,0.0,0.0,0.0,0.0,0.0,0.0,0.0,0.0,0.0,0.0,0.0,0.0,0.0,0.0,0.0,0.0,0.0,0.0,0.0,0.0,0.0,0.0,0.0,0.0,0.0,0.0,0.0,0.0,0.0,0.0,0.0,0.0,0.0,0.0,0.0,0.0,0.0,0.0,0.0,0.0,0.0,0.0,0.0,0.0,0.0,0.0,0.0,0.0,0.0,0.0,0.0,0.0,0.0,0.0,0.0,0.0,0.0,0.0,0.0,0.0,0.0,0.0,0.0,0.0,0.0,0.0,0.0,0.0,0.0,0.0,0.0,0.0,0.0,0.0,0.0,0.0,0.0,0.0,0.0,0.0,0.0,0.0,0.0,0.0,0.0,0.0,0.0,0.0,0.0,0.0,0.0,0.0,0.0,0.0,0.0,0.0,0.0,0.0,0.0,0.0,0.0,0.0,0.0,0.0,0.0,0.0,0.0,0.0,0.0,0.0,0.0,0.0,0.0,0.0,0.0,0.0,0.0,0.0,0.0,0.0,0.0,0.0,0.0,0.0,0.0,0.0,0.0,0.0,0.0,0.0,0.0,0.0,0.0,0.0,0.0,0.0,0.0,0.0,0.0,0.0,0.0,0.0,0.0,0.0,0.0,0.0,0.0,0.0,0.0,0.0,0.0,0.0,0.0,0.0,0.0,0.0,0.0,0.0,0.0,0.0,0.0,0.0,0.0,0.0,0.0,0.0,0.0,0.0,0.0,0.0,0.0,0.0,0.0,0.0,0.0,0.0,0.0,0.0,0.0,0.0,0.0,0.0,0.0,0.0,0.0,0.0,0.0,0.0,0.0,0.0,0.0,0.0,0.0,0.0,0.0,0.0,0.0,0.0,0.0,0.0,0.0,0.0,0.0,0.0,0.0,0.0,0.0,0.0,0.0,0.0,0.0,0.0,0.0,0.0,0.0,0.0,0.0,0.0,0.0,0.0,0.0,0.0,0.0,0.0,0.0,0.0,0.0,0.0,0.0,0.0,0.0,0.0,0.0,0.0,0.0,0.0,0.0,0.0,0.0,0.0,0.0,0.0,0.0,0.0,0.0,0.0,0.0,0.0,0.0,0.0,0.0,0.0,0.0,0.0,0.0,0.0,0.0,0.0,0.0,0.0,0.0,0.0,0.0,0.0,0.0,0.0,0.0,0.0,0.0,0.0,0.0,0.0,0.0,0.0,0.0,0.0,0.0,0.0,0.0,0.0,0.0,0.0,0.0,0.0,0.0,0.0,0.0,0.0,0.0,0.0,0.0,0.0,0.0,0.0,0.0,0.0,0.0,0.0,0.0,0.0,0.0,0.0,0.0,0.0,0.0,0.0,0.0,0.0,0.0,0.0,0.0,0.0,0.0,0.0,0.0,0.0,0.0,0.0,0.0,0.0,0.0,0.0,0.0,0.0,0.0,0.0,0.0,0.0,0.0,0.0,0.0,0.0,0.0,0.0,0.0,0.0,0.0,0.0,0.0,0.0,0.0,0.0,0.0,0.0,0.0,0.0,0.0,0.0,0.0,0.0,0.0,0.0,0.0,0.0,0.0,0.0,0.0,0.0,0.0,0.0,0.0,0.0,0.0,0.0,0.0,0.0,0.0,0.0,0.0,0.0,0.0,0.0,0.0,0.0,0.0,0.0,0.0,0.0,0.0,0.0,0.0,0.0,0.0,0.0,0.0,0.0,0.0,0.0,0.0,0.0,0.0,0.0,0.0,0.0,0.0,0.0,0.0,0.0,0.0,0.0,0.0,0.0,0.0,0.0,0.0,0.0,0.0,0.0,0.0,0.0,0.0,0.0,0.0,0.0,0.0,0.0,0.0,0.0,0.0,0.0,0.0,0.0,0.0,0.0,0.0,0.0,0.0,0.0,0.0,0.0,0.0,0.0,0.0,0.0,0.0,0.0,0.0,0.0,0.0,0.0,0.0,0.0,0.0,0.0,0.0,0.0,0.0,0.0,0.0,0.0,0.0,0.0,0.0,0.0,0.0,0.0,0.0,0.0,0.0,0.0,0.0,0.0,0.0,0.0,0.0,0.0,0.0,0.0,0.0,0.0,0.0,0.0,0.0,0.0,0.0,0.0,0.0,0.0,0.0,0.0,0.0,0.0,0.0,0.0,0.0,0.0,0.0,0.0,0.0,0.0,0.0,0.0,0.0,0.0,0.0,0.0,0.0,0.0,0.0,0.0,0.0,0.0,0.0,0.0,0.0,0.0,0.0,0.0,0.0,0.0,0.0,0.0,0.0,0.0,0.0,0.0,0.0,0.0,0.0,0.0,0.0,0.0,0.0,0.0,0.0,0.0,0.0,0.0,0.0,0.0,0.0,0.0,0.0,0.0,0.0,0.0,0.0,0.0,0.0,0.0,0.0,0.0,0.0,0.0,0.0,0.0,0.0,0.0,0.0,0.0,0.0,0.0,0.0,0.0,0.0,0.0,0.0,0.0,0.0,0.0,0.0,2.3471,0.0,0.0,0.0,0.0,0.0,0.0,0.0,0.0,0.0,0.0,0.0,0.0,0.0,0.0,0.0,0.0,0.0,0.0,0.0,0.0,0.0,0.0,0.0,0.0,1.0281,1.0413,1.0703,1.0728,0.0,0.0,0.0,0.0,0.0,0.0,0.0,0.8658,0.823,0.8822,1.0423,1.1266,1.3624,1.7331,1.6116,1.4305,1.204,0.0,0.0,0.0,0.0,0.0,0.0,0.0,0.0,0.0,0.0,0.0,0.0,0.0,0.0,0.0,0.0,0.0,0.0,0.0,0.0,0.0,0.0,0.0,0.0,0.0,0.0,0.0,0.0,0.0,0.0,0.0,0.0,0.0,0.0,0.0,0.0,0.0,0.0,0.0,0.0,0.0,0.0,0.0,0.0,0.0,0.0,0.0,0.0,0.0,0.0,0.0,0.0,0.0,0.0,0.0,0.0,0.0,0.0,0.0,0.0,0.0,0.0,0.0,0.0,0.0,0.0,0.0,0.0,0.0,0.0,0.0,2.5778,0.0,0.0,0.0,0.0,0.0,0.0,0.0,0.0,0.0,0.0,0.0,0.0,0.0,0.0,0.0,0.0,0.0,0.0,0.0,0.0,0.0,0.9749,1.0758,1.0951,1.1292,1.1967,1.1934,1.1884,1.1884,1.1784,0.0,0.0,0.0,0.0,1.0201,0.9737,1.1024,1.4205,1.6221,1.9474,2.3788,2.4421,2.2336,0.0,0.0,0.0,0.0,0.0,0.0,0.0,0.0,0.0,0.0,0.0,0.0,0.0,0.0,0.0,0.0,0.0,0.0,0.0,0.0,0.0,0.0,0.0,0.0,0.0,0.0,0.0,0.0,0.0,0.0,0.0,0.0,0.0,0.0,0.0,0.0,0.0,0.0,0.0,0.0,0.0,0.0,0.0,0.0,0.0,0.0,0.0,0.0,0.0,0.0,0.0,0.0,0.0,0.0,0.0,0.0,0.0,0.0,0.0,0.0,0.0,0.0,0.0,0.0,0.0,3.2839,3.3545,3.4123,3.5353,3.6709,3.7939,3.4726,3.2943,3.2009,2.8391,0.0,0.0,0.0,0.0,0.0,0.0,0.0,0.0,0.0,0.0,0.0,0.0,0.0,0.0,0.0,0.0,0.0,0.0,0.0,1.0733,1.1407,1.1894,1.2605,1.3678,1.3283,1.3006,1.3006,1.2538,0.0,0.0,0.0,0.0,1.1382,1.1915,1.3751,1.6977,2.3344,2.698,2.8037,2.9594,2.9704,2.8413,2.3848,0.0,0.0,0.0,0.0,0.0,0.0,0.0,0.0,0.0,0.0,0.0,0.0,0.0,0.0,0.0,0.0,0.0,0.0,0.0,0.0,0.0,0.0,0.0,0.0,0.0,0.0,0.0,0.0,0.0,0.0,0.0,0.0,0.0,0.0,0.0,0.0,0.0,0.0,0.0,0.0,0.0,0.0,0.0,2.5737,2.4515,0.0,0.0,0.0,0.0,0.0,0.0,0.0,0.0,0.0,0.0,0.0,0.0,0.0,3.1366,3.2911,3.4653,3.6029,3.7061,3.9572,4.1054,4.1632,4.324,4.4342,4.497,4.4468,0.0,3.5552,3.3115,0.0,0.0,0.0,0.0,0.0,0.0,0.0,0.0,0.0,0.0,0.0,0.0,0.0,0.0,0.0,0.0,0.0,0.0,0.0,0.0,0.0,1.503,1.6942,1.9031,1.9816,1.9514,1.8025,1.7067,0.0,0.0,1.2195,1.2052,1.2052,1.4254,1.8871,2.5988,3.2045,3.5571,3.6688,3.7855,3.8023,3.7359,3.5216,3.0884,2.4949,2.1996,0.0,0.0,0.0,0.0,0.0,0.0,0.0,0.0,0.0,0.0,0.0,0.0,0.0,0.0,0.0,0.0,0.0,0.0,0.0,0.0,0.0,0.0,0.0,0.0,0.0,0.0,0.0,0.0,0.0,0.0,0.0,0.0,0.0,0.0,0.0,0.0,0.0,0.0,0.0,2.4824,2.6683,2.6264,2.5485,2.423,0.0,0.0,0.0,0.0,0.0,0.0,0.0,0.0,0.0,3.352,3.5479,3.7312,3.9019,4.0678,4.2032,4.3134,4.4669,4.5703,4.6306,4.7631,4.8385,4.8611,4.8611,4.6602,4.3039,3.8944,3.5655,3.2993,0.0,0.0,0.0,0.0,2.9528,2.9762,0.0,0.0,0.0,0.0,0.0,0.0,0.0,0.0,0.0,0.0,0.0,0.0,1.599,1.9301,2.2282,2.4486,2.6085,2.5803,2.3031,2.1359,1.8618,1.445,1.3475,1.3107,1.3249,1.8488,2.5553,3.4426,3.9461,4.2567,4.3787,4.4427,4.4371,4.376,4.3569,3.9014,3.1198,2.7815,2.5424,0.0,0.0,0.0,0.0,0.0,0.0,0.0,0.0,0.0,0.0,0.0,0.0,0.0,0.0,0.0,0.0,0.0,0.0,0.0,0.0,0.0,0.0,0.0,0.0,0.0,0.0,0.0,0.0,0.0,0.0,0.0,0.0,0.0,0.0,0.0,0.0,0.0,0.0,2.701,2.9013,2.8417,2.8618,2.7795,0.0,0.0,0.0,0.0,0.0,0.0,3.2445,3.5253,3.7588,3.9271,4.148,4.3288,4.4698,4.5924,4.7029,4.7952,4.836,4.8862,4.9471,5.0268,5.0569,5.0386,5.0386,4.9866,4.8642,4.379,4.0475,3.8266,3.6182,3.4951,3.4457,3.5132,3.5371,3.5714,0.0,0.0,0.0,0.0,0.0,0.0,0.0,0.0,0.0,0.0,0.0,1.8329,1.9434,2.4566,2.8131,2.8661,2.9891,2.9389,2.6448,2.3743,2.0731,1.7342,1.5638,1.5009,1.5517,2.5864,3.3906,3.9353,4.4003,4.6333,4.6445,4.6954,4.6926,4.6389,4.573,4.267,3.7795,3.6007,3.3294,2.9625,0.0,0.0,0.0,0.0,0.0,0.0,0.0,0.0,0.0,0.0,0.0,0.0,0.0,0.0,0.0,0.0,0.0,0.0,0.0,0.0,0.0,0.0,0.0,0.0,0.0,0.0,0.0,0.0,0.0,0.0,0.0,0.0,0.0,0.0,0.0,0.0,0.0,0.0,0.0,3.1633,3.3473,0.0,0.0,0.0,0.0,3.3244,3.4527,3.5932,3.7563,4.0777,4.3366,4.502,4.7235,4.8693,4.9264,4.9339,4.969,5.021,5.0268,5.0594,5.118,5.1222,5.0946,5.0386,5.0386,5.0092,4.9339,4.6426,4.3944,4.1758,4.0049,3.8718,3.7889,3.8993,3.942,3.9572,0.0,0.0,0.0,0.8412,0.879,0.9285,0.9748,1.0878,1.1862,1.2415,1.7785,2.1964,2.3097,2.9575,3.45,3.6134,3.7205,3.6609,3.3831,2.8905,2.5079,2.2844,1.9063,2.0219,2.7067,3.5208,4.1569,4.5993,4.9679,5.1495,5.1495,5.2113,5.185,5.0822,5.0618,4.8828,4.5683,4.1213,3.794,3.5305,3.0146,2.5697,0.0,0.0,0.0,0.0,0.0,0.0,0.0,0.0,0.0,0.0,0.0,0.0,0.0,0.0,0.0,0.0,0.0,0.0,0.0,0.0,0.0,0.0,0.0,0.0,0.0,0.0,0.0,0.0,0.0,0.0,0.0,0.0,0.0,0.0,0.0,0.0,0.0,3.573,3.7463,0.0,3.4622,3.5326,3.6408,3.7538,4.03,4.2359,4.3288,4.5824,4.7506,4.8109,4.8887,4.9565,5.0117,5.0117,5.0594,5.1498,5.1498,5.18,5.2352,5.2352,5.2192,5.1992,5.1649,5.1398,5.1071,4.9364,4.7782,4.6356,4.5347,4.4719,4.4418,4.4819,4.497,4.5095,0.0,0.0,0.0,0.9079,0.9246,0.9551,0.9982,1.1326,1.3111,1.5337,2.1142,2.6189,2.9117,3.562,4.0408,4.193,4.3173,4.2178,3.8158,3.308,2.8703,2.5278,2.3163,2.6727,3.6724,4.2497,4.7378,5.1409,5.3932,5.5179,5.5209,5.5628,5.5359,5.4516,5.4306,5.3354,5.1613,4.7154,4.3675,4.0773,3.5983,3.1305,2.6778,0.0,0.0,0.0,0.0,0.0,0.0,0.0,0.0,0.0,0.0,0.0,0.0,0.0,0.0,0.0,0.0,0.0,0.0,0.0,0.0,0.0,0.0,0.0,0.0,0.0,0.0,0.0,0.0,0.0,0.0,0.0,0.0,0.0,0.0,0.0,3.8617,3.8567,4.0727,4.1329,3.912,4.0426,4.1783,4.2685,4.5321,4.7029,4.7405,4.9717,5.1107,5.1279,5.1458,5.1739,5.2064,5.1546,5.1691,5.2653,5.2653,5.2929,5.3482,5.3246,5.3046,5.287,5.2352,5.2,5.1774,5.1021,5.0268,4.9547,4.856,4.8309,4.846,4.8259,4.8209,4.8234,0.0,0.0,1.0282,1.0266,0.9584,0.9473,1.0729,1.1521,1.4343,2.0947,2.5767,3.0952,3.731,4.2546,4.5621,4.5621,4.7251,4.5534,3.9065,3.5986,3.1371,2.4586,0.0,0.0,4.3537,4.7437,5.1305,5.5269,5.6555,5.7154,5.7154,5.7154,5.7154,5.7094,5.6521,5.5893,5.5149,5.3887,5.072,4.6122,4.1035,3.7329,3.4105,0.0,0.0,0.0,0.0,0.0,0.0,0.0,0.0,0.0,0.0,0.0,0.0,0.0,0.0,0.0,0.0,0.0,0.0,0.0,0.0,0.0,0.0,0.0,0.0,0.0,0.0,0.0,0.0,0.0,0.0,0.0,0.0,0.0,3.4801,3.9622,4.2286,4.0199,4.3263,4.5121,4.4041,4.5422,4.7085,4.8756,4.941,4.9769,4.9826,5.2444,5.4155,5.4705,5.5254,5.5512,5.5512,5.3903,5.3378,5.3882,5.3812,5.4149,5.4749,5.4124,5.3561,5.3067,5.2504,5.1976,5.1473,5.1406,5.1439,5.1297,4.9579,4.9252,4.9661,4.9133,4.8964,4.8856,1.0547,1.0352,1.0137,0.9852,0.9872,1.0305,1.1394,1.2704,1.5715,2.1677,2.818,3.4182,3.9305,4.4886,4.8282,4.8282,4.8291,4.6436,4.1982,3.7111,3.3246,3.0628,0.0,0.0,4.8717,5.2817,5.5692,5.7277,5.8141,5.856,5.856,5.856,5.8291,5.7816,5.7663,5.7214,5.6555,5.6166,5.476,5.236,4.7666,4.279,3.7977,0.0,0.0,0.0,0.0,0.0,0.0,0.0,0.0,0.0,0.0,0.0,0.0,0.0,0.0,0.0,0.0,0.0,0.0,0.0,0.0,0.0,0.0,0.0,0.0,0.0,0.0,0.0,0.0,0.0,0.0,0.0,0.0,4.2034,4.0383,4.2459,4.4543,4.5522,4.6602,4.7129,4.6803,4.7581,4.8974,5.1018,5.2076,5.335,5.5042,5.6187,5.69,5.7064,5.7696,5.7997,5.7997,5.8042,5.8109,5.8238,5.695,5.7097,5.8448,5.6969,5.6946,5.7962,5.652,5.5781,5.5523,5.4257,5.4473,5.5315,5.1913,5.1437,5.2624,5.2468,5.2415,5.223,1.1005,1.0715,1.0518,1.0498,1.0518,1.0905,1.1932,1.3452,1.7241,2.4883,3.0435,3.6396,4.3471,4.7515,4.9883,5.0474,4.8743,4.6013,4.223,3.7273,3.5925,3.9153,0.0,5.1033,5.3794,5.71,5.883,5.8949,5.9338,5.9368,5.9099,5.9099,5.889,5.8504,5.8504,5.8321,5.7932,5.7633,5.7094,5.6175,5.328,4.8741,4.3466,4.0973,3.7731,3.4367,3.3541,3.2354,3.1204,3.1209,0.0,0.0,0.0,0.0,0.0,0.0,0.0,0.0,0.0,0.0,0.0,0.0,0.0,0.0,0.0,0.0,0.0,0.0,0.0,0.0,0.0,0.0,0.0,0.0,4.3823,4.808,4.7425,4.8119,4.8919,4.9538,5.043,5.1128,5.1333,5.1972,5.2827,5.4144,5.5064,5.6151,5.7487,5.8784,5.9577,5.9861,6.0259,6.0488,6.0488,6.0153,6.0134,6.0318,5.9261,5.943,6.0645,5.9336,5.9361,6.0258,5.8989,5.8442,5.8375,5.729,5.7493,0.0,0.0,0.0,0.0,0.0,5.4758,5.4313,1.1871,1.1401,1.1206,1.1632,1.1296,1.1354,1.251,1.405,1.8795,2.9134,3.2539,3.7914,4.8178,4.9912,5.0787,5.1977,4.898,4.5345,4.1454,3.82,4.0013,4.8097,5.0813,5.4171,5.8564,6.0423,6.1107,6.0666,6.0533,6.015,5.9552,5.942,5.9338,5.9338,5.9249,5.9219,5.9189,5.8504,5.8205,5.8145,5.7483,5.4232,4.9429,4.6515,4.48,4.376,4.1952,3.9812,3.7769,3.7207,0.0,0.0,0.0,0.0,0.0,0.0,0.0,0.0,0.0,0.0,0.0,0.0,0.0,0.0,0.0,0.0,0.0,0.0,0.0,0.0,0.0,0.0,0.0,0.0,4.8482,5.2463,5.4315,5.4854,5.438,5.2486,5.4069,5.5552,5.6157,5.6851,5.7391,5.7577,5.8185,5.8641,5.8864,0.0,0.0,0.0,0.0,6.2956,6.3014,6.1596,6.1161,6.171,6.1429,6.1647,6.2281,6.1535,6.129,6.1459,6.0798,6.0482,6.045,6.0255,6.0259,6.0153,5.7866,5.8336,6.001,5.7806,5.6729,5.6125,1.1744,1.1583,1.151,1.1609,1.1523,1.1986,1.3542,1.5152,1.9889,3.0233,3.4074,3.9295,4.8305,5.0331,5.1116,5.1355,4.9812,4.7481,4.4385,4.635,4.8721,5.1056,5.5771,5.9556,6.2078,6.2509,6.3214,6.4216,6.3084,6.2474,6.2324,6.1234,6.0687,6.0715,6.0146,5.9907,5.9847,5.9189,5.8919,5.886,5.8175,5.5745,5.2461,5.1798,5.0176,4.8079,4.7183,4.6264,4.5458,4.5205,4.241,3.8714,3.7164,0.0,0.0,0.0,0.0,0.0,0.0,0.0,0.0,0.0,0.0,0.0,0.0,0.0,0.0,0.0,0.0,0.0,0.0,0.0,0.0,4.5638,5.1385,5.5509,5.5178,5.7369,5.7739,5.4414,5.4884,5.5672,5.6221,5.7273,5.8532,5.9912,6.1032,6.2249,6.359,6.4069,6.4367,6.4516,6.5051,6.5586,6.6122,6.6348,6.6782,6.7368,0.0,0.0,6.6688,6.4589,6.4396,6.5713,6.4153,6.3458,6.3361,6.1896,6.1819,6.2536,6.108,6.1149,6.1885,6.0884,6.0787,6.091,1.1953,1.1759,1.1674,1.1867,1.1895,1.2472,1.4138,1.5584,1.9835,2.9205,3.2117,3.6202,4.3855,4.4856,4.5018,4.5084,4.5135,4.5208,4.5323,4.9124,5.3073,5.6889,5.9645,6.1885,6.3557,6.3289,6.3262,6.3645,6.2955,6.2448,6.2086,6.1767,6.1613,6.1583,6.1253,6.1104,6.1044,6.0386,5.9907,5.9578,5.9249,5.7943,5.6134,5.5457,5.4413,5.3192,5.2848,5.2178,5.1381,5.1321,4.9386,4.6599,4.4538,4.1141,3.6903,0.0,0.0,0.0,0.0,0.0,0.0,0.0,0.0,0.0,0.0,0.0,0.0,0.0,0.0,3.7284,3.9979,0.0,4.9294,5.1017,5.5567,5.8864,5.8725,6.0377,6.0372,5.6988,5.8199,5.9419,5.9677,6.0831,6.1916,6.2791,6.3409,6.4242,6.5443,6.5832,6.6161,6.649,6.7148,6.7657,6.7986,6.8017,6.8167,6.8465,6.6904,6.6788,6.7956,6.6696,6.6671,6.7447,6.6516,6.5964,6.5576,6.4694,6.4648,6.5052,6.4142,6.376,6.358,6.2342,6.1948,6.1791,1.232,1.2082,1.1956,1.2274,1.2352,1.2882,1.447,1.5658,1.9293,2.7335,2.927,3.2242,3.8505,3.8688,3.8427,3.8686,4.0858,4.3466,4.6389,5.1173,5.6397,6.1928,6.2774,6.3605,6.4671,6.4426,6.4018,6.3468,6.31,6.2491,6.1672,6.1843,6.1912,6.1912,6.1762,6.1702,6.1672,6.1014,6.0416,5.9934,5.9934,5.9578,5.8979,5.7902,5.7483,5.7483,5.7334,5.6316,5.5059,5.5448,5.4431,5.2671,5.0696,4.8004,4.4448,3.8678,3.5903,0.0,0.0,0.0,0.0,0.0,0.0,0.0,0.0,0.0,3.5391,4.0851,4.2653,4.4175,4.7372,5.0998,5.4153,5.6211,5.9124,6.1373,6.2181,6.2778,6.2316,6.018,6.1907,6.3347,6.3438,6.4545,6.5203,6.5203,6.5443,6.5832,6.637,6.7029,6.7627,6.8197,6.8704,6.9004,6.9004,6.8435,6.8197,6.8197,6.7508,6.7479,6.7987,6.7868,6.7808,6.7808,6.7808,6.7508,6.6969,6.6849,6.6879,6.6939,6.6251,6.5772,6.5203,6.3775,6.302,6.2575,1.2746,1.2798,1.2778,1.2805,1.2825,1.3237,1.4514,1.5658,1.8776,2.5381,2.769,3.0532,3.5388,3.6381,3.6948,3.7627,4.3144,4.7457,4.9557,5.6823,6.137,6.2072,6.5014,6.6707,6.6862,6.7942,6.8495,6.8397,6.6605,6.5051,6.3722,6.1987,6.1196,6.1194,6.0595,6.0296,6.0266,5.9608,5.9279,5.9219,5.9219,5.9159,5.9099,5.8949,5.889,5.88,5.8205,5.638,5.4581,5.6316,5.485,5.2377,5.2749,5.2129,5.0,4.3472,0.0,3.9322,3.4105,3.3185,3.3546,3.281,3.4522,3.7545,0.0,0.0,4.3483,4.695,4.9101,5.0627,5.1542,5.4381,5.6877,5.7749,5.9678,6.1553,6.2808,6.3048,6.338,6.4219,6.4038,6.4126,6.4725,6.5443,6.5892,6.5892,6.6969,6.7718,6.7778,6.8405,6.8824,6.8884,6.8944,6.9004,6.9004,6.8914,6.8884,6.8884,6.8227,6.7928,6.7987,6.7358,6.7089,6.7089,6.7089,6.7059,6.6939,6.637,6.646,6.6939,6.6251,6.6311,6.6729,6.6545,6.6813,6.717,1.2864,1.2915,1.2915,1.2915,1.2915,1.3298,1.4514,1.5374,1.7637,2.2562,2.3652,2.5125,2.8255,2.8377,2.9061,3.1025,3.9629,4.611,4.8917,5.8401,6.4243,6.5018,6.6442,6.7546,6.8355,6.8124,6.8057,6.8057,6.5974,6.4695,6.4057,6.2461,6.1672,6.1672,6.1373,6.1253,6.1224,6.0565,6.0057,5.9668,5.9668,5.9458,5.9099,5.9099,5.9099,5.886,5.7064,5.5718,0.0,0.0,5.5089,5.4207,5.5656,5.3969,5.0822,4.7384,4.4669,0.0,4.1301,4.0069,3.951,0.0,4.2188,4.3993,4.7674,4.8349,4.933,5.358,5.4814,5.5562,5.7136,5.8535,5.9668,0.0,6.1463,6.257,6.3498,6.3947,6.4545,6.5443,6.5353,6.5293,6.5532,6.655,6.7148,6.7148,6.8016,6.8555,6.8555,6.8854,6.9004,6.9004,6.9004,6.9004,6.9004,6.8585,6.8405,6.8437,6.7748,6.7628,6.7987,6.7718,6.7598,6.7568,6.7148,6.6999,6.6969,6.67,6.6759,6.6969,6.67,6.6969,6.7538,6.7119,6.7178,6.7298,1.2915,1.2915,1.2915,1.2915,1.2915,1.3298,1.4514,1.5035,1.6515,2.0001,2.0193,2.0628,2.222,2.2154,2.3122,2.5966,3.5478,4.3411,4.8256,5.7955,6.4582,6.7094,6.7738,6.8283,6.8897,6.8332,6.7742,6.7143,6.512,6.3922,6.3473,6.1979,6.1283,6.1283,6.1283,6.1283,6.1253,6.0775,6.0266,5.9817,5.9817,5.9518,5.9099,5.9099,5.8411,5.7214,5.5329,5.4162,0.0,0.0,5.2636,5.2576,5.473,5.3161,5.0315,4.9102,4.6026,4.3231,4.4409,4.418,4.4164,4.673,4.8283,4.9821,5.2295,5.3078,5.4374,5.8262,5.8985,5.9417,6.1087,6.1373,6.1642,6.248,6.3019,6.3617,6.4425,6.4964,6.5503,6.6191,6.6281,6.634,6.652,6.7449,6.8077,6.8287,6.8704,6.9004,6.9004,6.9004,6.9004,6.9004,6.9004,6.8914,6.8704,6.8257,6.7928,6.7718,6.7208,6.7238,6.7718,6.7718,6.7718,6.7718,6.7208,6.6999,6.6999,6.6999,6.7089,6.7299,6.7299,6.7688,6.8227,6.7717,6.7418,6.7178,1.2915,1.2915,1.2915,1.2915,1.2915,1.3298,1.4514,1.472,1.5591,1.7986,1.8291,1.8505,1.9082,2.0232,2.2023,2.4703,3.2145,4.0282,4.8715,5.5602,6.1716,6.6965,6.9064,6.9478,6.8172,6.9433,6.9087,6.6992,6.5045,6.3399,6.2026,6.0076,5.9189,5.9189,5.9189,5.9189,5.9189,5.9189,5.9159,5.9129,5.9129,5.9129,5.9099,5.9099,5.6705,5.3378,5.3288,0.0,0.0,0.0,4.6262,4.5095,4.7758,4.8955,0.0,4.7736,4.4297,4.0829,4.0642,4.2881,4.5662,4.7369,5.1007,5.4602,5.6194,5.7542,5.8784,5.9844,6.1078,6.1975,6.2061,6.2061,6.248,6.3737,6.3947,6.4425,6.5772,6.5951,6.6221,6.6879,6.6969,6.7239,0.0,6.7987,6.8287,6.8914,6.9004,6.9004,6.9004,6.9004,6.9004,6.9004,6.9004,6.8675,6.8047,6.8017,6.7688,6.7029,6.6999,6.6999,6.7029,6.7029,6.7029,6.7029,6.6999,6.6999,6.6999,6.6999,6.7358,6.7987,6.7987,6.8407,6.8974,6.8944,6.8525,6.7868,1.2915,1.2915,1.2915,1.2915,1.2915,1.3174,1.3968,1.4097,1.452,1.573,1.6238,0.0,0.0,0.0,0.0,0.0,0.0,3.8408,4.3095,5.3717,6.0684,6.255,6.7966,7.0704,7.0228,7.0232,6.9849,6.9121,6.6605,6.5109,6.4601,6.264,6.1198,6.0406,6.1274,6.1173,6.0406,6.13,6.1678,6.1602,6.0717,6.0354,6.0128,5.797,5.5239,5.1947,0.0,0.0,0.0,0.0,0.0,0.0,4.6651,4.6313,4.4305,4.2162,4.2434,4.3743,4.5132,4.6747,4.925,5.4397,5.6216,5.7455,6.0292,6.0961,6.1193,6.1916,6.1401,6.0894,6.1373,6.1433,6.1732,6.26,6.3827,6.4964,6.5892,6.637,6.6759,6.6969,6.7389,0.0,0.0,0.0,0.0,6.9602,6.9662,6.9662,6.9662,6.8826,6.8347,6.8347,6.7897,6.7537,6.7359,6.7359,6.7208,6.6999,6.6999,6.6999,6.6999,6.6999,6.6999,6.6999,6.6999,6.6999,6.6999,6.6999,6.7119,6.7359,6.7359,6.7448,6.7657,6.7657,6.7508,6.7389,1.2915,1.2915,1.2915,1.2915,1.2915,0.0,0.0,0.0,0.0,0.0,0.0,0.0,0.0,0.0,0.0,0.0,0.0,0.0,3.9793,4.8947,5.5584,5.854,6.2714,6.5168,6.5709,6.4749,6.4613,6.5392,6.3931,6.3638,6.4395,6.3438,6.2536,6.1746,6.2609,6.2512,6.1771,6.2634,6.266,6.1997,5.9757,5.859,5.7707,5.4068,5.0571,0.0,0.0,0.0,0.0,0.0,0.0,4.027,4.2228,4.2218,4.142,4.1095,4.2967,4.5891,4.9474,5.0835,5.2598,5.8231,5.9335,5.9617,6.1862,6.2241,6.2211,6.2659,6.1134,5.9937,6.0625,6.0328,6.0388,6.1553,6.3199,6.4725,6.5862,6.637,6.6819,6.7329,6.7748,6.8377,0.0,0.0,0.0,6.9993,6.9752,6.9512,6.9305,6.8257,6.7658,6.7658,6.7208,6.6999,6.6999,6.6999,6.6999,6.6999,6.6999,6.6999,6.6999,6.6999,6.6999,6.6999,6.6999,6.6999,6.6999,6.6999,6.6999,6.6999,6.6999,6.6999,6.6999,6.6999,6.6999,6.7059,1.2915,1.2915,1.2915,0.0,0.0,0.0,0.0,0.0,0.0,0.0,0.0,0.0,0.0,0.0,0.0,0.0,0.0,0.0,3.8426,4.1615,4.675,5.4561,5.3923,5.399,5.5442,5.4058,5.4362,5.6523,5.7415,5.898,6.1148,6.2086,6.2507,6.2404,6.2507,6.2483,6.2404,6.2427,6.1579,5.9913,5.621,5.3903,5.2109,4.7761,0.0,0.0,0.0,0.0,0.0,0.0,3.3961,3.567,3.5408,3.7557,4.0871,4.4341,4.5741,4.7391,5.3144,5.4793,5.5641,5.887,6.0411,6.1136,6.1166,6.1732,6.2151,6.1972,6.0416,5.9189,0.0,0.0,5.8713,6.0655,6.2241,6.3887,6.5802,6.6071,6.658,0.0,0.0,0.0,0.0,0.0,0.0,6.9903,0.0,6.8704,6.8107,6.7358,6.6999,6.6999,6.6999,6.6999,6.6999,6.6999,6.6999,6.6999,6.6999,6.6999,6.6999,6.6999,6.6999,6.6999,6.6999,6.6999,6.6999,6.6999,6.6999,6.6999,6.6999,6.6999,6.6999,6.6999,6.6999,6.6999,0.0,0.0,0.0,0.0,0.0,0.0,0.0,0.0,0.0,0.0,0.0,0.0,0.0,0.0,0.0,0.0,0.0,0.0,3.0461,3.6365,4.1165,4.4236,4.8749,5.1612,5.2466,5.1592,5.1622,5.269,5.2942,5.3614,5.4688,5.5509,5.5383,5.4482,5.5492,5.5363,5.4462,5.4854,5.4517,5.3465,5.0968,4.9436,4.8266,4.4738,4.1433,0.0,0.0,0.0,3.2362,3.3036,3.572,3.9127,4.0714,4.3011,4.5281,4.6276,4.9285,5.2879,5.528,5.7077,5.8871,6.1525,6.2015,6.1972,6.248,6.3079,6.281,6.0386,5.9069,5.7513,5.473,5.6346,0.0,5.8773,6.248,0.0,6.661,6.7178,0.0,6.7958,0.0,6.9454,6.9273,6.9692,0.0,0.0,6.8794,6.8914,6.8734,6.7627,6.6999,6.6999,6.6999,6.6999,6.6999,6.6999,6.6999,6.6999,6.6999,6.6999,6.6999,6.6999,6.6999,6.6999,6.6999,6.6999,6.6999,6.6999,6.6999,6.6999,6.6999,6.6999,6.6999,6.6999,6.6999,6.6999,0.0,0.0,0.0,0.0,0.0,0.0,0.0,0.0,0.0,0.0,0.0,0.0,0.0,0.0,0.0,0.0,0.0,0.0,0.0,3.1584,3.4958,3.6649,3.9997,4.2281,4.329,4.23,4.2692,4.4675,4.537,4.6711,4.8547,5.0007,5.0409,4.9974,5.076,5.071,5.0028,5.0045,4.9469,0.0,0.0,4.3688,4.2403,3.8927,3.6493,3.4741,3.329,3.3497,3.4748,3.6472,3.8525,4.0923,4.3973,4.5927,4.7705,5.0932,5.4093,5.7104,5.9525,6.1057,6.2145,6.3234,6.3199,6.266,6.1583,6.1613,6.0835,5.7244,5.5508,5.3868,5.1379,5.3922,5.656,0.0,0.0,0.0,6.6849,6.7598,6.8227,0.0,6.9305,0.0,6.9453,6.9512,6.9243,0.0,6.8495,6.8435,6.8136,6.7418,6.6999,6.6999,6.6999,6.6999,6.6999,6.6999,6.6999,6.6999,6.6999,6.6999,6.6999,6.6999,6.6999,6.6999,0.0,6.6999,6.6999,6.6999,6.6999,6.6999,6.6999,6.6999,6.6999,6.6999,6.6999,6.6999,0.0,0.0,0.0,0.0,0.0,0.0,0.0,0.0,0.0,1.6259,1.5959,1.6551,0.0,0.0,0.0,0.0,0.0,0.0,0.0,0.0,2.8892,3.0844,3.05,3.0896,3.2265,3.1025,3.1955,3.5179,3.6691,3.8967,4.2022,4.41,4.5332,4.5799,4.5909,4.5959,4.5927,4.5358,4.4366,4.2826,3.9532,3.7369,3.5753,0.0,0.0,0.0,3.0911,3.3656,3.7653,4.1037,4.2159,4.2802,4.6615,4.8333,5.0204,5.667,5.9145,6.0505,6.3917,6.4874,6.4695,6.4036,6.3947,6.3139,5.9847,5.9099,5.7872,5.3588,5.1289,4.977,4.8828,5.1528,5.4431,5.5953,0.0,6.5323,6.6909,6.7718,6.8616,6.9873,6.9482,6.9333,6.9812,6.9243,6.8824,6.8734,6.8227,6.7658,6.7148,6.7029,6.6999,6.6999,6.6999,6.6999,6.6999,6.6999,6.6999,6.6999,6.6999,6.6999,6.6999,6.6999,6.6999,6.6999,6.6999,6.7029,6.7119,6.7029,6.7029,6.7119,6.7029,6.6999,6.6999,6.6999,6.6999,6.6999,0.0,0.0,0.0,0.0,0.0,0.0,0.0,0.0,0.0,0.0,1.7787,1.6867,0.0,0.0,0.0,0.0,0.0,0.0,0.0,0.0,0.0,0.0,2.6822,2.7704,2.8532,0.0,0.0,2.9933,3.081,3.1842,3.2989,3.405,3.4595,3.4669,3.4701,3.4728,3.4698,3.4468,3.3923,3.3113,3.2338,3.1595,3.0888,0.0,0.0,0.0,3.3021,3.5542,3.8585,4.3517,4.6739,4.9196,5.1809,5.4892,5.8001,6.023,6.1969,6.3288,6.4006,6.4186,6.4036,6.3408,6.3617,6.3139,5.9847,5.9099,5.7363,5.1223,4.9696,4.8588,4.5693,4.9224,5.3354,5.5803,6.0264,6.4485,6.7419,6.8375,6.9123,0.0,6.9903,6.9632,6.9213,6.8586,0.0,0.0,6.7238,6.7389,6.7808,6.7329,6.6999,6.6999,6.6999,6.6999,6.6999,6.6999,6.6999,6.6999,6.6999,6.6999,6.6999,6.6999,6.6999,6.6999,6.6999,0.0,6.7778,6.7239,6.7329,6.7778,6.7239,6.6999,6.6999,6.6999,6.6999,6.6999,0.0,0.0,0.0,0.0,0.0,0.0,0.0,1.8908,2.0623,2.2852,2.2139,2.1163,2.0459,2.019,2.0374,0.0,0.0,0.0,0.0,0.0,0.0,0.0,0.0,0.0,0.0,0.0,0.0,0.0,0.0,2.7007,2.7942,2.8377,2.8722,2.9006,2.9061,2.9096,2.9082,2.9058,2.8859,2.8589,2.888,2.9039,0.0,0.0,0.0,0.0,0.0,3.5468,3.879,4.1807,4.6991,5.2658,5.5464,5.7652,5.9681,6.2112,6.3624,6.4605,6.4964,6.5293,6.5323,6.4336,6.4306,6.3139,5.7782,5.6286,5.4067,4.7121,4.5705,4.5085,4.315,4.71,5.1342,5.3264,5.8919,6.3886,6.6131,6.8226,6.9752,7.038,7.0171,6.9722,6.9064,6.8407,6.7718,6.7029,6.6999,6.7119,6.7479,6.7148,6.6999,6.6999,6.6999,6.6999,6.6999,6.6999,6.6999,6.6999,6.6999,6.6999,6.6999,6.6999,6.6999,6.6999,6.6999,0.0,6.7449,6.7119,6.7178,6.7449,6.7119,6.6999,6.7029,6.7389,6.7538,6.7568,0.0,0.0,0.0,0.0,0.0,0.0,1.9483,2.1159,2.319,2.6406,2.6914,2.6099,2.3847,2.2238,2.1316,0.0,0.0,0.0,0.0,0.0,0.0,0.0,0.0,0.0,0.0,0.0,0.0,0.0,0.0,0.0,0.0,0.0,0.0,0.0,2.5828,2.5881,2.5909,2.6228,2.6405,0.0,0.0,2.8021,0.0,0.0,0.0,0.0,0.0,3.4846,3.8145,4.0215,4.5751,5.2439,5.6315,5.8114,5.9392,6.2463,6.3857,6.4575,6.5503,6.6281,6.649,6.5293,6.4994,6.311,5.5842,5.3563,5.0923,4.3698,4.2081,4.1882,4.1643,4.5235,4.8947,5.1079,5.6915,6.2061,6.4635,6.7388,6.9512,7.059,7.0141,0.0,6.8854,6.8197,0.0,6.7029,6.6999,6.6999,6.6999,6.6999,6.6999,6.6999,6.6999,6.6999,6.6999,6.6999,6.6999,6.6999,6.6999,6.6999,6.6999,6.6999,6.6999,6.6999,6.6999,0.0,0.0,6.7208,6.7208,6.7208,6.7208,6.7208,6.7299,6.7808,6.8107,6.8287,0.0,0.0,0.0,0.0,0.0,0.0,2.0507,2.2949,2.6108,3.086,3.0614,2.9375,2.774,2.4669,2.1942,0.0,0.0,0.0,0.0,0.0,0.0,0.0,0.0,0.0,0.0,0.0,0.0,0.0,0.0,0.0,0.0,0.0,0.0,0.0,0.0,0.0,2.3936,2.5159,0.0,0.0,0.0,0.0,0.0,0.0,0.0,0.0,0.0,3.4491,3.6219,4.1952,4.4471,4.6169,5.1906,5.6195,5.9384,6.0898,6.1852,6.278,6.4605,6.5562,6.5922,6.5174,6.4994,6.311,5.5842,5.3204,5.0242,4.299,4.1014,4.0954,4.2092,4.3648,4.6381,5.1319,5.3743,5.7363,6.4067,6.5772,6.7298,6.9782,0.0,0.0,6.8167,6.7508,6.7059,6.6999,6.6999,6.6999,6.6999,6.6999,6.6999,6.6999,6.6999,6.6999,6.6999,6.6999,6.6999,6.6999,6.6999,6.6999,6.6999,6.6999,6.6999,6.6999,6.6999,0.0,0.0,6.7928,6.7928,6.7928,6.7928,6.7928,6.7928,6.7987,6.8407,6.8914,0.0,0.0,0.0,0.0,0.0,0.0,2.2455,2.4761,2.7839,3.3112,3.3245,3.218,3.0352,2.7486,2.4256,2.0628,0.0,0.0,0.0,0.0,0.0,0.0,0.0,0.0,0.0,0.0,0.0,0.0,0.0,0.0,0.0,0.0,0.0,0.0,0.0,0.0,0.0,0.0,0.0,0.0,0.0,0.0,0.0,0.0,0.0,0.0,0.0,0.0,3.5257,3.8523,4.1713,4.4506,4.5744,4.9366,5.4097,5.859,6.0655,6.2032,6.4366,6.5772,6.634,6.5263,6.3828,6.0956,5.4491,5.105,4.7638,4.1953,4.0277,4.0217,4.1553,4.2541,4.4487,4.8596,5.1349,5.4431,5.853,6.1403,6.4036,6.67,6.7119,0.0,0.0,0.0,6.7418,6.7029,6.6999,6.6999,6.6999,6.6999,6.6999,6.6999,6.6999,6.6999,6.6999,6.6999,6.6999,6.6999,6.6999,6.6999,6.6999,6.6999,6.6999,6.6999,6.6999,0.0,0.0,6.7987,6.8257,6.8555,6.8167,6.8257,6.8585,6.8585,6.9004,6.9632,0.0,0.0,0.0,0.0,0.0,1.8524,2.3864,2.6358,2.9493,3.47,3.4695,3.3739,3.2512,2.8996,2.5465,2.2432,2.0647,0.0,0.0,0.0,0.0,0.0,0.0,0.0,0.0,0.0,2.3898,2.3898,2.4765,2.5083,0.0,0.0,0.0,0.0,0.0,0.0,0.0,0.0,0.0,0.0,0.0,0.0,0.0,0.0,0.0,0.0,0.0,0.0,0.0,0.0,0.0,4.2402,4.1414,4.3948,4.8498,5.488,5.8261,6.0505,6.311,6.5263,6.643,6.5293,6.302,5.9548,5.3563,4.9673,4.5933,4.1115,3.972,3.981,4.1164,4.1961,4.3409,4.6501,4.9284,5.2067,5.5085,5.8052,6.0984,6.3798,0.0,6.5862,6.7657,6.7926,6.7718,6.7029,6.6999,6.6999,6.6999,6.6999,6.6999,6.6999,6.6999,6.6999,6.6999,6.6999,6.6999,6.6999,6.7178,6.7329,6.7329,6.7478,6.7597,6.7597,6.7597,0.0,0.0,6.8586,6.8734,6.8944,6.8465,6.8585,6.9004,6.9004,6.9542,7.032,0.0,0.0,0.0,0.0,0.0,0.0,2.43,2.7641,3.1232,3.5886,3.4741,3.3769,3.4398,2.8564,2.4874,2.5483,2.1964,0.0,0.0,0.0,0.0,0.0,0.0,0.0,0.0,0.0,2.4605,2.4605,2.5944,2.6243,2.5603,2.6285,2.5832,0.0,0.0,0.0,0.0,0.0,0.0,0.0,0.0,0.0,0.0,0.0,0.0,0.0,0.0,0.0,0.0,0.0,0.0,0.0,0.0,4.1373,4.3619,4.9553,5.4072,5.7723,6.0388,6.3499,6.5862,6.5174,6.302,5.9548,5.3563,4.9673,4.5813,4.0498,3.9391,3.981,4.1164,4.1961,4.3259,4.5882,4.7459,5.0175,5.5444,5.6761,5.8381,6.1732,6.272,6.3617,6.4904,6.6819,6.7718,6.7029,6.6999,0.0,6.6999,6.6999,6.6999,6.6999,6.6999,6.6999,6.6999,6.6999,6.6999,6.6999,6.7688,6.7987,6.8017,6.8675,6.8974,6.8974,0.0,0.0,0.0,6.9993,6.9572,6.9004,6.9004,6.9004,6.9004,6.9004,6.9812,7.0889,0.0,0.0,0.0,0.0,0.0,0.0,2.376,2.6165,2.8872,3.2617,3.1779,3.0925,3.1135,2.7218,2.4694,2.4903,2.2133,0.0,0.0,0.0,0.0,0.0,0.0,0.0,0.0,0.0,2.5722,2.6644,2.7293,2.7755,2.7973,2.6746,2.5951,2.5453,2.4297,0.0,0.0,0.0,0.0,0.0,0.0,0.0,0.0,0.0,0.0,0.0,0.0,0.0,0.0,0.0,0.0,0.0,0.0,0.0,0.0,4.4367,4.9247,5.4341,5.7004,5.9159,6.0209,5.871,5.6316,5.324,4.9112,4.5963,4.308,4.0019,3.9391,3.981,4.1164,4.1583,4.3169,4.763,4.8708,5.0175,5.3648,5.6645,5.9189,6.1194,6.5203,6.7777,0.0,0.0,6.7928,6.7718,6.7238,6.6999,6.6999,6.6999,6.6999,6.6999,6.6999,6.6999,6.6999,6.7449,6.7688,6.7688,6.8345,6.8675,6.8675,6.8884,6.9004,0.0,0.0,0.0,0.0,7.0023,7.0111,7.026,6.9842,6.9662,6.9662,6.9662,6.9931,7.026,0.0,0.0,0.0,0.0,0.0,0.0,0.0,2.5291,2.75,3.0089,2.9042,2.847,2.9488,2.5734,2.3618,2.4874,2.2582,0.0,0.0,0.0,0.0,0.0,0.0,0.0,2.4575,2.5274,2.6632,2.868,2.9412,2.9913,3.0203,2.9174,2.7704,2.5899,2.4823,2.3956,0.0,0.0,0.0,0.0,0.0,0.0,2.6524,0.0,0.0,0.0,0.0,0.0,0.0,0.0,0.0,0.0,0.0,0.0,0.0,0.0,4.4487,4.9366,5.3258,5.5448,5.6346,5.5119,5.2636,4.9763,4.6929,4.4077,4.1523,3.975,3.9391,3.972,4.0816,4.1433,4.293,4.6441,4.7668,4.9366,5.2719,5.5748,5.877,6.1852,6.6131,0.0,0.0,6.8525,6.8646,6.8407,6.7778,6.7389,6.7389,6.7389,6.7389,6.7389,6.7119,6.7119,6.7358,6.7808,6.8137,6.8407,6.9064,6.9363,6.9393,6.9602,6.9722,0.0,0.0,0.0,0.0,7.044,7.056,7.0829,7.0231,7.0023,7.0023,7.0023,7.0141,7.032,0.0,0.0,0.0,0.0,0.0,0.0,0.0,2.4795,2.6778,2.8072,2.6624,2.6392,2.8823,2.4145,2.2073,2.5124,0.0,0.0,0.0,0.0,0.0,0.0,0.0,0.0,2.4634,2.5423,2.7372,3.0543,3.1901,3.2435,3.2225,3.2689,3.047,2.6033,2.5918,2.4839,0.0,0.0,0.0,0.0,0.0,2.546,0.0,0.0,0.0,0.0,0.0,0.0,0.0,0.0,0.0,0.0,0.0,0.0,0.0,0.0,0.0,0.0,0.0,5.1923,5.3473,5.3384,5.1073,4.8289,4.6271,4.3479,0.0,3.9601,3.9361,3.9631,4.0397,4.1523,4.2631,4.3579,4.5284,4.8125,5.2839,5.4935,5.8082,0.0,6.6131,0.0,6.7268,6.8914,6.9722,6.9123,6.8466,6.8077,6.8077,6.8077,6.8077,6.8077,6.7479,6.7418,6.8077,6.8107,6.8466,6.9064,6.9722,7.0051,7.0083,7.0649,7.0889,0.0,0.0,0.0,0.0,7.1158,7.0889,7.0829,7.026,7.0053,7.0023,7.0053,7.038,7.0829,0.0,0.0,0.0,0.0,0.0,0.0,0.0,0.0,0.0,0.0,2.4451,2.4206,2.4322,2.3082,2.2553,0.0,0.0,0.0,0.0,0.0,0.0,0.0,0.0,0.0,2.5334,2.7021,2.8857,3.082,3.2342,3.3174,3.3292,3.1866,2.9902,2.7525,2.6248,2.469,0.0,0.0,0.0,0.0,2.4641,2.5209,0.0,0.0,0.0,0.0,2.8567,2.9557,0.0,0.0,0.0,0.0,0.0,0.0,0.0,0.0,3.8452,3.9876,4.2282,0.0,4.6411,4.5415,4.4597,4.3499,0.0,4.0816,4.0247,3.8901,3.9032,3.9918,4.1613,4.1782,4.302,4.7211,4.8289,5.0384,5.5448,6.0386,0.0,6.8824,6.9692,6.9991,6.9991,6.9991,6.9901,6.9752,6.9123,6.8764,6.8764,6.8764,6.8764,6.8764,6.8615,6.8615,6.8764,6.9243,6.9634,6.9752,7.038,7.0679,7.0679,7.0829,7.0889,0.0,0.0,0.0,7.1128,7.0949,7.0889,7.0889,7.0739,7.041,7.0083,7.05,7.047,7.0201,0.0,0.0,0.0,0.0,0.0,0.0,0.0,0.0,0.0,0.0,0.0,2.2237,2.1863,2.1545,0.0,0.0,0.0,0.0,0.0,0.0,0.0,0.0,0.0,2.3157,2.5135,2.64,2.8613,3.1813,3.2823,3.3761,3.453,3.2916,3.0701,2.7996,2.5544,2.3948,0.0,0.0,0.0,0.0,2.4591,0.0,0.0,0.0,0.0,0.0,2.8778,2.98,0.0,3.4188,3.5462,3.5717,0.0,0.0,0.0,0.0,3.7015,3.7691,3.8392,4.0965,4.3329,4.291,4.2361,4.1643,4.0576,3.9649,3.8811,3.8093,3.8482,3.9379,4.0775,4.1953,4.3658,4.6552,4.9307,5.3049,5.859,6.2959,6.667,6.9662,7.0021,7.026,0.0,7.059,7.041,7.041,6.9812,6.9453,6.9453,6.9453,6.9453,6.9453,6.9722,6.9752,6.9453,6.9844,7.0143,7.041,7.0739,7.0889,7.0889,7.0889,7.0889,0.0,0.0,0.0,7.0889,7.0889,7.0889,7.0889,7.0889,7.0709,7.044,7.0769,7.0679,7.041,0.0,0.0,0.0,0.0,0.0,0.0,0.0,0.0,0.0,0.0,0.0,0.0,0.0,0.0,0.0,0.0,0.0,0.0,0.0,0.0,0.0,0.0,0.0,2.2661,2.4738,2.5158,2.7718,3.2461,3.3219,3.4208,3.5462,3.469,3.2181,2.8079,2.4917,2.3346,0.0,0.0,0.0,0.0,2.454,0.0,0.0,0.0,0.0,0.0,0.0,0.0,0.0,3.5349,3.6899,3.7345,3.7793,0.0,0.0,0.0,0.0,0.0,3.642,3.9365,4.2396,4.2524,4.1818,4.1075,4.0976,3.926,3.7674,3.7584,3.8153,3.902,4.0109,4.2562,4.4685,4.5373,5.0511,5.6346,6.1912,6.4485,6.6639,6.9004,6.9303,0.0,7.0799,7.0889,7.0889,7.0889,7.041,7.0143,7.0143,7.0143,7.0143,7.0143,7.062,7.0649,7.0141,7.0143,7.038,7.0889,7.0889,7.0889,7.0889,7.0889,7.0889,7.0889,0.0,0.0,7.0889,7.0889,7.0889,7.0889,7.0889,7.0889,7.0889,7.0889,7.0889,7.0889,0.0,0.0,0.0,0.0,0.0,0.0,0.0,0.0,0.0,0.0,0.0,0.0,0.0,0.0,0.0,0.0,0.0,0.0,0.0,0.0,0.0,0.0,2.1724,2.2776,2.5079,2.5855,2.7596,3.0466,3.3059,3.4507,3.4869,3.5651,3.3438,2.8681,2.6272,2.4415,2.3095,2.3095,0.0,2.3321,2.439,0.0,0.0,0.0,0.0,0.0,0.0,0.0,0.0,3.3993,3.566,3.6553,3.6088,0.0,0.0,0.0,0.0,0.0,3.6097,3.9307,4.1739,3.9668,3.949,3.9644,3.8984,3.899,3.8913,3.8362,3.923,4.0965,4.3868,4.4796,4.6411,0.0,0.0,6.1194,6.4904,0.0,6.9572,7.05,0.0,7.0679,7.0889,7.0889,7.0889,7.0889,7.0799,7.0769,7.0769,7.0769,7.0769,7.0769,7.0859,7.0859,7.0769,7.0769,7.0799,7.0889,7.0889,7.0889,7.0889,7.0889,7.0889,7.0889,0.0,7.0889,7.0889,7.0889,7.0889,7.0889,7.0889,7.0889,7.0889,7.0889,7.0889,7.0889,0.0,0.0,0.0,0.0,0.0,0.0,0.0,0.0,0.0,0.0,0.0,0.0,0.0,0.0,0.0,0.0,0.0,0.0,0.0,0.0,0.0,2.2373,2.2432,2.3303,2.5124,2.6855,2.9083,3.1837,3.4328,3.5836,3.6434,3.455,3.1683,2.7946,2.5711,2.4114,2.3095,2.3095,2.3095,2.3195,0.0,0.0,0.0,0.0,0.0,0.0,0.0,0.0,0.0,0.0,3.5339,3.5895,3.5787,0.0,0.0,0.0,0.0,0.0,3.4938,3.7638,4.0126,3.9783,4.1892,4.4353,4.5316,0.0,4.4185,4.3379,4.3988,4.4915,4.5693,4.7608,5.1229,5.8022,0.0,6.3318,6.661,6.7508,6.8345,0.0,0.0,7.0141,7.0829,7.0889,7.0889,7.0889,7.0889,7.0889,7.0889,7.0889,7.0889,7.0889,7.0889,7.0889,7.0889,7.0889,7.0889,7.0889,7.0889,7.0889,7.0889,7.0889,7.0889,7.0889,0.0,7.0889,7.0889,7.0889,7.0889,7.0889,7.0889,7.0889,7.0889,7.0889,7.0889,7.0889,0.0,0.0,0.0,0.0,0.0,0.0,0.0,0.0,0.0,0.0,0.0,0.0,0.0,0.0,0.0,0.0,0.0,0.0,0.0,0.0,2.1482,2.3221,2.3687,2.4674,2.6343,2.8185,3.0753,3.4108,3.5902,3.721,3.7914,3.3872,3.0432,2.7587,2.536,2.3888,2.3095,2.3095,2.3095,2.3195,0.0,0.0,0.0,0.0,0.0,0.0,0.0,0.0,0.0,0.0,0.0,0.0,0.0,0.0,0.0,3.3634,3.3612,3.416,3.4534,3.6826,3.9489,4.0932,4.3875,4.7157,0.0,0.0,0.0,0.0,0.0,4.9374,4.8334,5.1379,5.6406,6.3588,6.4455,6.5293,6.8257,6.7807,6.7717,6.9273,6.9453,6.9842,7.0799,7.0889,7.0889,7.0889,7.0889,7.0889,7.0889,7.0889,7.0889,7.0889,7.0889,7.0889,7.0889,7.0889,7.0889,7.0889,7.0889,7.0889,7.0889,7.0889,7.0889,7.0889,7.0889,7.0889,7.0889,7.0889,7.0889,7.0889,7.0889,7.0889,7.0889,7.0889,7.0889,7.0889,0.0,0.0,0.0,0.0,0.0,0.0,0.0,0.0,0.0,0.0,0.0,0.0,0.0,0.0,0.0,0.0,0.0,0.0,0.0,0.0,2.1672,2.3828,2.5427,2.7497,3.0159,2.9918,3.1834,3.6177,3.7336,3.7939,3.7939,3.5052,3.1943,2.8706,2.6465,2.4607,2.3095,2.3095,2.3095,2.3195,2.4324,0.0,0.0,0.0,0.0,0.0,0.0,0.0,0.0,0.0,0.0,0.0,0.0,0.0,3.527,3.4997,3.4615,3.4589,3.6084,3.8702,4.1283,4.2453,4.2328,4.2816,4.6493,4.7356,0.0,4.9864,0.0,0.0,0.0,5.6855,6.0505,6.3588,6.6071,6.8377,7.041,0.0,7.059,7.0739,7.0769,7.0799,7.0889,7.0889,7.0889,7.0889,7.0889,7.0889,7.0889,7.0889,7.0889,7.0889,7.0889,7.0889,7.0889,7.0889,7.0889,7.0889,7.0889,7.0889,7.0889,7.0889,7.0889,7.0889,7.0889,7.0889,7.0889,7.0889,7.0889,7.0889,7.0889,7.0889,7.0889,7.0889,7.0889,7.0889,0.0,0.0,0.0,0.0,0.0,0.0,0.0,0.0,0.0,0.0,0.0,0.0,0.0,0.0,0.0,0.0,0.0,0.0,0.0,0.0,2.2487,2.5443,2.6482,2.8888,3.294,3.4835,3.6641,3.8442,3.9195,3.8693,3.6936,3.4148,3.1085,2.7846,2.6289,2.5059,0.0,0.0,2.3863,2.4199,2.4641,2.4816,0.0,0.0,0.0,0.0,0.0,0.0,0.0,0.0,3.0811,3.1527,3.2185,3.3086,3.3916,3.3918,3.4104,3.4582,3.5911,3.8861,4.1764,4.2635,4.4093,4.6587,0.0,5.4092,5.5731,5.6507,5.8621,0.0,0.0,0.0,6.4575,6.5144,6.7807,7.0051,7.0799,7.0889,7.0889,7.0889,7.0889,7.0889,7.0889,7.0889,7.0889,7.0889,7.0889,7.0889,7.0889,7.0889,7.0889,7.0889,7.0889,7.0889,7.0889,7.0889,7.0889,7.0889,7.0889,7.0889,7.0889,7.0889,7.0889,7.0889,7.0889,7.0889,7.0889,7.0889,7.0889,7.0889,7.0889,7.0889,7.0889,7.0889,7.0889,7.0889,0.0,0.0,0.0,0.0,0.0,0.0,0.0,0.0,0.0,0.0,0.0,0.0,0.0,0.0,0.0,0.0,0.0,0.0,2.0893,2.1306,2.2914,2.6072,2.7085,2.9593,3.398,3.7726,3.9928,4.051,4.0901,3.9398,3.6058,3.3423,3.0834,2.8273,0.0,0.0,0.0,0.0,0.0,2.5042,2.5042,2.5042,0.0,0.0,0.0,0.0,0.0,0.0,0.0,0.0,2.9537,3.0021,3.1171,3.2255,3.311,3.3146,3.4533,3.6152,3.659,3.9565,4.2947,4.4484,4.6981,5.0468,5.5516,5.8106,5.9917,6.1576,6.2909,6.3199,6.1583,0.0,0.0,6.661,6.9034,7.0889,7.0889,7.0889,7.0889,7.0889,7.0889,7.0889,7.0889,7.0889,7.0889,7.0889,7.0889,7.0889,7.0889,7.0889,7.0889,7.0889,7.0889,7.0889,7.0889,7.0889,7.0889,7.0889,7.0889,7.0889,7.0889,7.0889,7.0889,7.0889,7.0889,7.0889,7.0889,7.0889,7.0889,7.0889,7.0889,7.0889,7.0889,7.0889,7.0889,7.0889,0.0,0.0,0.0,0.0,0.0,0.0,0.0,0.0,0.0,0.0,0.0,0.0,0.0,0.0,0.0,0.0,0.0,0.0,2.1432,2.1493,2.2723,2.5485,2.7193,2.9654,3.3011,3.7733,4.0817,4.2172,4.2301,3.9985,3.5408,3.3222,3.1617,0.0,0.0,0.0,0.0,0.0,0.0,0.0,2.5611,2.5611,2.5661,0.0,0.0,0.0,0.0,0.0,0.0,0.0,2.853,2.858,3.1315,3.2638,3.3136,3.3111,3.6335,3.9631,3.8491,4.1179,4.5113,4.8438,5.078,5.3357,5.7512,5.7803,5.8728,6.4202,6.4145,6.3707,6.5652,6.5473,0.0,6.7688,6.9602,7.0889,7.0889,7.0889,7.0889,7.0889,7.0889,7.0889,7.0889,7.0889,7.0889,7.0889,7.0889,7.0889,7.0889,7.0889,7.0889,7.0889,7.0889,7.0889,7.0889,7.0889,7.0889,7.0889,7.0889,7.0889,7.0889,7.0889,7.0889,7.0889,7.0889,7.0889,7.0889,7.0889,7.0889,7.0889,7.0889,7.0889,7.0889,7.0889,7.0889,7.0889,0.0,0.0,0.0,0.0,0.0,0.0,0.0,0.0,0.0,0.0,0.0,0.0,0.0,0.0,0.0,0.0,0.0,0.0,2.139,2.1018,2.2193,2.5469,2.6841,2.8696,3.1142,3.4988,3.8444,4.1442,4.0011,3.7191,3.3172,3.2943,0.0,0.0,0.0,0.0,0.0,0.0,0.0,0.0,2.6532,2.6457,2.6834,0.0,0.0,0.0,0.0,0.0,0.0,0.0,0.0,0.0,3.0563,3.3141,3.5312,3.4089,3.5762,3.7908,3.7469,4.1447,4.6052,4.7518,5.2657,5.8108,6.1024,6.1838,0.0,0.0,6.6483,6.5712,6.5353,6.67,0.0,6.7328,6.9303,7.0889,7.0889,7.0889,7.0889,7.0889,7.0889,7.0889,7.0889,7.0889,7.0889,7.0889,7.0889,7.0889,7.0889,7.0889,7.0889,7.0889,7.0889,7.0889,7.0889,7.0889,7.0889,7.0889,7.0889,7.0889,7.0889,7.0889,7.0889,7.0889,7.0889,7.0889,7.0889,7.0889,7.0889,7.0889,7.0889,7.0889,7.0889,7.0889,7.0889,7.0889,0.0,0.0,0.0,0.0,0.0,0.0,0.0,0.0,2.0037,2.074,2.0238,1.9833,0.0,0.0,0.0,1.894,1.8528,0.0,2.0945,2.0856,2.2186,2.5469,2.6683,2.8406,3.075,3.3509,3.5584,3.6937,3.7054,3.5341,3.1913,0.0,0.0,0.0,0.0,0.0,0.0,0.0,0.0,0.0,2.7814,2.7663,2.7921,0.0,0.0,0.0,0.0,0.0,0.0,0.0,0.0,0.0,3.0161,3.2419,3.4412,3.382,3.5902,3.8736,4.047,4.4712,4.9472,5.304,5.7473,6.1674,6.4427,6.5353,6.6071,0.0,6.7479,6.6999,6.6999,6.8106,0.0,6.8585,6.9871,7.0889,7.0889,7.0889,7.0889,7.0889,7.0889,7.0889,7.0889,7.0889,7.0889,7.0889,7.0889,7.0889,7.0889,7.0889,7.0889,7.0889,7.0889,7.0889,7.0889,7.0889,7.0889,7.0889,7.0889,7.0889,7.0889,7.0889,7.0889,7.0889,7.0889,7.0889,7.0889,7.0889,7.0889,7.0889,7.0889,7.0889,7.0889,7.0889,7.0889,7.0889,0.0,0.0,0.0,0.0,0.0,0.0,0.0,1.9592,1.9592,1.9592,1.9592,1.9345,0.0,0.0,0.0,1.766,1.7581,1.837,2.028,2.0884,2.2473,2.5452,2.6783,2.8643,3.1205,3.2641,3.239,3.0362,3.3798,3.4017,0.0,0.0,3.4198,0.0,0.0,3.4377,0.0,0.0,0.0,0.0,2.9132,2.8913,2.8932,2.8348,0.0,0.0,0.0,0.0,0.0,0.0,0.0,0.0,3.0005,3.1014,3.1726,3.2579,3.627,4.1028,4.5236,4.9285,5.4115,6.1749,6.3528,6.4245,6.7299,6.7987,6.7987,6.7987,0.0,6.7747,6.9664,6.9482,6.9482,7.0709,7.0889,7.0889,7.0889,7.0889,7.0889,7.0889,7.0889,7.0889,7.0889,7.0889,7.0889,7.0889,7.0889,7.0889,7.0889,7.0889,7.0889,7.0889,7.0889,7.0889,7.0889,7.0889,7.0889,7.0889,7.0889,7.0889,7.0889,7.0889,7.0889,7.0889,7.0889,7.0889,7.0889,7.0889,7.0889,7.0889,7.0889,7.0889,7.0889,7.0889,7.0889,7.0889,0.0,0.0,0.0,0.0,0.0,0.0,1.8056,1.807,1.807,1.807,1.807,1.8015,1.7852,1.7838,0.0,1.7619,1.7398,1.8166,2.026,2.0718,2.2304,2.5461,2.7519,2.9057,3.0105,2.9628,2.9126,2.8649,3.1544,3.2,0.0,0.0,0.0,0.0,0.0,0.0,0.0,0.0,0.0,0.0,0.0,2.9183,2.9503,2.848,2.8021,0.0,0.0,0.0,0.0,0.0,0.0,0.0,2.9428,3.1331,3.2561,3.0995,3.4981,4.0348,4.2152,4.8097,5.4911,5.9739,6.3558,6.646,6.7718,6.7987,6.7987,6.7987,6.8286,6.8854,6.9812,6.9871,7.0021,7.0769,7.0889,7.0889,7.0889,7.0889,7.0889,7.0889,7.0889,7.0889,7.0889,7.0889,7.0889,7.0889,7.0889,7.0889,7.0889,7.0889,7.0889,7.0889,7.0889,7.0889,7.0889,7.0889,7.0889,0.0,7.0889,7.0889,7.0889,7.0889,7.0889,7.0889,7.0889,7.0889,7.0889,7.0889,7.0889,7.0889,7.0889,7.0889,7.0889,7.0889,7.0889,7.0889,0.0,0.0,0.0,0.0,0.0,0.0,0.0,0.0,1.8138,1.7958,1.7935,1.772,1.7129,1.7065,0.0,0.0,1.6424,1.7351,1.9723,2.048,2.2615,2.6621,2.8656,2.9377,2.8618,2.8273,2.772,2.6892,2.8875,2.9955,0.0,0.0,0.0,0.0,0.0,0.0,0.0,0.0,0.0,0.0,0.0,2.9754,2.9704,2.8806,2.8154,2.7595,2.6801,0.0,0.0,0.0,0.0,0.0,0.0,0.0,3.1533,3.1084,3.465,3.9826,4.4686,5.0693,5.691,6.2495,6.5922,6.7867,6.7598,6.8047,6.8465,6.8465,6.9004,6.9662,7.029,7.041,7.053,7.0859,7.0889,7.0889,7.0889,7.0889,7.0889,7.0889,7.0889,7.0889,7.0889,7.0889,7.0889,7.0889,7.0889,7.0889,7.0889,7.0889,7.0889,7.0889,7.0889,7.0889,7.0889,7.0889,7.0889,7.0889,7.0889,7.0889,7.0889,7.0889,7.0889,7.0889,7.0889,7.0889,7.0889,7.0889,7.0889,7.0889,7.0889,7.0889,7.0889,7.0889,7.0889,7.0889,0.0,0.0,0.0,0.0,0.0,0.0,0.0,0.0,0.0,1.8079,1.7963,1.755,1.6535,1.6359,1.6054,0.0,0.0,0.0,1.9126,2.0803,2.3547,2.7659,2.9327,2.9277,2.7336,2.7544,2.7092,2.5887,2.6758,0.0,0.0,0.0,0.0,0.0,0.0,0.0,0.0,0.0,0.0,0.0,0.0,0.0,0.0,0.0,0.0,2.7236,2.67,2.6499,2.665,2.7745,0.0,0.0,0.0,0.0,2.9905,3.126,3.4448,3.9283,4.7016,5.3267,5.9301,6.6246,6.8405,6.8555,6.7567,6.8196,6.9064,6.9273,6.9752,7.029,7.0799,7.0889,7.0889,7.0889,7.0889,7.0889,7.0889,7.0889,7.0889,7.0889,7.0889,7.0889,7.0889,7.0889,7.0889,7.0889,7.0889,7.0889,7.0889,7.0889,7.0889,7.0889,7.0889,7.0889,7.0889,7.0889,7.0889,7.0889,7.0889,7.0889,7.0889,7.0889,7.0889,7.0889,7.0889,7.0889,7.0889,7.0889,7.0889,7.0889,7.0889,7.0889,7.0889,7.0889,7.0889,7.0889,0.0,0.0,0.0,0.0,0.0,0.0,0.0,0.0,0.0,0.0,1.6611,1.6337,1.6172,1.5807,1.5512,1.541,1.5777,1.6939,1.9164,0.0,0.0,2.6658,2.7821,2.8072,2.7311,2.6389,2.6314,2.7085,2.6776,0.0,0.0,0.0,0.0,0.0,0.0,0.0,0.0,0.0,0.0,0.0,0.0,0.0,0.0,0.0,0.0,2.7236,2.67,2.6499,2.665,2.7745,2.7795,0.0,0.0,0.0,2.9057,2.9283,3.3436,3.8512,4.118,5.0614,6.1027,6.661,6.8077,6.8257,6.8645,6.8884,6.9303,7.041,7.0709,7.0799,7.0889,7.0889,7.0889,7.0889,7.0889,7.0889,7.0889,7.0889,7.0889,7.0889,7.0889,7.0889,7.0889,7.0889,7.0889,7.0889,7.0889,7.0889,7.0889,7.0889,7.0889,7.0889,7.0889,7.0889,7.0889,7.0889,7.0889,7.0889,7.0889,7.0889,7.0889,7.0889,7.0889,7.0889,7.0889,7.0889,7.0889,7.0889,7.0889,7.0889,7.0889,7.0889,7.0889,7.0889,7.0889,7.0889,0.0,0.0,0.0,0.0,0.0,0.0,0.0,0.0,0.0,0.0,0.0,1.6735,1.6465,1.605,1.5796,1.5796,1.5737,1.6852,1.9569,2.3142,2.5561,2.6449,2.6952,2.6934,2.6356,2.5561,2.5536,2.6356,0.0,0.0,0.0,3.3646,3.4826,0.0,0.0,0.0,0.0,0.0,0.0,0.0,0.0,2.9553,0.0,0.0,0.0,3.02,2.748,2.67,2.706,2.7846,2.8147,2.8348,2.9132,0.0,0.0,0.0,3.3019,3.7978,4.6431,5.4856,6.2391,6.7328,6.8555,6.8615,6.8944,6.9004,6.9273,7.0201,7.0649,7.0889,7.0889,7.0889,7.0889,7.0889,7.0889,7.0889,7.0889,7.0889,7.0889,7.0889,7.0889,7.0889,7.0889,7.0889,7.0889,7.0889,7.0889,7.0889,7.0889,7.0889,7.0889,7.0889,7.0889,7.0889,7.0889,7.0889,7.0889,7.0889,7.0889,7.0889,7.0889,7.0889,7.0889,7.0889,7.0889,7.0889,7.0889,7.0889,7.0889,7.0889,7.0889,7.0889,7.0889,7.0889,7.0889,7.0889,0.0,0.0,0.0,0.0,0.0,0.0,0.0,0.0,0.0,0.0,0.0,1.7282,1.6918,0.0,0.0,0.0,1.5955,1.7086,1.9984,2.2823,2.4833,2.582,2.5996,2.5778,2.5209,2.4791,2.4933,2.5586,0.0,0.0,3.3316,3.3847,3.5353,0.0,3.505,0.0,0.0,0.0,0.0,0.0,2.9509,3.1386,0.0,0.0,0.0,0.0,2.912,2.7788,2.8122,2.8122,2.8455,2.8982,2.9428,2.9258,0.0,0.0,0.0,3.7016,4.9552,5.5568,5.9757,6.5742,6.7478,6.7986,6.9004,6.9243,6.9423,7.0081,7.059,7.0889,7.0889,7.0889,7.0889,7.0889,7.0889,7.0889,7.0889,7.0889,7.0889,7.0889,7.0889,7.0889,7.0889,7.0889,7.0889,7.0889,7.0889,7.0889,7.0889,7.0889,7.0889,7.0889,7.0889,7.0889,7.0889,7.0889,7.0889,7.0889,7.0889,7.0889,7.0889,7.0889,7.0889,7.0889,7.0889,7.0889,7.0889,7.0889,7.0889,7.0889,7.0889,7.0889,7.0889,7.0889,7.0889,7.0889,0.0,0.0,0.0,0.0,0.0,0.0,0.0,0.0,0.0,0.0,0.0,1.7399,1.738,1.6937,1.6523,1.6124,1.6727,1.8035,2.025,2.2145,2.3471,2.4104,2.4616,0.0,2.4079,2.4054,2.4556,0.0,0.0,0.0,3.3872,3.4424,3.6157,3.8743,3.7008,3.505,3.2989,0.0,0.0,0.0,0.0,3.4,0.0,0.0,0.0,0.0,0.0,0.0,3.0186,2.8624,2.8455,2.8907,2.8957,2.8932,2.8993,0.0,0.0,0.0,4.429,4.7377,5.0391,6.0057,6.3378,6.5263,6.9095,6.9963,7.0111,7.0739,7.0889,7.0889,7.0889,7.0889,7.0889,7.0889,7.0889,7.0889,7.0889,7.0889,7.0889,7.0889,7.0889,7.0889,7.0889,7.0889,7.0889,7.0889,7.0889,7.0889,7.0889,7.0889,7.0889,7.0889,7.0889,7.0889,7.0889,7.0889,7.0889,7.0889,7.0889,7.0889,7.0889,7.0889,7.0889,7.0889,7.0889,7.0889,7.0889,7.0889,7.0889,7.0889,7.0889,7.0889,7.0889,7.0889,7.0889,7.0889,0.0,0.0,0.0,0.0,0.0,0.0,0.0,0.0,0.0,0.0,0.0,0.0,0.0,0.0,0.0,1.6966,1.8159,0.0,0.0,2.2283,2.3371,2.3979,2.3304,2.3273,2.3963,2.3117,0.0,0.0,0.0,2.8844,3.2842,3.3771,3.5303,3.7211,3.5529,3.455,3.3922,3.0814,0.0,0.0,0.0,0.0,0.0,0.0,0.0,0.0,0.0,0.0,0.0,3.2545,3.1039,2.9408,2.9032,2.8656,2.8566,2.9502,3.2096,3.5984,4.2115,4.5214,4.8424,5.5837,6.0236,6.3378,6.5622,6.8136,7.0083,7.026,7.062,7.0889,7.0889,7.0889,7.0889,7.0889,7.0889,7.0889,7.0889,7.0889,7.0889,7.0889,7.0889,7.0889,7.0889,7.0889,7.0889,7.0889,7.0889,7.0889,7.0889,7.0889,7.0889,7.0889,7.0889,7.0889,7.0889,7.0889,7.0889,7.0889,7.0889,7.0889,7.0889,7.0889,7.0889,7.0889,7.0889,7.0889,7.0889,7.0889,7.0889,7.0889,7.0889,7.0889,7.0889,7.0889,7.0889,7.0889,0.0,0.0,0.0,0.0,0.0,0.0,0.0,0.0,0.0,0.0,0.0,0.0,0.0,0.0,0.0,1.8385,1.9267,2.0343,2.1495,2.2367,2.3085,2.3662,2.2994,2.2963,2.3672,0.0,0.0,0.0,0.0,0.0,0.0,0.0,3.4324,3.6008,3.4173,0.0,0.0,0.0,0.0,3.1281,0.0,0.0,4.0775,0.0,0.0,0.0,0.0,0.0,0.0,0.0,0.0,0.0,0.0,0.0,0.0,0.0,0.0,0.0,3.9128,4.1833,4.5185,5.1642,5.5534,5.9009,6.3617,6.64,6.8405,6.9961,7.062,7.0889,7.0889,7.0889,7.0889,7.0889,7.0889,7.0889,7.0889,7.0889,7.0889,7.0889,7.0889,7.0889,7.0889,7.0889,7.0889,7.0889,7.0889,0.0,7.0889,7.0889,7.0889,7.0889,7.0889,7.0889,7.0889,7.0889,7.0889,7.0889,7.0889,7.0889,7.0889,7.0889,7.0889,7.0889,7.0889,7.0889,7.0889,7.0889,7.0889,7.0889,7.0889,7.0889,7.0889,7.0889,7.0889,7.0889,0.0,0.0,0.0,0.0,0.0,0.0,0.0,0.0,0.0,0.0,0.0,0.0,0.0,0.0,0.0,0.0,2.0099,2.0534,2.223,2.2318,2.2529,2.3095,2.3672,0.0,0.0,0.0,0.0,0.0,0.0,0.0,0.0,0.0,3.3323,0.0,3.3197,3.3771,3.6257,0.0,3.4477,3.3743,0.0,4.2133,4.0526,0.0,0.0,0.0,4.2281,4.1302,0.0,0.0,0.0,0.0,0.0,0.0,0.0,0.0,0.0,0.0,0.0,0.0,0.0,4.7181,4.9067,5.2031,6.2989,6.4575,6.5054,6.9722,7.0679,7.0739,7.0889,7.0889,7.0889,7.0889,7.0889,7.0889,7.0889,7.0889,7.0889,7.0889,7.0889,7.0889,7.0889,7.0889,7.0889,7.0889,7.0889,7.0889,7.0889,7.0889,7.0889,7.0889,7.0889,7.0889,7.0889,7.0889,7.0889,7.0889,7.0889,7.0889,7.0889,7.0889,7.0889,7.0889,7.0889,7.0889,7.0889,7.0889,7.0889,7.0889,7.0889,7.0889,7.0889,7.0889,7.0889,7.0889,0.0,0.0,0.0,0.0,0.0,1.9277,1.8984,1.9199,0.0,0.0,0.0,0.0,0.0,0.0,0.0,0.0,2.2817,2.2535,2.347,2.258,2.2543,2.3697,2.3315,2.3464,0.0,0.0,0.0,0.0,0.0,0.0,0.0,0.0,0.0,0.0,3.352,3.3646,3.3919,3.2139,0.0,0.0,3.8492,4.1733,0.0,0.0,0.0,0.0,0.0,4.9163,4.7732,0.0,4.4837,3.98,0.0,0.0,0.0,0.0,0.0,0.0,3.4548,0.0,0.0,0.0,0.0,0.0,5.2157,5.5478,5.9069,6.4215,6.5592,6.6939,7.029,7.0889,7.0889,7.0889,7.0889,7.0889,7.0889,7.0889,7.0889,7.0889,7.0889,7.0889,7.0889,7.0889,7.0889,0.0,7.0889,7.0889,7.0889,7.0889,7.0889,7.0889,7.0889,7.0889,7.0889,7.0889,7.0889,7.0889,7.0889,7.0889,7.0889,7.0889,7.0889,7.0889,7.0889,7.0889,7.0889,7.0889,7.0889,7.0889,7.0889,7.0889,7.0889,7.0889,7.0889,7.0889,0.0,0.0,2.0635,2.0323,2.081,2.1074,2.0591,2.1304,2.1641,0.0,0.0,0.0,0.0,0.0,0.0,0.0,2.483,2.4346,2.4652,2.3688,2.3477,2.4299,2.4066,2.4197,2.4775,0.0,0.0,0.0,0.0,0.0,0.0,0.0,0.0,0.0,0.0,0.0,0.0,0.0,0.0,0.0,3.9697,0.0,0.0,4.9464,5.2051,0.0,0.0,0.0,5.0737,5.3071,4.8574,0.0,0.0,0.0,0.0,0.0,0.0,0.0,0.0,0.0,0.0,0.0,0.0,0.0,0.0,5.3648,5.7304,6.4784,6.664,6.7687,7.041,7.1128,7.1308,7.1308,7.1547,7.1547,7.0979,7.0889,7.0889,7.0889,7.0889,7.0889,7.0889,7.0889,7.0889,7.0889,7.0889,7.0889,7.0889,7.0889,7.0889,7.0889,7.0889,7.0889,7.0889,7.0889,7.0889,7.0889,7.0889,7.0889,7.0889,7.0889,7.0889,7.0889,7.0889,7.0889,7.0889,7.0889,7.0889,7.0889,7.0889,7.0889,7.0889,7.0889,7.0889,7.0889,0.0,0.0,2.1434,2.2004,2.2915,2.3427,2.2881,2.406,2.4658,0.0,0.0,0.0,0.0,0.0,0.0,0.0,0.0,2.6009,2.5711,2.5086,2.4794,2.4892,2.541,2.5511,2.5093,2.608,0.0,0.0,0.0,0.0,0.0,0.0,0.0,0.0,2.9132,2.9459,3.0362,2.9609,0.0,3.4447,4.2434,4.4518,0.0,0.0,5.2226,0.0,5.4411,5.3934,5.2101,5.668,5.3059,0.0,0.0,0.0,0.0,0.0,3.51,0.0,0.0,0.0,0.0,0.0,0.0,0.0,0.0,5.4251,5.6436,6.6251,6.8345,6.8585,6.9153,6.9812,7.0263,7.0263,7.1248,7.1787,7.1098,7.1068,7.1098,7.1009,7.1068,7.1098,7.1009,7.1009,7.0979,7.0919,7.0889,7.0889,7.0889,7.0889,7.0889,7.0889,7.0889,7.0889,7.0889,7.0889,7.0889,7.0889,7.0889,7.0889,7.0889,7.0889,7.0889,7.0889,7.0889,7.0889,7.0889,7.0889,7.0889,7.0889,7.0889,7.0889,7.0889,7.0889,7.0889,7.0889,2.3934,2.4641,2.5375,2.5192,2.5966,2.6657,2.6629,2.6798,2.7064,0.0,0.0,0.0,0.0,0.0,0.0,0.0,0.0,0.0,2.6397,2.5105,2.4702,2.5402,2.6005,2.6474,2.6809,2.7035,2.7085,0.0,0.0,0.0,0.0,0.0,0.0,0.0,0.0,2.9013,2.9333,0.0,0.0,3.7989,4.0601,0.0,4.738,5.2955,5.5767,5.6947,5.8227,5.8278,5.7498,0.0,5.4833,5.297,0.0,0.0,0.0,0.0,0.0,0.0,0.0,0.0,0.0,0.0,0.0,0.0,0.0,4.2731,4.5594,5.081,5.2336,5.4012,5.8288,5.9548,5.9967,5.9967,6.3677,6.7777,7.1218,7.2176,7.2325,7.1757,7.2176,7.2295,7.1757,7.1697,7.1457,7.0949,7.0889,7.0889,7.0889,7.0889,7.0889,7.0889,7.0889,7.0889,7.0889,7.0889,7.0889,7.0889,7.0889,7.0889,7.0889,7.0889,7.0889,7.0889,7.0889,7.0889,7.0889,7.0889,7.0889,7.0889,7.0889,7.0889,7.0889,7.0889,7.0889,7.0889,2.5025,2.5753,2.6757,2.7428,2.8615,2.9547,2.9891,3.0824,3.1311,0.0,0.0,0.0,0.0,0.0,0.0,0.0,0.0,0.0,2.7777,2.6498,2.6099,2.6824,2.6884,2.7135,2.7688,2.7437,2.7311,2.7311,0.0,0.0,0.0,0.0,0.0,0.0,0.0,0.0,0.0,0.0,3.3294,3.7989,4.1831,0.0,5.0896,5.534,5.7725,5.8817,5.9935,6.0136,5.946,5.6696,5.4918,0.0,0.0,4.9595,4.8596,0.0,4.2731,4.3928,0.0,0.0,0.0,3.932,0.0,0.0,0.0,0.0,4.4436,5.0092,5.0983,5.1761,5.5085,5.5953,5.6346,5.6978,6.1824,6.5503,6.5503,6.9482,7.2385,7.2385,7.2714,0.0,7.2445,7.2086,7.1607,7.0949,7.0889,7.0889,7.0889,7.0889,7.0889,7.0889,7.0889,7.0889,7.0889,7.0889,7.0889,7.0889,7.0889,7.0889,7.0889,7.0889,7.0889,7.0889,7.0889,7.0889,7.0889,7.0889,7.0889,7.0889,7.0889,7.0889,7.0889,7.0889,7.0889,7.0889,2.6151,2.6648,2.7606,2.9127,3.0694,3.1926,3.2457,3.4111,3.4956,0.0,0.0,0.0,0.0,0.0,0.0,0.0,0.0,0.0,0.0,2.9694,2.914,2.8618,2.7946,2.7946,2.8725,2.7896,2.7462,2.7462,0.0,0.0,0.0,0.0,0.0,0.0,0.0,0.0,0.0,0.0,0.0,3.8919,0.0,4.856,5.2578,5.6771,5.8378,5.8566,6.0261,6.0563,5.9823,5.7646,0.0,5.3158,5.443,5.3226,0.0,0.0,0.0,0.0,0.0,0.0,0.0,0.0,0.0,3.9888,0.0,0.0,0.0,0.0,0.0,0.0,0.0,0.0,0.0,0.0,0.0,0.0,0.0,6.3857,0.0,7.0141,7.2056,0.0,7.1876,7.0919,7.062,7.1248,7.0111,6.9901,7.1038,7.0979,7.0889,7.0889,7.0889,7.0889,7.0889,7.0889,7.0889,7.0889,7.0889,7.0889,7.0889,7.0889,7.0889,7.0889,7.0889,7.0889,7.0889,7.0889,7.0889,7.0889,7.0889,7.0889,7.0889,7.0889,7.0889,7.0889,2.9294,2.9349,2.9642,3.0308,3.1797,3.3093,3.362,3.4335,3.5107,0.0,0.0,0.0,0.0,0.0,0.0,0.0,0.0,0.0,3.538,0.0,3.4956,3.0516,2.9283,2.9434,3.0984,2.9051,2.8021,2.8021,0.0,0.0,0.0,0.0,0.0,0.0,3.2821,0.0,0.0,0.0,4.0399,0.0,4.5673,4.7085,0.0,5.5189,5.7186,5.7412,5.9106,5.9633,5.9273,0.0,5.7382,5.7349,0.0,5.5261,5.9757,0.0,0.0,0.0,0.0,0.0,0.0,0.0,4.2462,0.0,0.0,0.0,0.0,0.0,0.0,0.0,0.0,0.0,0.0,0.0,0.0,0.0,4.9696,5.4426,5.8647,6.0446,0.0,0.0,0.0,6.5981,6.7059,7.2295,6.7268,6.6281,7.152,7.1218,7.0889,7.0889,7.0889,7.0889,7.0889,7.0889,7.0889,7.0889,7.0889,7.0889,7.0889,7.0889,7.0889,7.0889,7.0889,7.0889,7.0889,7.0889,7.0889,7.0889,7.0889,7.0889,7.0889,7.0889,7.0889,7.0889,2.9804,2.9804,3.0055,3.0909,3.221,3.347,3.4653,3.6157,3.7287,0.0,0.0,0.0,0.0,0.0,0.0,0.0,0.0,4.3662,0.0,0.0,0.0,3.2754,3.0221,3.0005,3.2376,2.9605,2.8097,2.8097,2.7261,0.0,0.0,0.0,0.0,0.0,3.4349,0.0,3.7261,0.0,4.224,0.0,0.0,0.0,0.0,5.5732,5.8164,5.8554,5.9257,5.9483,5.9526,0.0,5.8118,0.0,0.0,0.0,0.0,0.0,0.0,0.0,0.0,0.0,0.0,0.0,0.0,0.0,3.8811,0.0,3.7135,0.0,0.0,0.0,0.0,0.0,0.0,0.0,0.0,0.0,0.0,0.0,0.0,0.0,0.0,0.0,0.0,0.0,0.0,0.0,6.7397,6.6581,7.161,7.1637,7.1308,7.0919,7.0889,7.0889,7.0889,7.0889,7.0889,7.0889,7.0889,7.0889,7.0889,7.0889,7.0889,7.0889,7.0889,7.0889,7.0889,7.0889,7.0889,7.0889,7.0889,7.0889,7.0889,7.0889,7.0889,7.0889,2.9804,0.0,3.008,3.1009,3.2089,3.3495,3.5456,3.7136,0.0,0.0,0.0,0.0,4.1304,4.2417,0.0,0.0,0.0,4.8346,0.0,0.0,4.106,3.8483,3.3183,0.0,0.0,3.1634,2.9079,2.8744,2.7528,2.701,0.0,0.0,0.0,0.0,0.0,3.8492,4.0981,0.0,4.4756,4.7376,4.7855,4.9823,5.2926,5.6768,5.878,5.9483,5.9483,5.9483,5.9717,6.1085,5.8644,0.0,6.398,0.0,0.0,0.0,0.0,0.0,4.8424,0.0,0.0,0.0,0.0,0.0,0.0,0.0,0.0,0.0,0.0,0.0,0.0,0.0,0.0,0.0,0.0,0.0,0.0,0.0,0.0,0.0,0.0,0.0,0.0,0.0,0.0,0.0,0.0,6.5429,7.2092,7.2086,7.1667,7.1188,7.1009,7.0889,7.0889,7.0889,7.0889,7.0889,7.0889,7.0889,7.0889,7.0889,7.0889,7.0889,7.0889,7.0889,7.0889,7.0889,7.0889,7.0889,7.0889,7.0889,7.0889,7.0889,7.0889,7.0889,2.9804,2.9804,2.998,3.0512,3.1491,3.3169,3.5954,3.643,0.0,0.0,0.0,0.0,0.0,0.0,0.0,0.0,0.0,6.3319,5.4113,0.0,4.9688,0.0,0.0,3.6926,0.0,3.6123,3.1554,3.0322,2.8817,2.8304,0.0,0.0,0.0,0.0,0.0,3.917,4.0074,4.4899,4.978,5.413,5.2571,5.5175,5.9807,0.0,5.8077,5.9483,5.9483,0.0,0.0,5.9422,5.927,0.0,0.0,0.0,0.0,0.0,0.0,0.0,0.0,0.0,0.0,4.4537,0.0,0.0,0.0,0.0,3.8913,0.0,0.0,0.0,0.0,0.0,0.0,0.0,0.0,0.0,0.0,0.0,0.0,0.0,0.0,0.0,0.0,0.0,0.0,0.0,0.0,0.0,7.3163,7.2595,7.1876,7.1879,7.1248,7.0889,7.0889,7.0889,7.0889,7.0889,7.0889,7.0889,7.0889,7.0889,7.0889,7.0889,7.0889,7.0889,7.0889,7.0889,7.0889,7.0889,7.0889,7.0889,7.0889,7.0889,7.0889,7.0889,0.0,0.0,3.111,3.0231,3.0959,3.2616,3.538,3.6759,0.0,0.0,0.0,0.0,0.0,5.4256,5.6639,0.0,0.0,6.1242,5.6061,5.2966,0.0,0.0,0.0,3.9781,0.0,0.0,3.3215,3.2663,2.9947,2.9059,2.9884,0.0,0.0,0.0,0.0,4.1952,0.0,0.0,0.0,0.0,0.0,5.6204,5.9091,0.0,0.0,6.0057,5.9629,6.0342,0.0,6.2788,6.2326,6.1975,6.6228,6.4755,6.1762,6.3498,6.3258,0.0,0.0,0.0,6.0625,5.069,0.0,0.0,0.0,0.0,0.0,0.0,0.0,0.0,0.0,0.0,0.0,0.0,0.0,0.0,0.0,0.0,0.0,0.0,0.0,0.0,0.0,0.0,0.0,0.0,0.0,0.0,0.0,7.3702,7.3013,7.2595,7.1906,7.1338,7.0889,7.0889,7.0889,7.0889,7.0889,7.0889,7.0889,7.0889,7.0889,7.0889,7.0889,7.0889,7.0889,7.0889,7.0889,7.0889,7.0889,7.0889,7.0889,7.0889,7.0889,7.0889,3.2009,3.1964,3.1662,3.0809,3.1562,3.3093,3.5479,0.0,0.0,0.0,4.8489,0.0,5.674,0.0,5.9565,0.0,6.3875,6.2746,5.9142,5.6004,0.0,5.6268,4.7877,0.0,0.0,0.0,3.8566,3.7762,3.3267,3.139,3.1936,3.0634,0.0,0.0,0.0,4.2654,4.6841,5.0967,5.409,0.0,0.0,5.8169,0.0,0.0,6.0014,5.9333,0.0,6.0146,6.21,6.4188,6.4465,6.482,6.9919,6.7897,6.4246,6.7208,6.646,6.4276,6.263,6.4366,0.0,5.5538,5.461,0.0,4.4616,0.0,0.0,0.0,0.0,0.0,0.0,0.0,0.0,0.0,0.0,0.0,0.0,0.0,0.0,0.0,0.0,0.0,0.0,0.0,0.0,0.0,0.0,0.0,0.0,0.0,7.3702,7.3283,7.2595,7.1936,7.1248,7.1248,7.1128,7.0889,7.0889,7.0889,7.0889,7.0889,7.0889,7.0889,7.0889,7.0889,7.0889,7.0889,7.0889,7.0889,7.0889,7.0889,7.0889,7.0889,7.0889,7.0889,3.3115,3.2286,3.1763,3.2269,3.3219,3.4519,0.0,0.0,4.4805,0.0,5.1264,5.4817,5.8104,6.0903,6.3409,6.566,6.8224,0.0,6.3531,6.0348,0.0,0.0,5.5994,5.514,6.2034,0.0,0.0,0.0,3.8268,3.4897,3.485,3.2895,3.2625,0.0,3.6818,0.0,4.7388,5.0363,5.4738,5.968,6.1,6.113,6.0645,6.0701,5.9562,5.7878,5.7989,5.9253,6.1255,6.3723,6.5724,6.7683,7.0129,7.1338,7.1846,7.1846,7.2325,7.1906,6.7508,6.6311,6.4934,5.9009,5.7513,0.0,0.0,0.0,5.1678,0.0,0.0,0.0,0.0,0.0,0.0,0.0,0.0,0.0,0.0,0.0,0.0,0.0,0.0,0.0,0.0,0.0,0.0,0.0,0.0,0.0,0.0,0.0,7.3612,7.3971,7.3313,7.2624,7.1936,7.1939,7.1577,7.0949,7.0919,7.0889,7.0889,7.0889,7.0889,7.0889,7.0889,7.0889,7.0889,7.0889,7.0889,7.0889,7.0949,7.0949,7.0949,7.0919,7.0889,7.0889,3.3266,3.3847,3.4502,0.0,3.4226,3.5235,0.0,0.0,0.0,0.0,5.6488,5.9851,6.6787,6.8217,6.8884,6.9503,6.7622,0.0,0.0,0.0,0.0,6.5138,5.877,5.7772,6.3409,5.1381,0.0,4.8164,0.0,3.4408,3.5934,3.3264,3.2625,3.3973,0.0,4.2772,4.86,5.2098,5.6396,6.1051,6.3219,6.3472,6.2619,0.0,6.3134,6.1687,6.0359,6.1976,6.4838,6.6031,6.7696,6.9441,7.055,7.1009,7.1158,7.1158,7.1637,7.1876,7.0709,7.0739,6.9961,6.4964,6.3319,6.1674,0.0,0.0,0.0,0.0,0.0,0.0,0.0,0.0,0.0,0.0,0.0,0.0,0.0,0.0,0.0,0.0,0.0,0.0,0.0,0.0,0.0,0.0,0.0,0.0,0.0,0.0,0.0,7.5228,7.424,7.3313,7.2654,7.2146,7.1787,7.1637,7.1128,7.0889,7.0889,7.0889,7.0889,7.0889,7.0889,7.0889,7.0889,7.0889,7.0889,7.0949,7.1457,7.1637,7.1577,7.1068,7.0889,7.0889,3.476,0.0,0.0,3.6635,0.0,0.0,4.2681,4.3779,0.0,5.6993,5.9319,0.0,6.7707,6.9632,7.05,7.05,6.8781,0.0,6.6116,0.0,0.0,6.5967,6.2305,6.2337,6.6908,5.7162,0.0,5.2719,0.0,0.0,3.7126,3.4621,3.3811,3.463,3.908,4.3387,4.7729,5.3861,5.8513,6.1921,6.4508,6.5166,0.0,6.5091,6.4832,6.4081,6.3353,6.4043,6.5458,6.6412,6.8005,6.9722,7.062,7.0889,7.0889,7.0889,7.1158,7.1457,7.1457,7.1727,7.1487,6.9153,6.8315,6.6879,6.2541,6.2361,6.266,0.0,0.0,0.0,0.0,0.0,0.0,0.0,0.0,0.0,0.0,0.0,0.0,0.0,0.0,0.0,0.0,0.0,0.0,0.0,0.0,0.0,0.0,0.0,0.0,7.3971,7.3639,7.337,7.3343,7.2073,7.156,7.1876,7.1517,7.1188,7.0889,7.0889,7.0889,7.0889,7.0889,7.1068,7.1338,7.1338,7.1517,7.1816,7.2206,7.2325,7.2295,7.1906,7.1607,7.1368,0.0,0.0,0.0,0.0,0.0,0.0,0.0,4.843,0.0,5.8463,0.0,6.3339,6.5651,6.8435,7.0143,7.0143,0.0,6.931,6.6482,6.7965,6.8148,6.633,6.5734,6.7153,7.0824,6.4862,0.0,0.0,0.0,0.0,3.8135,3.6159,3.5343,3.5708,4.0157,4.3877,0.0,5.5924,6.0854,6.3174,6.5607,6.6714,6.6871,6.6349,6.6176,6.6234,6.6726,6.5998,6.4981,6.6317,6.7851,6.9333,7.053,7.0889,7.0889,7.0889,7.0889,7.0889,7.0889,7.0889,7.1038,7.1607,7.1816,7.0979,6.7567,6.7298,6.7268,6.5533,6.3827,6.3677,0.0,0.0,0.0,0.0,0.0,0.0,0.0,0.0,0.0,0.0,0.0,0.0,0.0,0.0,0.0,0.0,0.0,0.0,0.0,0.0,0.0,7.2295,7.2893,7.3199,7.3373,0.0,7.1283,7.1517,7.1846,7.1727,7.1158,7.1158,7.1158,7.1158,7.1158,7.1487,7.2026,7.2026,7.2415,7.3043,7.292,7.2954,7.3043,7.3043,7.2654,7.2235,0.0,0.0,0.0,0.0,0.0,5.1985,5.4,5.4862,5.7725,6.4573,6.5067,6.6306,7.0249,7.0709,7.0739,7.0739,6.9428,0.0,0.0,0.0,0.0,6.7741,6.7079,6.804,7.0856,6.3204,5.8483,0.0,0.0,0.0,3.7988,3.5911,3.5596,3.6821,3.9528,4.5815,5.4603,5.8927,0.0,6.7103,6.8617,6.96,7.0138,7.0584,7.0733,7.0674,7.0257,6.8919,6.755,6.8889,6.9558,6.9931,7.0679,7.0889,7.0889,7.0889,7.0889,7.0889,7.0889,7.0889,7.0919,7.1038,7.1487,7.1697,7.1009,7.1398,7.1787,7.1427,7.1068,6.972,6.6161,0.0,0.0,0.0,0.0,0.0,0.0,0.0,0.0,0.0,0.0,0.0,0.0,0.0,0.0,0.0,0.0,0.0,0.0,0.0,0.0,0.0,7.5318,0.0,0.0,0.0,7.2046,6.9542,7.1697,7.2684,7.2565,7.2565,7.2565,7.2565,7.2565,7.2624,7.2744,7.2744,7.3133,7.3672,7.3133,7.3253,7.3732,7.3732,7.3642,7.3492,0.0,0.0,0.0,0.0,0.0,0.0,0.0,6.2249,6.4658,6.6278,6.5404,6.5587,6.8069,6.9572,7.041,7.0378,6.9867,6.9549,6.9549,6.9876,6.9935,6.9582,6.8301,0.0,7.1365,6.6193,6.1551,5.7633,0.0,0.0,3.8399,3.6673,3.6079,3.6678,4.2456,4.9007,5.6072,0.0,0.0,6.8675,7.0679,7.1667,7.1966,7.2295,7.1996,7.1427,7.1816,7.1098,7.0083,7.035,7.026,7.0113,7.0709,7.0889,7.0889,7.0889,7.0889,7.0889,7.0889,7.0889,7.0889,7.0889,7.1128,7.1368,7.1368,7.1906,7.2385,7.2385,7.2654,7.1275,6.5981,5.9129,0.0,0.0,0.0,0.0,0.0,0.0,0.0,0.0,0.0,0.0,0.0,0.0,0.0,0.0,0.0,0.0,0.0,0.0,0.0,0.0,0.0,0.0,0.0,0.0,0.0,7.1547,7.2834,7.3253,7.2924,7.2924,7.2924,7.2924,7.2924,7.3103,7.3462,7.3791,7.4121,7.436,7.4061,7.4121,7.4424,7.4424,7.4424,7.436,0.0,4.6704,0.0,0.0,5.6554,6.155,6.3235,6.7675,7.0021,6.7567,6.6044,6.5529,6.6368,6.8704,7.0171,7.0141,7.062,7.0889,7.0889,7.1398,7.1517,7.1128,6.9457,6.9562,7.1876,6.9776,6.557,0.0,0.0,0.0,0.0,3.8308,3.7843,3.9082,4.6715,0.0,0.0,0.0,6.8166,7.0201,7.2146,7.3013,7.3133,7.3133,7.2475,7.1697,7.2894,7.2894,7.2235,7.1727,7.1038,7.0472,7.0799,7.0889,7.0889,7.0889,7.0889,7.0889,7.0889,7.0889,7.0889,7.0889,7.0889,7.0889,7.0889,7.1308,7.1667,7.1667,7.2325,7.1275,6.5981,6.1882,0.0,0.0,0.0,0.0,0.0,0.0,0.0,0.0,0.0,0.0,0.0,0.0,0.0,0.0,0.0,0.0,0.0,0.0,0.0,0.0,0.0,7.2979,7.3163,0.0,7.328,7.3073,7.3762,7.3821,7.3343,7.3343,7.3343,7.3343,7.3343,7.3612,7.4151,7.4659,7.4903,7.4903,7.4903,7.4903,7.4903,7.4903,7.4903,7.4903,0.0,0.0,0.0,0.0,0.0,6.4573,6.4726,6.8235,7.1009,7.1308,7.0224,6.9863,7.1128,7.0979,7.0829,7.0829,7.0859,7.0889,7.0889,7.0949,7.1248,7.1757,7.055,7.0458,7.1846,7.1055,6.801,0.0,0.0,5.2395,0.0,4.1173,4.2325,4.8208,0.0,0.0,0.0,6.643,6.9482,7.3402,7.3043,7.3283,7.3821,7.3821,7.3732,7.3702,7.442,7.427,7.3702,7.3642,7.2774,7.164,7.1068,7.0889,7.0889,7.0889,7.0889,7.0889,7.0889,7.0889,7.0889,7.0889,7.0889,7.0889,7.0889,7.0949,7.0979,7.0979,7.2026,7.1275,6.5981,6.7508,6.6969,0.0,0.0,0.0,0.0,0.0,0.0,0.0,0.0,0.0,0.0,0.0,0.0,0.0,0.0,0.0,0.0,0.0,0.0,6.9153,0.0,6.835,6.4335,7.1828,7.3866,7.038,7.3406,7.4783,7.4723,7.4723,7.4723,7.4723,7.4723,7.4753,7.4813,7.4873,7.4903,7.4903,7.4903,7.4903,7.4903,7.4903,7.4903,7.4903,0.0,0.0,0.0,0.0,0.0,0.0,0.0,7.107,7.2206,7.2475,7.1368,7.0739,7.1248,7.1068,7.1068,7.1457,7.1128,7.1248,7.2056,7.1368,7.1188,7.1846,7.1398,7.14,7.1876,7.2026,6.9722,0.0,0.0,0.0,0.0,4.6381,4.8626,5.476,0.0,6.3228,6.7388,7.0472,7.2837,7.4484,7.421,7.4001,7.3941,7.433,7.424,7.3971,7.4663,7.4753,7.442,7.4031,7.3283,7.2385,7.1697,7.1487,7.1427,7.1009,7.0889,7.0889,7.0889,7.0889,7.0889,7.0889,7.0889,7.0889,7.0889,7.0889,7.0889,7.0889,7.1637,7.1787,7.0049,6.8434,6.7567,0.0,0.0,0.0,0.0,0.0,0.0,0.0,0.0,0.0,0.0,0.0,0.0,0.0,0.0,0.0,0.0,0.0,0.0,6.3863,0.0,7.1573,6.7604,7.3076,7.4899,7.2957,7.4274,7.4903,7.4903,7.4903,7.4903,7.4903,7.4903,7.4903,7.4903,7.4903,7.4903,7.4903,7.4903,7.4903,7.4903,7.4903,7.4903,7.4903,6.41,0.0,6.3544,0.0,6.8457,6.9512,7.2714,7.3043,7.2924,7.2924,7.2086,7.1487,7.1487,7.1487,7.1667,7.2146,7.1757,7.1816,7.2565,7.1727,7.1398,7.1909,7.1697,0.0,7.2176,7.2654,7.1308,6.8046,6.3139,0.0,0.0,5.2959,5.5209,0.0,6.4844,6.7867,7.0263,7.3526,7.4903,7.4903,7.4903,7.4634,7.424,7.4723,7.4634,7.424,7.4753,7.4903,7.4843,7.433,7.3881,7.3343,7.2475,7.2176,7.2086,7.1637,7.1338,7.1188,7.1188,7.1038,7.0889,7.0889,7.0889,7.0889,7.0889,7.0889,7.0889,7.0889,7.1427,7.2086,7.2804,6.9989,6.8704,7.2059,0.0,0.0,0.0,0.0,0.0,0.0,0.0,0.0,0.0,0.0,0.0,0.0,0.0,0.0,0.0,0.0,0.0,0.0,0.0,0.0,0.0,7.3834,7.5557,7.4903,7.4903,7.4903,7.4903,7.4903,7.4903,7.4903,7.4903,7.4903,7.4903,7.4903,7.4903,7.4903,7.4903,7.4903,7.4903,7.4903,7.4903,7.4903,6.9241,6.8824,6.9363,7.3971,7.3133,7.2295,7.3672,7.3343,7.2924,7.2924,7.2894,7.2894,7.2894,7.2894,7.2894,7.2894,7.2894,7.2595,7.1936,7.1876,7.1876,0.0,0.0,7.1547,7.2864,7.2924,7.286,7.2834,0.0,0.0,6.4725,6.0835,6.1822,6.6909,6.7658,7.0532,7.4843,7.4903,7.4903,7.4903,7.4903,7.4903,7.4903,7.4903,7.4903,7.4903,7.4903,7.4903,7.4903,7.4903,7.4903,7.4663,7.3313,7.2894,7.2894,7.2894,7.2415,7.1876,7.1876,7.1398,7.0889,7.0889,7.0889,7.0889,7.0889,7.0889,7.0889,7.0889,7.1427,7.2086,7.2804,7.3402,7.2325,6.7807,0.0,0.0,0.0,0.0,0.0,0.0,0.0,5.721,6.7,0.0,0.0,0.0,0.0,0.0,0.0,0.0,0.0,6.8736,6.9632,0.0,6.8017,7.3253,7.5557,7.4903,7.4903,7.4903,7.4903,7.4903,7.4903,7.4903,7.4903,7.4903,7.4903,7.4903,7.4903,7.4903,7.4903,7.4903,7.4903,7.4903,7.4903,7.4903,7.2535,7.2295,7.2475,7.3941,7.3672,7.3552,7.4454,7.4001,7.3911,7.4839,7.4151,7.3941,7.4869,7.3732,7.3283,0.0,7.3432,7.3193,0.0,7.3073,7.2804,7.3223,7.3043,7.2924,7.2924,7.3791,7.4031,7.3582,0.0,0.0,0.0,6.6221,6.8435,7.3103,7.3732,7.4599,7.5587,7.5587,7.5318,7.4903,7.4903,7.4903,7.4903,7.4903,7.4903,7.4903,7.4903,7.4903,7.4903,7.4903,7.4903,7.4843,7.439,7.3941,7.3492,7.3043,7.2744,7.2475,7.1996,7.1727,7.1457,7.1009,7.0889,7.0889,7.0889,7.0889,7.0889,7.0889,7.1068,7.1427,7.2086,7.2774,7.2894,7.1876,7.3881,0.0,0.0,0.0,0.0,0.0,0.0,6.4036,0.0,6.0924,0.0,0.0,0.0,0.0,0.0,0.0,0.0,0.0,6.9834,0.0,6.9063,7.3142,7.5078,7.4903,7.4903,7.4903,7.4903,7.4903,7.4903,7.4903,7.4903,7.4903,7.4903,7.4903,7.4903,7.4903,7.4903,7.4903,7.4903,7.4903,7.4903,7.4903,7.436,7.427,7.433,7.4599,7.4659,7.4869,7.5527,7.5258,7.5288,7.6155,7.5527,7.5407,7.6485,7.5288,0.0,7.4873,7.4121,7.3881,7.448,7.3732,7.3343,7.3522,7.3522,7.3462,7.3283,7.4091,0.0,7.4659,7.2385,7.1308,7.1308,7.1727,7.3492,7.624,7.6629,7.6569,7.6245,7.6006,7.5647,7.5228,7.5023,7.4903,7.4903,7.4903,7.4903,7.4903,7.4903,7.4903,7.4903,7.4903,7.4903,7.4903,7.4903,7.4634,7.418,7.3762,7.3462,7.3253,7.3073,7.2654,7.2235,7.2056,7.1637,7.1218,7.0949,7.0889,7.0889,7.0889,7.0889,7.1098,7.1757,7.2235,7.2744,7.3432,7.445,7.4749,7.3552,0.0,0.0,0.0,0.0,0.0,0.0,6.5054,0.0,0.0,0.0,0.0,0.0,0.0,0.0,6.6297,7.2179,0.0,7.1554,7.3771,7.4903,7.4903,7.4903,7.4903,7.4903,7.4903,7.4903,7.4903,7.4903,7.4903,7.4903,7.4903,7.4903,7.4903,7.4903,7.4903,7.4903,7.4903,7.4903,7.4903,7.4903,7.4903,7.5078,7.5766,7.5916,7.6125,7.6689,7.6779,7.6808,7.6838,7.6808,7.7048,7.7741,7.7197,7.6335,7.5083,0.0,0.0,7.4001,7.3971,7.3702,7.3073,7.3043,7.3343,7.3941,7.3971,7.4569,7.5826,7.639,7.6689,7.6719,7.6719,7.6779,7.6868,7.6868,7.6868,7.6808,7.6275,7.6006,7.5916,7.5228,7.4993,7.4963,7.4933,7.4903,7.4903,7.4903,7.4903,7.4903,7.4903,7.4903,7.4903,7.4903,7.4903,7.4903,7.4903,7.445,7.4091,7.4693,7.3911,7.3133,7.3702,7.2894,7.1787,7.1128,7.0979,7.0949,7.0919,7.0889,7.1098,7.1697,7.1879,7.2086,7.2744,7.3313,7.3043,7.1158,7.1906,0.0,0.0,0.0,0.0,0.0,6.7627,7.056,0.0,0.0,0.0,0.0,0.0,6.4006,7.5557,7.5856,7.5527,7.4933,7.4903,7.4903,7.4903,7.4903,7.4903,7.4903,7.4903,7.4903,7.4903,7.4903,7.4903,7.4903,7.4903,7.4903,7.4903,7.4903,7.4903,7.4903,7.4903,7.4903,7.4903,0.0,0.0,7.5078,7.5766,7.5916,7.6125,7.6689,7.6779,7.6958,7.7502,7.7108,7.7048,7.7741,7.7197,7.6479,7.5736,7.5647,7.5377,7.4723,7.4663,7.4604,7.442,7.442,7.448,7.4663,7.4663,7.4843,7.5142,7.5258,7.5617,7.6125,7.6125,7.6634,7.7562,7.7562,7.7562,7.7562,7.7412,7.7053,7.6509,7.5916,7.5647,7.5617,7.5078,7.4903,7.4903,7.4903,7.4903,7.4903,7.4903,7.4903,7.4903,7.4903,7.4903,7.4903,7.4903,7.4813,7.4604,7.421,7.3911,7.3582,7.3223,7.2924,7.2505,7.1816,7.1637,7.1517,7.1009,7.0889,7.0949,7.1098,7.1547,7.1936,7.2116,7.1846,7.1427,7.0979,7.035,6.9363,0.0,6.7717,6.8734,7.1068,7.2026,7.1816,0.0,0.0,0.0,0.0,6.6849,6.8286,7.5677,7.5377,7.5083,7.4903,7.4903,7.4903,7.4903,7.4903,7.4903,7.4903,7.4903,7.4903,7.4903,7.4903,7.4903,7.4903,7.4903,7.4903,7.4903,7.4903,7.4903,7.4903,7.4903,7.4903,7.4903,7.4963,7.5172,7.5557,7.6215,7.6574,7.6993,7.7622,7.7711,7.7861,7.822,7.7951,7.7861,7.822,7.7951,7.7472,7.6844,7.6245,7.5617,7.4963,7.4903,7.4903,7.4903,7.4903,7.4903,7.4903,7.4903,7.5018,7.5347,7.5617,7.5946,7.63,7.63,7.6844,7.7801,7.7801,7.7981,7.825,7.7921,7.7592,7.7197,7.6574,7.63,7.6245,7.5587,7.5347,7.5318,7.5023,7.4903,7.4903,7.4903,7.4903,7.4903,7.4903,7.4903,7.4903,7.4903,7.4903,7.4903,7.4839,7.4599,7.418,7.3522,7.3373,7.3103,7.2116,7.1876,7.1697,7.1038,7.0889,7.0889,7.0889,7.1188,7.1517,7.1846,7.1098,7.059,7.0859,6.9812,6.9333,7.0201,7.032,7.1248,7.3582,7.442,7.3911,7.1757,7.2206,0.0,7.1637,7.1278,7.2565,7.5796,7.5228,7.4903,7.4903,7.4903,7.4903,7.4903,7.4903,7.4903,7.4903,7.4903,7.4903,7.4903,7.4903,7.4903,7.4903,7.4903,7.4903,7.4903,7.4903,7.4903,7.5006,7.5728,7.5999,7.5999,7.5472,7.5796,7.6365,7.6838,7.7407,7.8041,7.8699,7.8789,7.8789,7.8789,7.8789,7.8789,7.8789,7.8789,7.8519,7.7861,7.6814,7.5856,7.5113,7.4963,7.4903,7.4903,7.4903,7.4903,7.4903,7.4903,7.5168,7.5736,7.6275,7.6539,7.6659,7.6659,7.7048,7.7801,7.7801,7.816,7.8759,7.819,7.7951,7.7891,7.7197,7.6928,7.6868,7.6275,7.5976,7.5826,7.5258,7.4993,7.4903,7.4903,7.4903,7.4903,7.4903,7.4903,7.4903,7.4903,7.4903,7.5023,7.5587,7.5318,7.4783,7.418,7.3971,7.3582,7.2325,7.1966,7.1697,7.1038,7.0889,7.0889,7.0889,7.0979,7.1009,7.0859,7.0233,6.9722,6.9842,6.9363,6.9722,7.1667,7.2179,7.3013,7.4753,7.5497,7.5916,7.5916,7.636,7.642,7.5946,7.5796,7.5796,7.5916,7.5228,7.4903,7.4903,7.4903,7.4903,7.4903,7.4903,7.4903,7.4903,7.4903,7.4903,7.4903,7.4903,7.4903,7.4903,7.4903,7.504,7.5282,7.5282,7.5422,7.5796,7.7159,7.7516,7.7322,7.7472,7.7442,7.7532,7.7652,7.7741,7.8041,7.8699,7.8789,7.8789,7.8789,7.8789,7.8789,7.8789,7.8789,7.8519,7.7861,7.7622,7.7023,7.5826,7.5198,7.4903,7.4903,7.4903,7.4903,7.4903,7.4903,7.4963,7.5083,7.5172,7.5467,7.6036,7.6036,7.6664,7.7801,7.7801,7.816,7.8789,7.8669,7.8639,7.8579,7.7921,7.7652,7.7592,7.6898,7.6365,7.5886,7.5766,7.5377,7.4903,7.4903,7.4903,7.4903,7.4903,7.4903,7.4903,7.4903,7.4903,7.4933,7.5053,7.4993,7.4903,7.4783,7.43,7.3702,7.2924,7.2295,7.1697,7.1038,7.0889,7.0889,7.0889,7.1368,7.05,6.6669,6.7328,6.7568,6.5383,6.7328,6.9722,7.1667,7.3406,7.4574,7.4873,7.5497,7.5916,7.5916,7.6006,7.6006,7.5916,7.5347,7.5288,7.5886,7.5228,7.4903,7.4903,7.4903,7.4903,7.4903,7.4903,7.4903,7.4903,7.4903,7.4903,7.4903,7.4903,7.4903,7.4903,7.4903,7.5695,7.6931,7.6931,7.7772,7.9065,7.9312,7.8534,7.7516,7.846,7.834,7.834,7.834,7.834,7.843,7.8729,7.8789,7.8789,7.8789,7.8789,7.8789,7.8789,7.8789,7.8669,7.837,7.8011,7.7562,7.6963,7.5976,7.5437,7.5437,7.5113,7.4903,7.4903,7.5228,7.5437,7.5437,7.5437,7.5587,7.5916,7.5916,7.6395,7.7293,7.7652,7.816,7.8789,7.8789,7.8789,7.8759,7.846,7.834,7.822,7.7167,7.6629,7.6305,7.5617,7.5138,7.4963,7.5318,7.5198,7.4963,7.5318,7.5168,7.4993,7.5318,7.5437,7.5347,7.5023,7.5138,7.5347,7.4993,7.4693,7.4151,7.3163,7.2654,7.2146,7.1128,7.0889,7.0889,7.0889,7.1457,7.0979,6.8166,6.8734,6.9243,6.8375,6.9572,7.1278,7.3286,7.4364,7.4903,7.4903,7.5168,7.5347,7.5347,7.5347,7.5347,7.5347,7.5083,7.5198,7.5886,7.5587,7.5258,7.4903,7.5258,7.5437,7.5437,7.5766,7.5736,7.5437,7.5437,7.5228,7.4903,7.4903,7.4903,7.4903,7.4903,7.532,7.5999,7.5999,7.6467,7.7255,7.8123,7.8534,7.8628,7.9627,7.9477,7.9447,7.9297,7.9267,7.9208,7.9058,7.9148,7.9208,7.9058,7.9178,7.9267,7.9267,7.9267,7.9178,7.9058,7.8699,7.831,7.7831,7.7023,7.6455,7.6125,7.5617,7.5318,7.5318,7.5856,7.6125,7.6125,7.6125,7.6036,7.5916,7.6215,7.6514,7.6838,7.7682,7.831,7.8789,7.8789,7.8789,7.8789,7.8789,7.8789,7.8669,7.7682,7.7167,7.6868,7.5736,7.5318,7.5377,7.5766,7.5647,7.5437,7.5946,7.5647,7.5228,7.5736,7.6006,7.6006,7.5467,7.5707,7.6006,7.5467,7.5228,7.4839,7.3851,7.3373,7.2864,7.1816,7.1487,7.1308,7.1158,7.1816,7.1637,6.9423,7.0231,7.1098,7.1011,7.1517,7.2658,7.4663,7.4903,7.4903,7.4903,7.4903,7.4903,7.4903,7.4903,7.4903,7.4903,7.4903,7.5198,7.5886,7.6036,7.5856,7.5347,7.5856,7.6125,7.6125,7.6569,7.6539,7.6125,7.5976,7.5617,7.5108,7.4993,7.4993,7.5108,7.4963,7.5202,7.5667,7.5516,7.5695,7.6233,7.7868,7.9033,7.968,8.1729,8.1572,8.1362,8.0764,8.0644,8.0434,7.9836,8.0255,8.0434,7.9836,8.0285,8.0644,8.0644,8.0644,8.0405,7.9806,8.0255,7.9806,7.7921,7.828,7.8041,7.6779,7.6689,7.6659,7.6659,7.6689,7.6719,7.6719,7.6719,7.645,7.5946,7.7113,7.7382,7.6838,7.816,7.8729,7.8789,7.8789,7.8789,7.8789,7.8789,7.8789,7.8789,7.8669,7.828,7.7652,7.6898,7.6659,7.6569,7.6066,7.6245,7.6659,7.6719,7.6335,7.5826,7.5886,7.6305,7.6719,7.6659,7.6689,7.6719,7.6659,7.6245,7.5796,7.5707,7.4719,7.3791,7.3702,7.3193,7.2565,7.1936,7.2864,7.2116,6.7119,6.9393,7.1011,6.8616,7.0382,7.2658,7.4663,7.4903,7.4903,7.4903,7.4903,7.4903,7.4903,7.4903,7.4903,7.4903,7.4903,7.5198,7.5886,7.642,7.6689,7.6659,7.6689,7.6719,7.6719,7.6779,7.6779,7.6689,7.6155,7.5886,7.5796,7.5172,7.5228,7.5766,7.5172,7.6126,7.799,7.7374,7.8059,7.962,8.1239,8.0974,7.9986,8.2477,8.2088,8.1691,8.1452,8.1063,8.0704,8.0464,8.0644,8.0704,8.0464,8.0644,8.0794,8.0794,8.0794,8.0704,8.0434,8.0644,8.0315,7.9148,7.9297,7.8639,7.6868,7.7197,7.7227,7.6808,7.7197,7.7407,7.7407,7.7407,7.7322,7.7083,7.7592,7.7682,7.7472,7.84,7.8789,7.8789,7.8789,7.8789,7.8789,7.8789,7.8789,7.8729,7.834,7.8041,7.7711,7.7018,7.6779,7.6808,7.7023,7.6928,7.6868,7.7287,7.6958,7.645,7.645,7.6898,7.7407,7.7407,7.7407,7.7317,7.6898,7.6629,7.633,7.6006,7.5168,7.439,7.3971,7.3373,7.2954,7.3103,7.3552,7.2954,7.0111,7.1966,7.2987,7.0742,7.2358,7.4065,7.4813,7.4903,7.4903,7.4903,7.4903,7.4903,7.4903,7.4903,7.4903,7.4903,7.5647,7.6395,7.7053,7.7711,7.7652,7.6808,7.7197,7.7407,7.7442,7.7861,7.7831,7.7442,7.7203,7.6664,7.5886,7.5617,7.5647,7.5886,7.5617,7.6271,7.7411,7.779,7.8298,7.9005,8.0265,8.0974,8.1092,8.2806,8.2447,8.2118,8.2118,8.1721,8.1362,8.1153,8.1272,8.1332,8.1123,8.1302,8.1422,8.1422,8.1422,8.1332,8.1123,8.1093,8.0734,7.9829,7.9627,7.8878,7.7502,7.7861,7.7921,7.7442,7.7891,7.81,7.81,7.834,7.822,7.7831,7.846,7.84,7.7861,7.8729,7.8998,7.8789,7.8789,7.8789,7.8789,7.8789,7.8789,7.8729,7.828,7.81,7.8041,7.7382,7.7227,7.7472,7.7741,7.7652,7.7532,7.7981,7.7652,7.7048,7.6838,7.7257,7.7801,7.7801,7.7951,7.8011,7.7562,7.7442,7.7322,7.6904,7.6125,7.5377,7.4899,7.43,7.3941,7.4151,7.439,7.4151,7.3047,7.4005,7.4424,7.3047,7.4035,7.4903,7.4903,7.4903,7.4903,7.4903,7.4903,7.4903,7.4903,7.4903,7.4903,7.4903,7.6125,7.6988,7.7502,7.834,7.837,7.7442,7.7891,7.81,7.813,7.8579,7.8549,7.81,7.7921,7.7233,7.6185,7.6185,7.6185,7.6185,7.6185,7.6539,7.7164,7.7982,7.8278,7.8479,7.9997,8.1268,8.1882,8.2806,8.2806,8.2806,8.2806,8.2806,8.2567,8.1938,8.2387,8.2567,8.1871,8.2387,8.2806,8.2806,8.2806,8.2537,8.1878,8.1818,8.1212,7.9896,7.9178,7.8789,7.8789,7.8789,7.8789,7.8789,7.8789,7.8789,7.8789,7.9477,7.9148,7.7891,7.9866,7.9746,7.7891,7.9238,7.9447,7.8789,7.8789,7.8789,7.8789,7.8789,7.8789,7.8789,7.8789,7.8789,7.8699,7.8041,7.825,7.8699,7.8041,7.825,7.8789,7.8789,7.834,7.7682,7.6988,7.7257,7.7801,7.7801,7.828,7.8789,7.8789,7.8789,7.8789,7.8789,7.7771,7.6808,7.6808,7.6335,7.5707,7.5053,7.5467,7.5677,7.5053,7.4933,7.4933,7.4933,7.4933,7.4933,7.4903,7.4903,7.4903,7.4903,7.4903,7.4903,7.4903,7.4903,7.4933,7.4933,7.6125,7.6808,7.6808,7.81,7.8789,7.8789,7.8789,7.8789,7.8789,7.8789,7.8789,7.8759,7.81,7.7442,7.6808,7.6808,7.6808,7.6808,7.6844,7.7203,7.7829,7.82,7.8311,7.8642,8.1263,8.223,8.223,8.2806,8.2806,8.2806,8.2806,8.2806,8.2747,8.2537,8.2687,8.2717,8.2537,8.2687,8.2806,8.2806,8.2806,8.2717,8.2537,8.2088,8.1212,7.9896,7.9178,7.8789,7.8789,7.8789,7.8789,7.8789,7.8789,7.9028,7.9507,7.9716,7.9866,7.9926,8.0524,8.0494,7.9926,8.0315,8.0135,7.9507,7.9507,7.9238,7.8789,7.8789,7.8789,7.8789,7.8789,7.8789,7.8759,7.8579,7.8609,7.8759,7.8579,7.8639,7.8789,7.8789,7.834,7.7682,7.6988,7.7257,7.7622,7.6724,7.7622,7.8789,7.8789,7.8789,7.8789,7.8789,7.813,7.7502,7.7502,7.6958,7.6599,7.6904,7.6724,7.6599,7.6904,7.6544,7.6096,7.5647,7.5587,7.5407,7.4963,7.4903,7.4903,7.4903,7.4903,7.4903,7.4903,7.5318,7.5796,7.6215,7.7053,7.7741,7.819,7.8579,7.8789,7.8789,7.8789,7.8789,7.8789,7.8789,7.8789,7.8789,7.8579,7.813,7.7502,7.7502,7.7502,7.7608,7.8815,7.9421,7.9752,8.1758,8.2163,8.1918,8.3348,8.3865,8.3729,8.2806,8.2806,8.2806,8.2806,8.2806,8.2806,8.2806,8.2806,8.2806,8.2806,8.2806,8.2806,8.2806,8.2806,8.2806,8.2806,8.1931,8.1063,8.0255,7.9567,7.9297,7.9567,7.9327,7.9058,7.8789,7.9058,7.9387,7.977,8.0075,8.0405,8.0823,8.1332,8.1302,8.0823,8.1063,8.0823,8.0225,8.0225,7.9956,7.9567,7.9297,7.9208,7.9178,7.8878,7.8789,7.8789,7.8789,7.8789,7.8789,7.8789,7.8789,7.8789,7.8789,7.8519,7.813,7.7711,7.7711,7.7652,7.6874,7.7502,7.84,7.84,7.8579,7.8789,7.8789,7.828,7.7801,7.7801,7.7502,7.7317,7.7741,7.7502,7.7352,7.7741,7.7227,7.6569,7.6006,7.5916,7.5647,7.4993,7.4903,7.4903,7.4903,7.4903,7.5023,7.5258,7.5677,7.6185,7.6749,7.7442,7.7981,7.84,7.8639,7.8789,7.8789,7.8789,7.8789,7.8789,7.8789,7.8789,7.8789,7.8789,7.843,7.7831,7.8071,7.8041,7.7902,7.9216,7.9988,8.0497,8.2514,8.3231,8.3248,8.3549,8.3674,8.3421,8.2806,8.2806,8.2806,8.2806,8.2806,8.2806,8.2806,8.2806,8.2806,8.2806,8.2806,8.2806,8.2806,8.2806,8.2806,8.2806,8.1601,8.0853,8.0794,8.0225,8.0165,8.0704,8.0195,7.9567,7.8819,7.9417,7.971,7.977,8.0464,8.0823,8.0913,8.2208,8.2148,8.1003,8.1601,8.1512,8.0883,8.0883,8.0853,8.0734,8.0075,7.977,7.9746,7.9058,7.8789,7.8789,7.8789,7.8789,7.8789,7.8789,7.8789,7.8789,7.8789,7.8789,7.8789,7.8729,7.831,7.7861,7.7741,7.7861,7.7951,7.7831,7.834,7.8878,7.8789,7.834,7.7891,7.7891,7.7891,7.7891,7.7891,7.7891,7.7891,7.7891,7.7382,7.6749,7.6155,7.6036,7.5736,7.5083,7.4963,7.4903,7.4903,7.4903,7.5168,7.5856,7.5946,7.6275,7.6838,7.7532,7.7891,7.7891,7.8489,7.8789,7.8789,7.8789,7.8789,7.8789,7.8789,7.8789,7.8789,7.8789,7.846,7.7921,7.8519,7.846,7.7951,7.8699,7.9559,8.0537,8.1539,8.2506,8.3235,8.249,8.2202,8.1939,8.2806,8.2806,8.2806,8.2806,8.2806,8.2806,8.2806,8.2806,8.2806,8.2806,8.2806,8.2806,8.2806,8.2806,8.2806,8.2806,8.2058,8.1362,8.0823,8.0674,8.0405,8.0045,8.0375,8.0016,7.8819,7.8938,7.9267,7.977,8.0464,8.1063,8.1572,8.2417,8.2657,8.2387,8.2507,8.2208,8.1572,8.1572,8.1272,8.0734,8.0075,7.977,7.9746,7.9058,7.8789,7.8789,7.8789,7.8789,7.8789,7.8789,7.8789,7.8789,7.8789,7.8789,7.8699,7.816,7.828,7.834,7.7287,7.8154,7.9082,7.8071,7.8699,7.9447,7.8908,7.8669,7.8579,7.8579,7.8579,7.8579,7.8579,7.8579,7.8579,7.8579,7.846,7.813,7.7502,7.6963,7.6395,7.5766,7.5198,7.4903,7.4903,7.4903,7.5168,7.5856,7.6365,7.6868,7.7562,7.822,7.8579,7.8579,7.8699,7.8789,7.8789,7.8789,7.8789,7.8789,7.8789,7.8789,7.8789,7.8789,7.8699,7.8579,7.8729,7.8699,7.8687,8.0204,8.1071,8.157,8.3116,8.3957,8.4128,8.2723,8.2202,8.1795,8.2806,8.2806,8.2806,8.2806,8.2806,8.2806,8.2806,8.2806,8.2806,8.2806,8.2806,8.2806,8.2806,8.2806,8.2806,8.2806,8.1871,8.1302,8.1272,8.0674,8.0315,8.0285,8.0614,8.0464,7.9776,7.9746,7.9776,7.977,8.0464,8.1123,8.1781,8.2507,8.2806,8.2806,8.2806,8.2597,8.2297,8.2297,8.2088,8.1691,8.1003,8.0554,8.0225,7.9537,7.9088,7.8789,7.8789,7.8789,7.8789,7.8789,7.8789,7.8789,7.8789,7.8789,7.8729,7.837,7.831,7.816,7.7472,7.828,7.9148,7.846,7.9058,7.9627,7.8938,7.8789,7.8789,7.8789,7.8789,7.8789,7.8789,7.8789,7.8789,7.8789,7.8789,7.8549,7.7891,7.7502,7.6928,7.6006,7.5587,7.5228,7.4933,7.4903,7.5288,7.6275,7.6599,7.7227,7.822,7.8609,7.8789,7.8789,7.8789,7.8789,7.8789,7.8789,7.8789,7.8789,7.8789,7.8789,7.8789,7.8789,7.8789,7.8789,7.8789,7.8789,7.8933,8.0652,8.1232,8.1151,8.2569,8.3002,8.2515,8.0562,7.9373,7.8471,8.2806,8.2806,8.2806,8.2806,8.2806,8.2806,8.2806,8.2806,8.2806,8.2806,8.2806,8.2806,8.2806,8.2806,8.2806,8.2806,8.1661,8.1242,8.1938,8.0823,8.0405,8.0943,8.0973,8.0913,8.0794,8.0794,8.0524,7.9949,8.0644,8.1242,8.1781,8.2507,8.2806,8.2806,8.2806,8.2806,8.2806,8.2806,8.2806,8.2747,8.2088,8.1452,8.0883,8.0105,7.9447,7.8938,7.8819,7.8789,7.8789,7.8789,7.8789,7.8789,7.8789,7.8789,7.8789,7.8789,7.84,7.8011,7.813,7.8639,7.9118,7.8998,7.9477,7.9776,7.8968,7.8789,7.8789,7.8789,7.8789,7.8789,7.8789,7.8789,7.8789,7.8789,7.8789,7.8609,7.8041,7.7891,7.7382,7.6185,7.5856,7.5587,7.5258,7.5053,7.5407,7.6689,7.6779,7.7352,7.8549,7.8729,7.8789,7.8789,7.8789,7.8789,7.8789,7.8789,7.8789,7.8789,7.8789,7.8789,7.8789,7.8789,7.8789,7.8789,7.8789,7.8789,7.8933,8.037,8.0699,8.0394,8.1154,8.1154,8.0421,7.8119,7.6268,7.4903,8.2806,8.2806,8.2806,8.2806,8.2806,8.2806,8.2806,8.2806,8.2806,8.2806,8.2806,8.2806,8.2806,8.2806,8.2806,8.2806,8.2118,8.1968,8.2627,8.1968,8.1572,8.1631,8.1631,8.1392,8.0823,8.0794,8.0764,8.0674,8.1332,8.1691,8.1781,8.2507,8.2806,8.2806,8.2806,8.2806,8.2806,8.2806,8.2806,8.2747,8.2088,8.1721,8.1512,8.0285,7.971,7.9597,7.8998,7.8789,7.8789,7.8789,7.8789,7.8789,7.8789,7.8789,7.8789,7.8789,7.8729,7.8789,7.9387,8.0016,8.0405,7.9806,8.0165,8.0345,7.9088,7.8789,7.8789,7.8789,7.8789,7.8789,7.8789,7.8789,7.8789,7.8789,7.8789,7.8759,7.8669,7.816,7.7532,7.6749,7.5707,7.5437,7.642,7.5557,7.5407,7.6689,7.6779,7.7108,7.7891,7.8489,7.8789,7.8789,7.8789,7.8789,7.8789,7.8789,7.8789,7.8789,7.8789,7.8789,7.8789,7.8789,7.8789,7.8789,7.8789,7.8789,7.8825,7.9046,7.962,8.026,7.9814,8.0075,8.0421,7.8119,7.6268,7.4903,8.2806,8.2806,8.2806,8.2806,8.2806,8.2806,8.2806,8.2806,8.2806,8.2806,8.2806,8.2806,8.2806,8.2806,8.2806,8.2806,8.2208,8.1938,8.2238,8.1601,8.1242,8.1242,8.1572,8.1631,8.1362,8.1759,8.1938,8.1938,8.1848,8.1818,8.1781,8.2507,8.2806,8.2806,8.2806,8.2806,8.2806,8.2806,8.2806,8.2776,8.2477,8.2148,8.1759,8.1123,8.0674,8.0285,7.9597,7.9118,7.8789,7.8789,7.8789,7.8789,7.8789,7.8789,7.8789,7.8789,7.8789,7.8938,7.9627,8.0285,8.0734,8.0434,8.0584,8.0554,7.9597,7.9058,7.8789,7.8789,7.8789,7.8789,7.8789,7.8789,7.8789,7.8789,7.8789,7.8789,7.8789,7.8549,7.81,7.7442,7.6544,7.6066,7.6305,7.5796,7.5826,7.6719,7.6779,7.7263,7.831,7.8639,7.8789,7.8789,7.8789,7.8789,7.8789,7.8789,7.8789,7.8789,7.8789,7.8789,7.8789,7.8789,7.8789,7.8789,7.8789,7.8789,7.8897,7.9839,7.9938,7.9498,7.9798,7.9138,7.7851,7.6477,7.5523,7.4903]}]]